[[{"header":{"parameterUnit":"m.s-1","parameterCategory":1,"la1":30.6,"la2":29.2853,"lo1":-89.7004,"lo2":-87.6739,"dy":0.0162,"dx":0.0183,"nx":112,"ny":82,"refTime":"2024-03-18T06:00:00:Z","depth":0,"parameterNumber":2,"parameterNumberName":"U-component_of_WINDS"},"data":[0.0,0.0,0.0,0.0,0.0,0.0,0.0,0.0,0.0,0.0,0.0,0.0,0.0,0.0,0.0,0.0,0.0,0.0,0.0,0.0,0.0,0.0,0.0,0.0,0.0,0.0,0.0,0.0,0.0,0.0,0.0,0.0,0.0,0.0,0.0,0.0,0.0,0.0,0.0,0.0,0.0,0.0,0.0,0.0,0.0,0.0,0.0,0.0,0.0,0.0,0.0,0.0,0.0,0.0,0.0,0.0,0.0,0.0,0.0,0.0,0.0,0.0,0.0,0.0,0.0,0.0,0.0,0.0,0.0,0.0,0.0,0.0,0.0,0.0,0.0,0.0,0.0,0.0,0.0,0.0,0.0,0.0,0.0,0.0,0.0,0.0,0.0,0.0,0.0,0.0,-3.8707,-3.9203,-4.1791,-4.3515,-4.3515,-4.3299,-4.0866,-3.5433,0.0,0.0,0.0,0.0,0.0,0.0,0.0,0.0,0.0,0.0,0.0,0.0,0.0,0.0,0.0,0.0,0.0,0.0,0.0,0.0,0.0,0.0,0.0,0.0,0.0,0.0,0.0,0.0,0.0,0.0,0.0,0.0,0.0,0.0,0.0,0.0,0.0,0.0,0.0,0.0,0.0,0.0,0.0,0.0,0.0,0.0,0.0,0.0,0.0,0.0,0.0,0.0,0.0,0.0,0.0,0.0,0.0,0.0,0.0,0.0,0.0,0.0,0.0,0.0,0.0,0.0,0.0,0.0,0.0,0.0,0.0,0.0,0.0,0.0,0.0,0.0,0.0,0.0,0.0,0.0,0.0,0.0,0.0,0.0,0.0,0.0,0.0,0.0,0.0,0.0,0.0,0.0,0.0,0.0,0.0,0.0,0.0,0.0,0.0,0.0,0.0,0.0,0.0,0.0,-3.8741,-4.146,-4.28,-4.3515,-4.3515,-4.2396,-3.9824,-3.5381,0.0,0.0,0.0,0.0,0.0,0.0,0.0,0.0,0.0,0.0,0.0,0.0,0.0,0.0,0.0,0.0,0.0,0.0,0.0,0.0,0.0,0.0,0.0,0.0,0.0,0.0,0.0,0.0,0.0,0.0,0.0,0.0,0.0,0.0,0.0,0.0,0.0,0.0,0.0,0.0,0.0,0.0,0.0,0.0,0.0,0.0,0.0,0.0,0.0,0.0,0.0,0.0,0.0,0.0,0.0,0.0,0.0,0.0,0.0,0.0,0.0,0.0,0.0,0.0,0.0,0.0,0.0,0.0,0.0,0.0,0.0,0.0,0.0,0.0,0.0,0.0,0.0,0.0,0.0,0.0,0.0,0.0,0.0,0.0,0.0,0.0,0.0,0.0,0.0,0.0,0.0,0.0,0.0,0.0,0.0,0.0,0.0,0.0,0.0,0.0,0.0,0.0,0.0,-3.7496,-3.9368,-4.2598,-4.3277,-4.3515,-4.3515,-4.2632,-4.0273,-3.5953,-3.5048,0.0,0.0,0.0,0.0,0.0,0.0,0.0,0.0,0.0,0.0,0.0,0.0,0.0,0.0,0.0,0.0,0.0,0.0,0.0,0.0,0.0,0.0,0.0,0.0,0.0,0.0,0.0,0.0,0.0,0.0,0.0,0.0,0.0,0.0,0.0,0.0,0.0,0.0,0.0,0.0,0.0,0.0,0.0,0.0,0.0,0.0,0.0,0.0,0.0,0.0,0.0,0.0,0.0,0.0,0.0,0.0,0.0,0.0,0.0,0.0,0.0,0.0,0.0,0.0,0.0,0.0,0.0,0.0,0.0,0.0,0.0,0.0,0.0,0.0,0.0,0.0,0.0,0.0,0.0,0.0,0.0,0.0,0.0,0.0,0.0,0.0,0.0,0.0,0.0,0.0,0.0,0.0,0.0,0.0,0.0,0.0,0.0,0.0,0.0,0.0,0.0,0.0,-3.9129,-4.0139,-4.3184,-4.3331,-4.3243,-4.3303,-4.232,-4.0015,-3.5988,-3.4204,0.0,0.0,0.0,0.0,0.0,0.0,0.0,0.0,0.0,0.0,0.0,0.0,0.0,0.0,0.0,0.0,0.0,0.0,0.0,0.0,0.0,0.0,0.0,0.0,0.0,0.0,0.0,0.0,0.0,0.0,0.0,0.0,0.0,0.0,0.0,0.0,0.0,0.0,0.0,0.0,0.0,0.0,0.0,0.0,0.0,0.0,0.0,0.0,0.0,0.0,0.0,0.0,0.0,0.0,0.0,0.0,0.0,0.0,0.0,0.0,0.0,0.0,0.0,0.0,0.0,0.0,0.0,0.0,0.0,0.0,0.0,0.0,0.0,0.0,0.0,0.0,0.0,0.0,0.0,0.0,0.0,0.0,0.0,0.0,0.0,0.0,0.0,0.0,0.0,0.0,0.0,0.0,0.0,0.0,0.0,0.0,0.0,0.0,0.0,0.0,0.0,0.0,-3.8943,-4.0761,-4.3239,-4.2818,-4.25,-4.2735,-4.0317,-3.7543,-3.4622,-3.1888,0.0,0.0,0.0,0.0,0.0,0.0,0.0,0.0,0.0,0.0,0.0,0.0,0.0,0.0,0.0,0.0,0.0,0.0,0.0,0.0,0.0,0.0,0.0,0.0,0.0,0.0,0.0,0.0,0.0,0.0,0.0,0.0,0.0,0.0,0.0,0.0,0.0,0.0,0.0,0.0,0.0,0.0,0.0,0.0,0.0,0.0,0.0,0.0,0.0,0.0,0.0,0.0,0.0,0.0,0.0,0.0,0.0,0.0,0.0,0.0,0.0,0.0,0.0,0.0,0.0,0.0,0.0,0.0,0.0,0.0,0.0,0.0,0.0,0.0,0.0,0.0,0.0,0.0,0.0,0.0,0.0,0.0,0.0,0.0,0.0,0.0,0.0,0.0,0.0,0.0,0.0,0.0,0.0,0.0,0.0,0.0,0.0,0.0,0.0,0.0,0.0,0.0,-3.8906,-4.0432,-4.1846,-4.2176,-4.1989,-4.1269,-3.9935,-3.7727,-3.4493,0.0,0.0,0.0,0.0,0.0,0.0,0.0,0.0,0.0,0.0,0.0,0.0,0.0,0.0,0.0,0.0,0.0,0.0,0.0,0.0,0.0,0.0,0.0,0.0,0.0,0.0,0.0,0.0,0.0,0.0,0.0,0.0,0.0,0.0,0.0,0.0,0.0,0.0,0.0,0.0,0.0,0.0,0.0,0.0,0.0,0.0,0.0,0.0,0.0,0.0,0.0,0.0,0.0,0.0,0.0,0.0,0.0,0.0,0.0,0.0,0.0,0.0,0.0,0.0,0.0,0.0,0.0,0.0,0.0,0.0,0.0,0.0,0.0,0.0,0.0,0.0,0.0,0.0,0.0,0.0,0.0,0.0,0.0,0.0,0.0,0.0,0.0,0.0,0.0,0.0,0.0,0.0,0.0,0.0,0.0,0.0,0.0,0.0,0.0,0.0,0.0,0.0,-3.634,-3.8135,-3.9643,-4.0948,-4.1216,-4.0959,-4.0128,-3.8706,-3.6648,-3.3842,0.0,0.0,0.0,0.0,0.0,0.0,0.0,0.0,0.0,0.0,0.0,0.0,0.0,0.0,0.0,0.0,0.0,0.0,0.0,0.0,0.0,0.0,0.0,0.0,0.0,0.0,0.0,0.0,0.0,0.0,0.0,0.0,0.0,0.0,0.0,0.0,0.0,0.0,0.0,0.0,0.0,0.0,0.0,0.0,0.0,0.0,0.0,0.0,0.0,0.0,0.0,0.0,0.0,0.0,0.0,0.0,0.0,0.0,0.0,0.0,0.0,0.0,0.0,0.0,0.0,0.0,0.0,0.0,0.0,0.0,0.0,0.0,0.0,0.0,0.0,0.0,0.0,0.0,0.0,0.0,0.0,0.0,0.0,0.0,0.0,0.0,0.0,0.0,0.0,0.0,0.0,0.0,0.0,0.0,0.0,0.0,0.0,0.0,0.0,0.0,0.0,0.0,-3.4802,-3.6468,-3.8432,-4.082,-3.9887,-3.9193,-3.9443,-3.6297,-3.3719,0.0,0.0,0.0,0.0,0.0,0.0,0.0,0.0,0.0,0.0,0.0,0.0,0.0,0.0,0.0,0.0,0.0,0.0,0.0,0.0,0.0,0.0,0.0,0.0,0.0,0.0,0.0,0.0,0.0,0.0,0.0,0.0,0.0,0.0,0.0,0.0,0.0,0.0,0.0,0.0,0.0,0.0,0.0,0.0,0.0,0.0,0.0,0.0,0.0,0.0,0.0,0.0,0.0,0.0,0.0,0.0,0.0,0.0,0.0,0.0,0.0,0.0,0.0,0.0,0.0,0.0,0.0,0.0,0.0,0.0,0.0,0.0,0.0,0.0,0.0,0.0,0.0,0.0,0.0,0.0,0.0,0.0,0.0,0.0,0.0,0.0,0.0,0.0,0.0,0.0,0.0,0.0,0.0,0.0,0.0,0.0,0.0,0.0,0.0,0.0,0.0,0.0,0.0,-3.4802,-3.6964,-3.847,-3.88,-3.9009,-3.8616,-3.7423,-3.5916,-3.4024,-3.1653,0.0,0.0,0.0,0.0,0.0,0.0,0.0,0.0,0.0,0.0,0.0,0.0,0.0,0.0,0.0,0.0,0.0,0.0,0.0,0.0,0.0,0.0,0.0,0.0,0.0,0.0,0.0,0.0,0.0,0.0,0.0,0.0,0.0,0.0,0.0,0.0,0.0,0.0,0.0,0.0,0.0,0.0,0.0,0.0,0.0,0.0,0.0,0.0,0.0,0.0,0.0,0.0,0.0,0.0,0.0,0.0,0.0,0.0,0.0,0.0,0.0,0.0,0.0,0.0,0.0,0.0,0.0,0.0,0.0,0.0,0.0,0.0,0.0,0.0,0.0,0.0,0.0,0.0,0.0,0.0,0.0,0.0,0.0,0.0,0.0,0.0,0.0,0.0,0.0,0.0,0.0,0.0,0.0,0.0,0.0,0.0,0.0,0.0,0.0,0.0,0.0,0.0,-3.3885,-3.6014,-3.7414,-3.7423,-3.7775,-3.7574,-3.6492,-3.5263,-3.3573,-3.1328,0.0,0.0,0.0,0.0,0.0,0.0,0.0,0.0,0.0,0.0,0.0,0.0,0.0,0.0,0.0,0.0,0.0,0.0,0.0,0.0,0.0,0.0,0.0,0.0,0.0,0.0,0.0,0.0,0.0,0.0,0.0,0.0,0.0,0.0,0.0,0.0,0.0,0.0,0.0,0.0,0.0,0.0,0.0,0.0,0.0,0.0,0.0,0.0,0.0,0.0,0.0,0.0,0.0,0.0,0.0,0.0,0.0,0.0,0.0,0.0,0.0,0.0,0.0,0.0,0.0,0.0,0.0,0.0,0.0,0.0,0.0,0.0,0.0,0.0,0.0,0.0,0.0,0.0,0.0,0.0,0.0,0.0,0.0,0.0,0.0,0.0,0.0,0.0,0.0,0.0,0.0,0.0,0.0,0.0,0.0,0.0,0.0,0.0,0.0,0.0,0.0,0.0,-3.2491,-3.4259,-3.5722,-3.648,-3.6466,-3.6374,-3.6312,-3.4533,-3.278,-3.1292,0.0,0.0,0.0,0.0,0.0,0.0,0.0,0.0,0.0,0.0,0.0,0.0,0.0,0.0,0.0,0.0,0.0,0.0,0.0,0.0,0.0,0.0,0.0,0.0,0.0,0.0,0.0,0.0,0.0,0.0,0.0,0.0,0.0,0.0,0.0,0.0,0.0,0.0,0.0,0.0,0.0,0.0,0.0,0.0,0.0,0.0,0.0,0.0,0.0,0.0,0.0,0.0,0.0,0.0,0.0,0.0,0.0,0.0,0.0,0.0,-3.8058,-3.6334,0.0,0.0,0.0,0.0,0.0,0.0,0.0,0.0,0.0,0.0,0.0,0.0,0.0,0.0,0.0,0.0,0.0,0.0,0.0,0.0,0.0,0.0,0.0,0.0,0.0,0.0,0.0,0.0,0.0,0.0,0.0,0.0,0.0,0.0,0.0,0.0,0.0,0.0,0.0,0.0,-3.238,-3.3943,-3.5119,-3.5542,-3.607,-3.6224,-3.5805,-3.4316,-3.278,-3.1292,-2.9174,0.0,0.0,0.0,0.0,0.0,0.0,0.0,0.0,0.0,0.0,0.0,0.0,0.0,0.0,0.0,0.0,0.0,0.0,0.0,0.0,0.0,0.0,0.0,0.0,0.0,0.0,0.0,0.0,0.0,0.0,0.0,0.0,0.0,0.0,0.0,0.0,0.0,0.0,0.0,0.0,0.0,0.0,0.0,0.0,0.0,0.0,0.0,0.0,0.0,0.0,0.0,0.0,0.0,0.0,0.0,0.0,0.0,0.0,0.0,-3.9681,-3.8666,0.0,0.0,0.0,0.0,0.0,0.0,0.0,0.0,0.0,0.0,0.0,0.0,0.0,0.0,0.0,0.0,0.0,0.0,0.0,0.0,0.0,0.0,0.0,0.0,0.0,0.0,0.0,0.0,0.0,0.0,0.0,0.0,0.0,0.0,0.0,0.0,0.0,0.0,0.0,0.0,-3.1809,-3.2756,-3.3577,-3.4133,-3.4654,-3.4844,-3.4578,-3.3525,-3.2391,-3.1258,-2.9046,0.0,0.0,0.0,0.0,0.0,0.0,0.0,0.0,0.0,0.0,0.0,0.0,0.0,0.0,0.0,0.0,0.0,0.0,0.0,0.0,0.0,0.0,0.0,0.0,0.0,0.0,0.0,0.0,0.0,0.0,0.0,0.0,0.0,0.0,0.0,0.0,0.0,0.0,0.0,0.0,0.0,0.0,0.0,0.0,0.0,0.0,0.0,0.0,0.0,0.0,0.0,0.0,0.0,-4.1189,-4.1304,-4.117,-4.1324,-4.1777,-4.2423,-4.164,-4.1523,-4.1668,-3.8814,0.0,0.0,0.0,0.0,0.0,0.0,0.0,0.0,0.0,0.0,0.0,0.0,0.0,0.0,0.0,0.0,0.0,0.0,0.0,0.0,0.0,0.0,-3.4578,-3.5096,-3.5789,-3.555,-3.2847,0.0,0.0,0.0,0.0,0.0,0.0,0.0,0.0,0.0,0.0,0.0,-3.0984,-3.1446,-3.199,-3.2802,-3.3199,-3.3406,-3.3406,-3.2713,-3.1989,-3.1241,-2.9432,-2.7765,0.0,0.0,0.0,0.0,0.0,0.0,0.0,0.0,0.0,0.0,0.0,0.0,0.0,0.0,0.0,0.0,0.0,0.0,0.0,0.0,0.0,0.0,0.0,0.0,0.0,0.0,0.0,0.0,0.0,0.0,0.0,0.0,-3.8789,-4.0644,0.0,0.0,0.0,0.0,0.0,0.0,0.0,0.0,0.0,0.0,0.0,0.0,0.0,-4.0227,-4.0342,-4.1835,-4.2277,-4.1662,-4.3874,-4.4536,-4.3816,-4.4575,-4.4998,-4.5077,-4.4661,0.0,-4.0974,-3.9845,0.0,0.0,0.0,0.0,0.0,0.0,0.0,0.0,0.0,0.0,0.0,0.0,0.0,0.0,0.0,0.0,0.0,0.0,0.0,0.0,0.0,0.0,-3.6868,-3.6266,-3.6211,-3.6174,-3.5752,-3.5734,-3.5349,-3.3788,-3.3332,-3.2904,0.0,0.0,0.0,0.0,0.0,0.0,-3.0215,-3.0851,-3.1543,-3.2309,-3.2991,-3.3406,-3.3406,-3.2713,-3.1989,-3.1241,-2.9916,-2.8305,-2.6383,-2.5617,0.0,0.0,0.0,0.0,0.0,0.0,0.0,0.0,0.0,0.0,0.0,0.0,0.0,0.0,0.0,0.0,0.0,0.0,0.0,0.0,0.0,0.0,0.0,0.0,0.0,0.0,0.0,0.0,0.0,-3.7988,-3.9805,-4.1055,-4.0527,-3.9822,0.0,0.0,0.0,0.0,0.0,0.0,0.0,0.0,0.0,-4.0681,-4.1046,-4.1681,-4.2632,-4.3393,-4.3835,-4.3951,-4.5075,-4.5402,-4.5037,-4.5441,-4.5495,-4.5312,-4.515,-4.4168,-4.2537,-4.129,-3.9802,-3.8193,0.0,0.0,0.0,0.0,-3.5716,-3.6468,-3.6912,-3.7077,-3.7004,-3.656,0.0,0.0,0.0,0.0,0.0,0.0,0.0,-3.4908,-3.4986,-3.5536,-3.6138,-3.6266,-3.6102,-3.59,-3.59,-3.5709,-3.5237,-3.4312,-3.3803,-3.3187,-3.2079,-3.1106,0.0,0.0,0.0,-2.8765,-2.9417,-2.9364,-2.96,-3.0364,-3.0717,-3.092,-3.092,-3.1004,-3.092,-3.0598,-2.9779,-2.8567,-2.6985,-2.6015,-2.4743,0.0,0.0,0.0,0.0,0.0,0.0,0.0,0.0,0.0,0.0,0.0,0.0,0.0,0.0,0.0,0.0,0.0,0.0,0.0,0.0,0.0,0.0,0.0,0.0,0.0,0.0,0.0,0.0,-3.998,-4.1367,-4.1797,-4.2031,-4.1697,0.0,0.0,0.0,0.0,0.0,0.0,-4.1158,-4.117,-4.1566,-4.2412,-4.2662,-4.3374,-4.4624,-4.4624,-4.496,-4.5594,-4.5594,-4.5594,-4.5594,-4.5594,-4.5419,-4.5096,-4.5019,-4.46,-4.3904,-4.2499,-4.1241,-4.0047,-3.8447,-3.7327,-3.6593,-3.6376,-3.6813,-3.7584,-3.8193,-3.8395,-3.8322,-3.7933,-3.6688,-3.5114,-3.3903,0.0,0.0,0.0,0.0,-3.4123,-3.4811,-3.4991,-3.5126,-3.57,-3.5481,-3.5089,-3.4891,-3.433,-3.3931,-3.4169,-3.3937,-3.3247,-3.1776,-3.1063,0.0,-2.9641,0.0,-2.801,-2.8619,-2.8162,-2.8094,-2.8908,-2.8993,-2.8993,-2.8993,-2.9499,-2.982,-2.982,-2.9446,-2.8652,-2.7365,-2.6286,-2.4891,-2.3171,0.0,0.0,0.0,0.0,0.0,0.0,0.0,0.0,0.0,0.0,0.0,0.0,0.0,0.0,0.0,0.0,0.0,0.0,0.0,0.0,0.0,0.0,0.0,0.0,0.0,0.0,0.0,0.0,0.0,-4.3672,-4.4297,0.0,0.0,0.0,0.0,-4.1875,-4.1791,-4.2093,-4.2931,-4.297,-4.3335,-4.4143,-4.4979,-4.546,-4.5537,-4.5537,-4.5556,-4.5594,-4.5594,-4.5594,-4.5594,-4.5594,-4.5419,-4.5085,-4.4757,-4.4392,-4.3942,-4.3081,-4.206,-4.0875,-3.9276,-3.8138,-3.7345,-3.6593,-3.6813,-3.7511,-3.7547,-3.7566,-3.7676,-3.8395,-3.7551,-3.6211,-3.6138,-3.5,0.0,0.0,-3.4087,-3.4477,-3.4887,-3.4961,-3.4847,-3.4641,-3.4237,-3.3695,-3.2998,-3.1874,-3.155,-3.3367,-3.3719,-3.307,-3.1098,0.0,-3.0076,-2.8199,-2.7858,-2.7824,-2.7858,-2.7824,-2.8094,-2.8908,-2.8993,-2.8993,-2.8993,-2.9027,-2.9061,-2.9061,-2.9042,-2.8451,-2.7165,-2.6568,-2.5647,-2.4338,-2.3243,0.0,0.0,0.0,0.0,0.0,0.0,0.0,0.0,0.0,0.0,0.0,0.0,0.0,0.0,0.0,0.0,0.0,0.0,0.0,0.0,0.0,0.0,0.0,0.0,0.0,0.0,0.0,0.0,-4.4512,-4.5312,0.0,-4.4157,-4.4415,-4.4419,-4.3782,-4.4118,-4.4469,-4.469,-4.471,-4.4844,-4.5133,-4.5441,-4.5594,-4.5594,-4.5594,-4.5594,-4.5594,-4.5594,-4.5594,-4.5594,-4.5594,-4.5293,-4.4757,-4.4644,-4.3971,-4.2885,-4.2606,-4.2233,-4.1772,-4.0655,-3.9753,-3.8961,-3.8138,-3.834,-3.9053,-3.9053,-3.8707,-3.8065,-3.6729,-3.5922,-3.5371,-3.4853,-3.4266,-3.3807,-3.3807,-3.3708,-3.3662,-3.3796,-3.3247,-3.2614,-3.2525,-3.1792,-3.1023,-3.076,-3.0145,-2.9847,-3.054,-3.0679,-3.0453,-2.9725,-2.9176,-2.8594,-2.7892,-2.6995,-2.637,-2.637,-2.5981,-2.5794,-2.6065,-2.6522,-2.681,-2.681,-2.7689,-2.823,-2.823,-2.8379,-2.7722,-2.6016,-2.5429,-2.4153,-2.207,-2.1613,-2.141,0.0,0.0,0.0,0.0,0.0,0.0,0.0,0.0,0.0,0.0,0.0,0.0,0.0,0.0,0.0,0.0,0.0,0.0,0.0,0.0,0.0,0.0,0.0,0.0,0.0,0.0,-4.5019,-4.5,-4.6543,-4.7168,-4.5996,-4.6273,-4.6256,-4.5596,-4.5695,-4.574,-4.5603,-4.5594,-4.5594,-4.5594,-4.5594,-4.5594,-4.5594,-4.5594,-4.5594,-4.5594,-4.5594,-4.5594,-4.5594,-4.5594,-4.513,-4.4328,-4.421,-4.3357,-4.206,-4.1932,-4.1901,-4.1827,-4.102,-4.0377,-3.979,-3.9001,-3.8872,-3.9053,-3.8796,-3.834,-3.7624,-3.5958,-3.5243,-3.4857,-3.4045,-3.3605,-3.3348,-3.3073,-3.2605,-3.2224,-3.2375,-3.1509,-3.0568,-3.0451,-2.9688,-2.8921,-2.868,-2.8408,-2.8147,-2.7892,-2.8468,-2.8908,-2.8636,-2.8145,-2.7722,-2.7469,-2.6387,-2.5592,-2.5592,-2.4965,-2.4491,-2.4491,-2.5152,-2.5592,-2.5592,-2.6708,-2.7317,-2.7063,-2.7222,-2.6634,-2.5092,-2.4589,-2.3581,-2.1869,-2.1314,-2.0812,-2.0363,0.0,0.0,0.0,0.0,0.0,0.0,0.0,0.0,0.0,0.0,0.0,0.0,0.0,0.0,0.0,0.0,0.0,0.0,0.0,0.0,0.0,0.0,0.0,-4.2441,-4.543,-4.6973,-4.5312,-4.8125,-4.9531,-4.7851,-4.7544,-4.7374,-4.7228,-4.6327,-4.574,-4.5612,-4.5594,-4.5594,-4.5594,-4.5594,-4.5594,-4.5594,-4.5594,-4.5594,-4.5594,-4.5575,-4.5556,-4.5556,-4.5537,-4.4873,-4.3738,-4.3388,-4.2613,-4.1522,-4.1199,-4.104,-4.0948,-4.0194,-3.99,-3.979,-3.8964,-3.8138,-3.7345,-3.6541,-3.6266,-3.6266,-3.6229,-3.5646,-3.4821,-3.4014,-3.323,-3.2441,-3.1634,-3.0838,-3.0325,-3.0758,-2.9918,-2.8899,-2.8555,-2.8117,-2.7553,-2.6826,-2.6657,-2.6437,-2.571,-2.7351,-2.8602,-2.7824,-2.7705,-2.7452,-2.6742,-2.5998,0.0,-2.5525,-2.4897,-2.4423,-2.4423,-2.5101,-2.5558,-2.5525,-2.6234,-2.6353,-2.5609,-2.5542,-2.5188,-2.446,-2.4153,-2.3986,-2.397,-2.2447,-2.1006,-1.9708,0.0,0.0,0.0,0.0,0.0,0.0,0.0,0.0,0.0,0.0,0.0,0.0,0.0,0.0,0.0,0.0,0.0,0.0,0.0,0.0,0.0,-4.1523,-4.334,-4.334,-4.5801,-4.7656,-4.7812,-4.9238,-5.0019,-4.9531,-4.8793,-4.8077,-4.7393,-4.6386,-4.5776,-4.5747,-4.564,-4.5594,-4.5594,-4.5594,-4.5594,-4.5594,-4.5594,-4.5594,-4.5594,-4.496,-4.4662,-4.4643,-4.4047,-4.334,-4.2569,-4.2466,-4.164,-4.0351,-4.026,-3.9882,-3.9405,-3.9753,-3.99,-3.9717,-3.8355,-3.7327,-3.6505,-3.5646,-3.5353,-3.5261,-3.4688,-3.4339,-3.4028,-3.352,-3.3216,-3.2814,-3.1721,-3.1202,-3.0843,-3.0136,-2.9256,-2.8459,-2.8084,-2.7504,-2.681,-2.6065,-2.5896,-2.5676,-2.4948,-2.532,-2.5675,-2.5455,-2.5422,-2.5354,-2.5134,-2.4475,-2.4002,-2.4002,-2.3359,-2.2902,-2.2902,-2.4036,-2.4592,-2.4052,-2.5169,-2.5592,-2.4846,-2.4166,-2.3469,-2.2802,-2.2034,-2.1411,-2.0926,-2.0948,-2.0557,0.0,0.0,0.0,0.0,0.0,0.0,0.0,0.0,0.0,0.0,0.0,0.0,0.0,0.0,0.0,0.0,0.0,0.0,0.0,0.0,0.0,0.0,-4.301,-4.4719,-4.4719,-4.6991,-4.873,-4.8887,-4.9668,-5.0195,-5.0195,-4.9331,-4.8555,-4.7988,-4.6982,-4.6207,-4.5822,-4.5673,-4.5594,-4.5594,-4.5594,-4.5594,-4.5594,-4.5248,-4.5056,-4.5056,-4.4201,-4.3797,-4.3778,-4.3316,-4.2431,-4.1268,-4.1501,-4.0632,-3.9058,-3.8931,-3.8631,-3.8267,0.0,0.0,0.0,0.0,-3.6156,-3.5587,-3.4399,-3.3995,-3.3867,-3.3054,-3.2779,-3.2753,-3.252,-3.2451,-3.22,-3.098,-3.0528,-3.0121,-2.8939,-2.8161,-2.7621,-2.7385,-2.6776,-2.6116,-2.5693,-2.5372,-2.4915,-2.4186,-2.4051,0.0,-2.363,-2.4085,-2.4491,-2.4491,-2.3881,-2.3393,-2.3393,-2.2767,-2.2296,-2.2296,-2.3342,-2.3864,-2.3427,-2.4458,0.0,0.0,0.0,-2.2866,-2.208,-2.1528,0.0,0.0,0.0,-2.0378,-1.9708,-2.0094,0.0,0.0,-2.144,-2.2383,0.0,0.0,0.0,0.0,0.0,0.0,0.0,0.0,0.0,0.0,0.0,0.0,0.0,0.0,0.0,0.0,-4.4419,-4.6128,-4.6225,-4.845,-4.9726,-4.8867,-4.9512,-5.0058,-5.0058,-4.9258,-4.8708,-4.8584,-4.7639,-4.6712,-4.586,0.0,0.0,0.0,0.0,-4.5556,-4.546,-4.4682,-4.4239,-4.4143,-4.3335,-4.2951,-4.2951,-4.2758,-4.1688,-3.9967,-4.0317,-3.9426,-3.7744,-3.7487,-3.7364,-3.7437,-3.8157,-3.7936,-3.7052,-3.5555,-3.4894,-3.4527,-3.3096,0.0,0.0,-3.1623,-3.1397,-3.1384,-3.1347,-3.1334,-3.1075,-2.9863,-2.9361,-2.8868,-2.7616,-2.7016,-2.6689,-2.6606,-2.6015,-2.5456,-2.5372,-2.4831,-2.4152,-2.341,-2.3274,-2.3071,-2.2398,-2.3376,-2.4254,-2.4254,-2.3712,-2.3274,-2.3274,-2.2699,-2.2296,-2.2296,-2.297,0.0,-2.3274,-2.3949,-2.4068,-2.3325,-2.323,-2.2803,-2.1919,-2.1851,-2.1438,-2.0681,-2.0606,-2.0303,-1.9708,-1.9708,-1.9738,-1.9824,-2.1021,-2.2188,0.0,0.0,0.0,0.0,0.0,0.0,0.0,0.0,0.0,0.0,0.0,0.0,0.0,0.0,0.0,-4.2804,-4.4809,-4.6342,-4.7047,-4.8293,-4.8828,-4.7969,-4.8613,-4.9141,-4.9141,-4.8359,-4.7832,-4.7811,-4.6885,-4.6193,-4.5891,-4.5802,-4.5715,-4.5594,-4.5594,-4.5267,-4.4566,-4.4374,-4.397,-4.3316,0.0,0.0,-4.2008,-4.0642,-3.9684,-3.9014,-3.8193,-3.7486,-3.6905,-3.6643,-3.6523,-3.6556,-3.6688,-3.6248,-3.5445,-3.5133,-3.4179,-3.3023,-3.2711,-3.2173,-3.1604,-3.1452,-3.1397,-3.1334,-3.1003,-3.0925,0.0,-2.9465,-2.9308,-2.9158,-2.7677,-2.7031,-2.6624,-2.5973,-2.5253,-2.4558,-2.3951,-2.3714,-2.3393,-2.2665,-2.2499,-2.2465,-2.2313,-2.2533,-2.2733,-2.2733,-2.26,-2.2499,-2.2499,-2.2381,-2.2296,-2.2296,-2.297,-2.3156,-2.2564,-2.319,-2.3291,-2.2564,-2.216,-2.1719,-2.1215,-2.0837,-2.055,-2.0393,-2.0068,-1.9842,-1.9708,-1.9708,-1.9974,-2.0494,-2.0763,-2.1017,0.0,0.0,0.0,0.0,0.0,0.0,0.0,0.0,0.0,0.0,0.0,-3.9228,-4.0469,0.0,-4.2042,-4.4157,-4.5675,-4.6605,-4.6635,-4.7522,-4.8002,-4.7636,-4.7988,-4.8242,-4.8242,-4.7851,-4.7598,-4.7598,-4.7074,-4.6526,-4.6037,-4.5869,-4.5775,-4.57,-4.5211,-4.4739,-4.4297,-4.347,-4.2854,-4.245,-4.1566,-4.0931,-4.0527,-3.9681,-3.8898,-3.8175,-3.7566,-3.7152,-3.6848,-3.619,-3.5569,-3.5018,-3.4614,-3.4674,-3.4912,-3.4105,-3.3298,-3.2472,-3.1678,-3.1146,-3.0723,-3.0338,-3.021,-3.0247,-3.0443,-3.0215,-2.9694,-2.8756,-2.8625,-2.8312,-2.6394,-2.6042,-2.6001,-2.5228,-2.4491,-2.3848,-2.3477,-2.3105,-2.275,-2.2364,-2.2296,-2.2296,-2.2296,-2.2296,-2.2296,-2.2296,-2.2296,-2.2296,-2.2296,-2.2296,-2.2296,-2.2296,-2.2632,-2.2699,-2.233,-2.2649,-2.2699,-2.2313,-2.1869,-2.1414,-2.1023,-2.055,-2.021,-2.0,-1.98,-1.9708,-1.9708,-1.9708,-1.9872,-2.0198,-2.0198,-2.0557,0.0,0.0,0.0,0.0,0.0,0.0,0.0,0.0,-3.6977,-3.8171,-3.9626,-4.1073,-4.2382,-4.2632,-4.3265,-4.5285,-4.631,-4.6615,-4.5969,-4.6602,-4.7199,-4.7302,-4.7324,-4.7344,-4.7344,-4.7344,-4.7344,-4.7344,-4.7255,-4.6862,-4.615,-4.5953,-4.5749,-4.5551,-4.4766,-4.4174,-4.3816,-4.247,-4.1712,-4.1546,-4.0681,-3.9938,-3.9284,-3.8957,-3.8289,-3.7415,-3.7099,-3.6764,-3.6385,-3.5528,-3.4641,-3.3715,-3.2913,-3.339,-3.4362,-3.2894,-3.2271,-3.194,-3.065,-3.0099,-2.9849,-2.9207,-2.9005,-2.9097,-2.9586,-2.9292,-2.8619,-2.7926,-2.7687,-2.7209,-2.5302,-2.5116,-2.5291,-2.4616,-2.3843,-2.3272,-2.3272,-2.264,-2.209,-2.209,-2.1958,-2.1857,-2.1857,-2.1857,-2.1907,-2.2073,-2.2212,-2.2245,-2.2093,-2.2212,-2.2296,-2.2296,-2.2296,-2.2296,-2.2296,-2.2296,-2.2296,-2.2296,-2.1869,-2.1445,-2.1118,-2.0583,-2.0158,-1.9836,-1.9729,-1.9708,-1.9708,-1.9708,-1.9708,-1.9708,-1.9708,-2.0292,-2.9434,-3.04,-3.2346,-3.4373,-3.4555,-3.5412,0.0,0.0,-4.0626,-4.3007,-4.4259,-4.4972,-4.5139,-4.5197,-4.5285,-4.5556,-4.5792,-4.5906,-4.5828,-4.6053,-4.6247,-4.6273,-4.6362,-4.6445,-4.6445,-4.6445,-4.6445,-4.6445,-4.6425,-4.6322,-4.6113,-4.6077,-4.5628,-4.4673,-4.4544,-4.3701,-4.2104,-4.1885,-4.1412,-4.065,-3.9823,-3.94,-3.9246,-3.77,-3.6916,-3.6726,-3.5523,-3.4682,-3.4147,-3.4034,-3.392,-3.3715,-3.2913,-3.2711,-3.2766,-3.1861,-3.1072,-3.0448,-3.0265,-2.9721,-2.9115,-2.9023,-2.9005,-2.8877,-2.8264,-2.8007,-2.7776,-2.6977,-2.6743,-2.661,-2.5985,-2.541,-2.4873,-2.4428,-2.3532,-2.2781,-2.2781,-2.2012,-2.1326,-2.1326,-2.0754,-2.0255,-2.0255,-2.0255,-2.0504,-2.1224,-2.187,-2.2073,-2.141,-2.1887,-2.2296,-2.2296,-2.2296,-2.2296,-2.2296,-2.2296,-2.2296,-2.2296,-2.1869,-2.1582,-2.1521,-2.0732,-2.028,-2.0229,-1.9874,-1.9708,-1.9708,-1.9708,-1.9708,-1.9708,-1.9708,-1.9783,-3.0776,-3.1711,0.0,0.0,-3.5695,-3.7138,-3.9278,-4.0397,-4.1542,-4.3599,-4.4853,-4.5594,-4.5594,-4.5594,-4.5594,0.0,-4.5651,-4.5715,-4.5783,-4.5878,-4.5763,-4.5338,-4.5818,-4.6203,-4.6289,-4.6308,-4.6308,-4.6308,-4.6308,-4.6054,-4.5481,-4.5382,-4.4911,-4.4016,-4.3372,-4.2447,-4.117,-4.0626,-3.9912,-3.9046,-3.87,-3.8277,-3.7757,-3.7019,-3.6442,-3.5993,-3.5905,-3.5277,-3.4281,-3.3788,-3.366,-3.366,-3.2394,-3.1898,-3.1806,-3.0999,-3.0485,-3.0136,-2.9647,-2.928,-2.8932,-2.8448,-2.8301,-2.8154,-2.7346,-2.6759,-2.6298,-2.5761,-2.5575,-2.5326,-2.4348,-2.4199,-2.4128,-2.3327,-2.2464,-2.1823,-2.1823,-2.113,-2.05,-2.05,-2.0234,-2.0002,-2.0002,-2.0002,-1.9963,-1.9887,-2.05,-2.0842,-2.0538,-2.1177,-2.182,-2.2245,-2.2296,-2.2296,-2.2296,-2.2296,-2.2296,-2.2296,-2.1869,-2.1491,-2.126,-2.0649,-2.0193,-1.9962,-1.9782,-1.9708,-1.9708,-1.9708,-1.9708,-1.9708,-1.9708,-1.9708,-3.0514,0.0,0.0,-3.4465,-3.6426,-3.8147,-3.8862,-4.0321,-4.1871,-4.308,-4.4276,-4.5111,-4.514,-4.5185,-4.5325,-4.5556,-4.5594,-4.5635,-4.5725,-4.5576,-4.5246,-4.4715,-4.5273,-4.5779,-4.5894,-4.6152,-4.6191,-4.5957,-4.5937,-4.5566,-4.4687,-4.4541,-4.4112,-4.3277,-4.2245,-4.1285,-4.0355,-3.9425,-3.8635,-3.8007,-3.7757,-3.7315,-3.6692,-3.6462,-3.5876,-3.5065,-3.5659,-3.5168,-3.3929,-3.3308,-3.3157,-3.3186,-3.1746,-3.1187,-3.1065,-3.0178,-2.9879,-2.9739,-2.895,-2.8675,-2.8528,-2.7732,-2.7475,-2.731,-2.6502,-2.587,-2.5297,-2.4834,-2.4664,-2.441,-2.3383,-2.3552,-2.3724,-2.272,-2.1999,-2.1475,-2.1181,-2.0418,-1.9792,-1.9705,-1.9529,-1.9393,-1.9393,-1.9393,-1.922,-1.8691,-1.9051,-1.9473,-1.9676,-2.0568,-2.141,-2.1938,-2.2192,-2.2296,-2.2296,-2.2296,-2.2296,-2.2296,-2.1869,-2.146,-2.1181,-2.0616,-2.0158,-1.9874,-1.9747,-1.9708,-1.9708,-1.9708,-1.9708,-1.9708,-1.9708,-1.9708,0.0,0.0,-3.1373,-3.4643,-3.631,-3.778,-4.0257,-4.1472,-4.2083,-4.2138,-4.3073,-4.3868,-4.3948,-4.4163,-4.4624,-4.546,-4.5594,-4.5594,-4.5603,-4.4989,-4.4524,-4.4511,-4.4652,-4.4805,0.0,-4.5776,-4.5957,-4.5098,-4.5039,-4.4668,-4.3789,-4.373,-4.3316,-4.2366,-4.1482,-4.052,-3.9456,-3.8568,-3.8092,-3.7988,-3.7142,-3.6731,-3.6673,-3.5885,-3.492,-3.3854,-3.3873,-3.3235,-3.2175,-3.2156,-3.2147,-3.2051,-3.1013,-3.061,-3.0504,-2.9432,-2.9042,-2.8913,-2.8117,-2.7842,-2.7695,-2.6906,-2.6649,-2.6484,-2.5686,-2.5411,-2.5246,-2.4437,-2.4217,-2.4207,-2.4161,-2.4169,-2.3986,-2.3161,-2.2704,-2.218,-2.1125,-2.0059,-1.9229,-1.8987,-1.8369,-1.7867,-1.7867,-1.7867,-1.785,-1.7834,-1.785,-1.8132,-1.8843,-2.0259,-2.1207,-2.1224,-2.187,-2.2296,-2.2296,-2.2296,-2.2296,-2.2296,-2.1869,-2.1582,-2.1582,-2.0749,-2.0297,-2.028,-1.9909,-1.9708,-1.9708,-1.9708,-1.9708,-1.9708,-1.9708,-1.9708,-2.725,0.0,-3.2031,-3.4223,-3.6472,-3.8387,-3.9249,-4.0635,-4.1616,-4.1081,-4.0611,-4.029,-4.0311,-4.0559,-4.1231,-4.2593,-4.3901,-4.494,-4.5518,-4.5384,-4.4816,-4.3698,-4.466,0.0,0.0,0.0,0.0,-4.5019,-4.4453,-4.3769,-4.2871,-4.2832,-4.2187,-4.0758,-4.0348,-3.9436,-3.7945,-3.7564,-3.7061,-3.6399,-3.608,-3.5603,-3.5026,-3.4757,-3.4108,-3.3201,-3.3201,-3.2875,-3.2315,-3.18,-3.1703,-3.1811,-3.0942,-3.016,-2.9491,-2.9131,-2.8326,-2.7446,-2.7714,-2.7438,-2.6869,-2.6072,-2.5797,-2.565,-2.486,-2.4603,-2.4548,-2.4281,-2.419,-2.4151,-2.3927,-2.3876,-2.3606,-2.2586,-2.1889,-2.1139,-2.0064,-1.9173,-1.8493,-1.8223,-1.7969,-1.78,-1.78,-1.78,-1.78,-1.78,-1.78,-1.8239,-1.9473,-1.9655,-2.0073,-2.1089,-2.094,-2.0762,-2.0762,-2.0762,-2.0995,-2.1546,-2.1423,-2.1411,-2.1595,-2.1055,-2.0616,-2.0314,-1.9894,-1.9708,-1.9708,-1.9708,-1.9708,-1.9708,-1.9708,-1.9708,-2.6897,-2.9047,-3.1225,-3.3257,-3.5345,-3.6985,-3.7275,-3.8664,-3.9667,-3.8855,-3.8009,-3.751,-3.7841,-3.8162,-3.8699,-3.9767,-4.1561,-4.3097,-4.3979,-4.3667,-4.3286,-4.3124,-4.3848,-4.4072,0.0,0.0,0.0,-4.4465,-4.4003,-4.3066,-4.1582,-4.1504,-4.0879,-3.9473,-3.9055,-3.8162,-3.6742,-3.6348,-3.5677,-3.4733,-3.4654,-3.4313,-3.378,-3.3744,-3.3103,-3.2006,-3.2006,-3.1571,-3.0818,-3.0296,-3.0213,-3.0347,-2.9738,-2.9064,-2.8442,-2.8294,-2.7419,-2.634,-2.6791,-2.6594,-2.6043,-2.5227,-2.497,-2.4879,-2.4355,-2.419,-2.419,-2.419,-2.419,-2.4151,-2.3927,-2.3658,-2.319,-2.2165,-2.1327,-2.0479,-1.9409,-1.8831,-1.8381,-1.8014,-1.7938,-1.7905,-1.7822,-1.78,-1.78,-1.78,-1.78,-1.8138,-1.9101,-1.9029,-1.9278,-2.0276,-2.0149,-2.0002,-2.0002,-2.0002,-2.0217,-2.0737,-2.0771,-2.0797,-2.085,-2.068,-2.04,-1.999,-1.9788,-1.9708,-1.9708,-1.9708,-1.9708,-1.9708,-1.9708,-1.9708,-2.5898,-2.7566,-2.9234,-3.1867,-3.31,-3.3896,-3.4658,-3.5786,-3.641,-3.5596,-3.5294,-3.5435,0.0,0.0,-3.7045,-3.7246,-3.8906,-4.052,-4.1447,-4.0386,-4.0415,0.0,0.0,0.0,0.0,0.0,0.0,-4.3373,0.0,-4.248,-4.0039,-3.9902,-3.9453,-3.8496,-3.7656,-3.6755,-3.5788,-3.4945,-3.4077,-3.3197,-3.3052,-3.2953,-3.2866,-3.2798,-3.1872,-3.0269,-3.0269,-2.9371,-2.7895,-2.7895,-2.789,-2.7849,-2.7606,-2.747,-2.7383,-2.6994,-2.6348,-2.5633,-2.5437,-2.5368,-2.5209,-2.4456,-2.419,-2.419,-2.419,-2.419,-2.419,-2.419,-2.419,-2.419,-2.419,-2.3602,-2.2804,-2.1996,-2.1125,-2.0207,-1.9224,-1.901,-1.8834,-1.83,-1.8187,-1.8093,-1.7828,-1.78,-1.78,-1.78,-1.78,-1.7817,-1.785,-1.8437,-1.886,-1.8894,-1.949,-1.9883,-1.9883,-1.9883,-1.99,-1.9921,-1.9909,-1.9781,-1.9494,-1.9699,-1.9672,-1.9355,-1.9563,-1.9648,-1.9648,-1.9693,-1.9708,-1.9708,-1.9708,-1.9693,-2.5975,-2.81,-3.0317,-3.101,-3.2456,-3.3754,-3.395,-3.4299,-3.425,-3.3157,-3.1942,-3.1088,0.0,0.0,0.0,-3.6613,-3.9557,0.0,-4.3577,-4.3134,0.0,-4.2651,0.0,-4.2609,-4.2202,-4.2608,0.0,0.0,-4.1582,-4.1161,-3.9961,-3.9902,-3.8906,-3.6738,-3.6445,-3.5586,-3.404,-3.3767,-3.3492,-3.3206,-3.3061,-3.2313,-3.1058,-3.1056,-3.0115,-2.8544,-2.8544,-2.8294,-2.7895,-2.7895,-2.7785,-2.7599,-2.7535,-2.7051,-2.6375,-2.6266,-2.5726,-2.5028,-2.4981,-2.476,-2.4475,-2.4263,-2.419,-2.419,-2.419,-2.419,-2.419,-2.419,-2.419,-2.419,-2.419,-2.3602,-2.2804,-2.1996,-2.1125,-2.0207,-1.9224,-1.901,-1.8834,-1.83,-1.8046,-1.7872,-1.7811,-1.78,-1.78,-1.78,-1.78,-1.8003,-1.8555,-1.8302,-1.8302,-1.8843,-1.8589,-1.8358,-1.8358,-1.8358,-1.85,-1.8784,-1.8805,-1.8907,-1.913,-1.891,-1.8733,-1.8672,-1.8849,-1.8957,-1.8957,-1.9468,-1.9708,-1.9708,-1.9708,-1.942,-2.5596,-2.7363,-2.9173,-2.9384,-3.0543,-3.1551,-3.1202,-3.1303,-3.1272,-3.0612,-2.9456,0.0,-2.918,0.0,0.0,0.0,0.0,0.0,-4.1555,-4.152,-4.1526,0.0,-4.1523,0.0,-4.1761,-4.1275,-4.0868,0.0,-4.0893,-4.0168,-3.8254,-3.8163,-3.7168,-3.4922,-3.4863,-3.4219,-3.2891,-3.2084,-3.1659,-3.1618,-3.1512,-3.0742,-2.9399,-2.9361,-2.8611,-2.7332,-2.7332,-2.7101,-2.6755,-2.6755,-2.6664,-2.6534,-2.6534,-2.6193,-2.5678,-2.5586,-2.5288,-2.4871,-2.4814,-2.4647,-2.4444,-2.4357,-2.4266,-2.419,-2.419,-2.419,-2.419,-2.419,-2.419,-2.4116,-2.3768,-2.3088,-2.2263,-2.1437,-2.0592,-1.9827,-1.9249,-1.9125,-1.9025,-1.8623,-1.8239,-1.7982,-1.7982,-1.7872,-1.78,-1.78,-1.78,-1.7952,-1.8369,-1.8065,-1.7952,-1.8369,-1.8048,-1.78,-1.78,-1.78,-1.79,-1.8126,-1.8147,-1.8162,-1.8257,-1.8313,-1.822,-1.7911,-1.8586,-1.884,-1.8702,-1.9361,-1.9708,-1.9693,-1.9408,-1.9061,-2.5158,-2.6197,-2.7214,-2.7684,-2.8332,-2.8653,-2.7959,-2.7963,-2.8136,-2.8184,0.0,-2.7581,-2.8963,-3.0846,-3.2127,-3.1853,0.0,-3.7792,-3.8327,-3.8409,-3.9041,-4.0798,-3.9594,-3.928,-4.1025,-3.9127,-3.8371,-3.9857,-4.0042,-3.8872,-3.605,-3.5712,-3.4784,-3.2949,-3.2773,-3.2383,-3.1699,-3.0176,-2.9414,-2.9413,-2.936,-2.8835,-2.7932,-2.7875,-2.7331,-2.6434,-2.6434,-2.602,-2.5308,-2.5308,-2.5308,-2.5308,-2.5308,-2.5308,-2.5274,-2.5099,-2.5034,-2.5016,-2.4777,-2.4766,-2.4785,-2.4599,-2.441,-2.4247,-2.4247,-2.4218,-2.419,-2.419,-2.419,-2.4006,-2.3208,-2.2391,-2.1574,-2.0713,-1.9895,-1.9297,-1.9297,-1.9274,-1.9214,-1.9026,-1.8566,-1.8198,-1.8198,-1.7982,-1.78,-1.78,-1.78,-1.78,-1.78,-1.78,-1.78,-1.78,-1.78,-1.78,-1.78,-1.78,-1.7789,-1.7743,-1.7681,-1.7514,-1.7171,-1.7678,-1.7686,-1.7112,-1.8268,-1.8734,-1.8448,-1.9106,-1.942,-1.9405,-1.8837,-1.8506,-2.5739,-2.6549,-2.7214,-2.7684,-2.7908,-2.7976,-2.7841,-2.6911,0.0,0.0,-2.6454,-2.6567,-2.7097,-2.8797,-3.0962,-3.3542,0.0,0.0,0.0,0.0,-3.9093,0.0,0.0,0.0,0.0,0.0,0.0,0.0,-3.5684,-3.5578,-3.5794,-3.4455,-3.2611,-3.0259,-2.9529,-2.9121,-2.8984,-2.8672,-2.8494,-2.8436,-2.843,-2.7936,-2.7032,-2.7018,-2.6505,-2.5604,-2.5612,0.0,-2.5308,-2.5308,-2.5308,-2.5308,-2.5308,-2.5308,-2.5303,-2.5264,-2.5253,-2.5157,-2.447,-2.4558,-2.4937,-2.4792,-2.4607,-2.4444,-2.4444,-2.4321,-2.419,-2.419,-2.419,-2.4006,-2.3208,-2.2391,-2.1574,-2.0713,-1.9895,-1.9297,-1.9297,-1.9174,-1.9043,-1.9019,-1.8566,-1.8198,-1.8198,-1.7982,-1.78,-1.78,-1.78,-1.78,-1.78,-1.78,-1.78,-1.78,-1.78,-1.78,-1.78,-1.78,-1.7681,-1.7403,-1.7126,-1.6828,-1.6488,-1.6313,-1.6179,-1.6065,-1.6774,-1.7103,-1.7055,-1.7712,-1.8057,-1.8042,-1.7938,-1.7594,-2.5128,-2.5675,-2.6229,-2.6724,-2.6774,-2.6539,-2.6167,0.0,0.0,0.0,-2.5456,-2.5918,-2.6833,0.0,0.0,0.0,0.0,0.0,0.0,0.0,0.0,0.0,0.0,0.0,0.0,0.0,0.0,-3.4407,-3.3374,-3.283,-3.3033,-3.1462,-3.0002,-2.8817,-2.7992,-2.7787,-2.8236,-2.7831,-2.7616,-2.7571,-2.7571,-2.707,-2.617,-2.617,-2.5907,-2.5453,-2.5459,-2.5434,-2.5406,-2.5367,-2.5346,-2.5342,-2.5313,-2.5308,-2.5308,-2.5308,-2.5038,-2.462,-2.4221,-2.3991,-2.3844,-2.3787,-2.3817,-2.3795,-2.3342,-2.3369,-2.3492,-2.3079,-2.3254,-2.329,-2.2034,-2.141,-2.0904,-2.0079,-1.9583,-1.9297,-1.9297,-1.9212,-1.9158,-1.9158,-1.886,-1.8631,-1.8631,-1.8391,-1.8218,-1.8218,-1.811,-1.8014,-1.8014,-1.79,-1.78,-1.78,-1.78,-1.78,-1.78,-1.78,-1.7726,-1.7572,-1.7408,-1.7252,-1.7089,-1.6926,-1.667,-1.6328,-1.6953,-1.7074,-1.6696,-1.7369,-1.7713,-1.7699,-1.7339,-1.701,-2.461,-2.5012,-2.5509,-2.5885,-2.5681,-2.5203,-2.4626,-2.3814,0.0,0.0,-2.4506,-2.5187,-2.6661,0.0,0.0,0.0,0.0,0.0,0.0,0.0,0.0,0.0,0.0,0.0,0.0,0.0,0.0,-3.2836,-3.1275,-3.0196,-2.995,-2.8579,-2.7701,-2.7526,-2.6917,-2.6943,-2.7634,-2.7026,-2.6718,-2.6719,-2.6719,-2.6346,-2.561,-2.561,-2.5575,-2.5511,-2.5511,-2.5503,-2.5506,-2.5444,-2.5415,-2.5411,-2.5342,-2.5327,-2.5322,-2.5317,-2.4793,-2.4072,-2.3898,-2.3374,-2.274,-2.2374,-2.2665,-2.2997,-2.2312,-2.2447,-2.2697,-2.206,-2.2337,-2.2486,-2.0952,-2.0557,-2.0347,-1.9507,-1.9297,-1.9297,-1.9297,-1.9297,-1.9297,-1.9297,-1.9134,-1.901,-1.901,-1.878,-1.8595,-1.8595,-1.842,-1.8259,-1.8208,-1.8025,-1.785,-1.7811,-1.78,-1.78,-1.78,-1.78,-1.78,-1.78,-1.7726,-1.7692,-1.7692,-1.7549,-1.724,-1.6699,-1.7144,-1.7091,-1.6502,-1.7041,-1.7295,-1.728,-1.6757,-1.6502,-2.5189,-2.5706,-2.6094,-2.6016,-2.5297,-2.4575,-2.4508,0.0,0.0,-2.3342,-2.3524,-2.4011,-2.5486,-2.5607,0.0,0.0,0.0,-3.1219,0.0,0.0,0.0,0.0,0.0,0.0,0.0,0.0,0.0,-2.9961,-2.8153,-2.736,-2.8104,-2.7312,-2.6478,-2.5668,-2.5638,-2.5701,-2.5836,-2.576,-2.5753,-2.582,-2.582,-2.5762,-2.5683,-2.5683,-2.5659,-2.5597,-2.5597,-2.5556,0.0,-2.5484,-2.5481,-2.5476,-2.5415,-2.5391,-2.5372,-2.5327,-2.4793,-2.3995,-2.3182,-2.2874,-2.2547,-2.1023,-2.1469,-2.2566,-2.2471,-2.2363,-2.2267,-2.2173,-2.2229,-2.2044,-2.103,-2.0771,-2.0522,-1.9526,-1.9297,-1.9297,-1.9297,-1.9297,-1.9297,-1.9297,-1.9134,-1.901,-1.901,-1.878,-1.8595,-1.8595,-1.8576,-1.8479,-1.8229,-1.8177,-1.8078,-1.7833,-1.78,-1.78,-1.78,-1.78,-1.78,-1.78,-1.7514,-1.7344,-1.7344,-1.676,-1.6407,-1.6355,-1.6114,-1.5961,-1.5888,-1.5948,-1.5964,-1.5964,-1.5904,-1.5888,-2.4161,-2.5006,-2.5607,-2.5144,-2.4832,-2.4514,-2.4115,0.0,-2.2649,-2.3831,-2.4068,-2.4525,-2.5981,-2.6128,-2.6506,0.0,0.0,0.0,0.0,0.0,0.0,0.0,0.0,0.0,0.0,0.0,-2.8356,-2.8165,-2.7087,-2.6625,-2.7096,-2.6319,-2.5706,-2.5339,-2.5409,-2.5453,-2.5485,-2.5526,-2.5567,-2.5636,-2.5636,-2.5661,-2.5703,-2.5703,-2.5683,-2.566,-2.566,-2.5657,0.0,-2.5588,-2.5559,-2.5496,-2.4909,-2.4682,-2.4612,-2.4057,-2.3323,-2.2547,-2.2141,-2.1696,-2.1196,-2.0519,-2.0698,-2.1158,-2.1028,-2.1218,-2.1381,-2.0897,-2.1098,-2.1274,-2.0414,-1.9807,-1.9307,-1.8908,-1.839,-1.8106,-1.8587,-1.8628,-1.872,-1.9205,-1.9246,-1.9182,-1.9182,-1.9091,-1.9014,-1.9014,-1.8913,-1.8798,-1.8706,-1.8537,-1.84,-1.829,-1.7992,-1.78,-1.78,-1.78,-1.78,-1.78,-1.767,-1.7595,-1.7595,-1.7332,-1.7113,-1.6914,-1.677,-1.6604,-1.6394,-1.6394,-1.6301,-1.6094,-1.6094,-1.5997,-2.3272,-2.435,-2.5246,-2.4575,-2.4325,-2.4137,0.0,0.0,-2.2755,-2.3919,-2.4355,-2.488,-2.6133,-2.637,-2.6537,0.0,0.0,-2.866,0.0,0.0,0.0,0.0,0.0,0.0,0.0,-2.8588,-2.721,-2.647,-2.6093,-2.5969,-2.6115,-2.5595,-2.5308,-2.5308,-2.5352,-2.5387,-2.5402,-2.545,-2.5496,-2.5566,-2.5566,-2.5604,-2.5662,-2.5662,-2.5683,-2.5703,-2.5703,-2.5547,0.0,-2.5267,-2.5105,-2.4829,-2.4147,-2.3871,-2.3807,-2.3157,-2.2371,-2.1629,-2.1571,-2.101,-2.0337,-2.0337,-2.0317,-2.0223,-1.9845,-2.0227,-2.0665,-2.0107,-2.0302,-2.0516,-1.9656,-1.8958,-1.8393,-1.8097,-1.7516,-1.7207,-1.7763,-1.8008,-1.828,-1.8838,-1.915,-1.9297,-1.9297,-1.9297,-1.9297,-1.9297,-1.9182,-1.9069,-1.9019,-1.8843,-1.8697,-1.8604,-1.8187,-1.7916,-1.7916,-1.7916,-1.7872,-1.7811,-1.78,-1.78,-1.78,-1.7704,-1.7537,-1.7292,-1.7199,-1.7039,-1.6802,-1.6802,-1.6633,-1.6301,-1.6301,-1.6122,-2.2868,-2.4036,-2.5246,-2.4575,-2.3749,-2.3208,0.0,0.0,-2.2823,-2.3319,-2.4,-2.4728,-2.5473,-2.5609,-2.5845,-2.6589,0.0,0.0,0.0,0.0,0.0,0.0,0.0,0.0,0.0,-2.8196,-2.6256,-2.4652,-2.483,0.0,-2.503,-2.5198,-2.5308,-2.5308,-2.5308,-2.5335,-2.539,-2.5394,-2.5438,-2.5491,-2.5491,-2.5541,-2.5602,-2.5602,-2.5635,-2.5703,-2.5703,-2.5215,0.0,-2.4414,-2.3945,-2.3222,-2.3149,-2.3118,-2.3093,-2.3024,-2.2459,-2.1703,-2.1703,-2.1122,-2.0406,-2.0406,-2.0347,-2.0155,-1.9345,-1.9671,-2.0304,-2.0304,-2.0152,-1.9793,-1.8868,-1.8512,-1.8149,-1.7146,-1.6908,-1.6908,-1.6908,-1.7539,-1.8089,-1.8108,-1.8757,-1.9297,-1.9297,-1.9297,-1.9297,-1.9297,-1.9297,-1.9212,-1.9018,-1.901,-1.8896,-1.8641,-1.8361,-1.8198,-1.8198,-1.8198,-1.8072,-1.7822,-1.78,-1.78,-1.78,-1.7491,-1.7308,-1.7308,-1.6964,-1.6802,-1.6802,-1.6802,-1.6633,-1.6301,-1.6301,-1.6122,-2.1934,-2.3083,-2.3919,-2.2834,-2.2897,-2.3108,-2.2626,0.0,-2.2973,-2.3958,-2.4729,-2.5473,-2.6218,-2.6353,-2.6251,-2.5998,-2.6468,0.0,0.0,0.0,0.0,0.0,0.0,0.0,0.0,0.0,-2.5486,-2.4561,-2.4596,-2.4708,-2.4862,-2.4923,-2.5068,-2.5284,-2.5308,-2.5308,-2.533,-2.533,-2.5371,-2.5434,-2.5434,-2.5477,-2.5539,-2.5539,-2.5237,-2.4748,-2.4749,-2.4268,-2.3508,-2.3515,-2.3359,-2.3066,-2.2499,-2.2283,-2.2203,-2.1535,-2.1113,-2.0798,-2.0142,-2.0132,-2.0194,-1.9016,-1.9003,-1.9323,-1.8462,-1.8777,-1.9296,-1.87,-1.8482,-1.8356,-1.8056,-1.7557,-1.702,-1.6696,-1.6091,-1.5758,-1.6304,-1.6519,-1.6756,-1.7312,-1.7983,-1.8482,-1.8482,-1.8948,-1.9297,-1.9297,-1.9297,-1.9274,-1.9204,-1.9214,-1.9164,-1.9099,-1.8988,-1.8753,-1.8249,-1.8035,-1.7883,-1.7811,-1.78,-1.78,-1.78,-1.7692,-1.7647,-1.7647,-1.7542,-1.7479,-1.7467,-1.7248,-1.685,-1.6301,-1.6067,-1.5898,0.0,-2.2084,-2.2697,-2.1904,-2.2124,0.0,0.0,0.0,-2.3419,-2.4312,-2.532,-2.6167,-2.6607,-2.6691,-2.664,-2.6455,-2.659,0.0,0.0,0.0,0.0,0.0,0.0,0.0,0.0,-2.5771,-2.5277,-2.444,-2.4452,-2.4543,-2.4678,-2.476,-2.4902,-2.5109,-2.5165,-2.5219,-2.5308,-2.5,-2.4874,-2.4911,-2.4911,-2.4945,-2.5007,-2.5007,-2.4754,-2.4276,-2.3954,-2.3341,0.0,-2.2609,-2.2419,-2.2049,-2.123,-2.0918,-2.0801,-1.9898,-1.9562,-1.9463,-1.888,-1.9049,-1.9323,-1.8228,-1.8024,-1.8089,-1.752,-1.7912,-1.8428,-1.7879,-1.7738,-1.7648,-1.7261,-1.6802,-1.6331,-1.5974,-1.5422,-1.5098,-1.559,-1.5852,-1.621,-1.7019,-1.7758,-1.8363,-1.868,-1.9163,-1.9379,-1.905,-1.8983,-1.8947,-1.8926,-1.861,-1.8629,-1.9242,-1.8671,-1.8304,-1.8484,-1.8351,-1.8166,-1.796,-1.7949,-1.7922,-1.78,-1.754,-1.7388,-1.7388,-1.7117,-1.7117,-1.7388,-1.7329,-1.7101,-1.667,-1.6326,-1.6123,0.0,-2.1201,-2.1695,-2.1695,-2.1561,-2.1515,0.0,0.0,0.0,0.0,-2.5709,-2.6691,-2.6691,-2.6691,-2.6911,-2.7536,0.0,0.0,0.0,0.0,0.0,0.0,0.0,0.0,-2.6003,-2.5841,-2.5366,-2.428,-2.4357,-2.4442,-2.4478,-2.4654,-2.4768,-2.4782,-2.4834,-2.4975,-2.5197,-2.4457,-2.4043,-2.4014,-2.4014,-2.4032,-2.4108,-2.4108,-2.4099,0.0,-2.3258,-2.2403,-2.1603,-2.1607,-2.1131,-2.0332,-1.9529,-1.9199,-1.9101,-1.8301,-1.8008,-1.7988,-1.793,-1.7949,-1.7988,-1.793,-1.7322,-1.6604,-1.6529,-1.7032,-1.7618,-1.7624,-1.7628,-1.741,-1.6478,-1.6223,-1.601,-1.5146,-1.4928,-1.4938,-1.4938,-1.5502,-1.6243,-1.6999,-1.778,-1.8593,-1.9407,-1.9583,-1.9339,-1.852,-1.8352,-1.828,-1.821,-1.7443,-1.7458,-1.8967,-1.7565,-1.7155,-1.8721,-1.8821,-1.861,-1.8172,-1.8097,-1.7948,-1.7697,-1.7035,-1.6655,-1.6655,-1.6024,-1.6045,-1.6741,-1.7118,-1.7296,-1.726,-1.6955,-1.6633,-2.0509,0.0,-2.1695,-2.1695,-2.2049,-2.2456,0.0,0.0,0.0,0.0,0.0,-2.6691,-2.6691,-2.6691,-2.6573,-2.6167,0.0,0.0,0.0,0.0,0.0,0.0,0.0,-2.5425,-2.4754,-2.4189,-2.395,-2.4179,-2.4008,-2.3999,-2.4257,-2.4321,-2.4419,-2.4578,-2.3997,-2.3848,-2.4148,-2.3962,-2.3619,-2.3105,-2.3105,-2.3103,-2.3129,-2.3129,-2.2778,-2.2149,-2.2004,-2.1427,-2.0598,-2.0042,-1.9693,-1.9424,-1.8558,-1.8234,-1.8216,-1.8066,-1.8008,-1.7891,-1.7246,-1.7441,-1.7891,-1.7227,-1.6426,-1.5702,-1.57,-1.5777,-1.5892,-1.5882,-1.5898,-1.5834,-1.56,-1.5536,-1.5476,-1.525,-1.5212,-1.521,-1.521,-1.5226,-1.5312,-1.5506,-1.6143,-1.6728,-1.6921,-1.7471,-1.778,-1.7477,-1.7416,-1.7356,-1.7239,-1.7039,-1.7037,-1.7422,-1.7069,-1.6961,-1.7369,-1.7058,-1.7073,-1.7557,-1.7001,-1.6641,-1.6577,-1.6412,-1.6325,-1.6325,-1.6549,-1.6836,-1.7166,-1.7245,-1.7175,-1.6917,-1.6841,-1.6751,-2.0584,-2.0957,-2.1321,-2.162,-2.2109,-2.2561,-2.2692,0.0,0.0,0.0,0.0,0.0,-2.6384,0.0,0.0,0.0,0.0,0.0,0.0,0.0,0.0,0.0,-2.5357,-2.4597,0.0,-2.3771,-2.3589,-2.3739,-2.3714,-2.3785,-2.3966,-2.4132,-2.4072,-2.382,-2.3395,-2.3329,-2.3651,-2.2923,-2.2413,-2.2101,-2.2101,-2.2148,-2.2197,-2.2197,-2.1947,-2.1485,-2.1155,-2.0736,-2.0241,-1.9471,-1.9152,-1.9023,-1.7789,-1.7296,-1.7259,-1.69,-1.6766,-1.6688,-1.6219,-1.6376,-1.6688,-1.6219,-1.5755,-1.5407,-1.5407,-1.5371,-1.5344,-1.5344,-1.5357,-1.5334,-1.53,-1.5296,-1.5296,-1.5296,-1.5299,-1.5292,-1.5306,-1.5206,-1.5254,-1.5619,-1.6002,-1.6398,-1.6764,-1.7208,-1.7329,-1.6886,-1.6772,-1.6701,-1.6591,-1.618,-1.6177,-1.691,-1.6275,-1.6101,-1.6835,-1.5983,-1.5872,-1.6926,-1.6581,-1.6251,-1.6063,-1.574,-1.5357,-1.4925,-1.5535,-1.5906,-1.602,-1.6348,-1.6426,-1.6244,-1.6244,-1.6355,-2.0606,-2.0838,-2.1141,-2.171,-2.2187,-2.2528,0.0,0.0,0.0,0.0,0.0,0.0,0.0,0.0,0.0,0.0,0.0,0.0,0.0,0.0,0.0,0.0,-2.478,0.0,-2.3767,-2.3684,-2.3537,-2.3218,-2.3414,-2.3588,-2.3692,-2.3818,-2.359,-2.296,-2.2703,-2.2705,-2.2994,-2.1701,-2.1064,-2.1064,-2.1064,-2.1125,-2.1242,-2.1242,-2.1242,-2.1203,-2.0527,0.0,-1.9983,-1.9178,-1.8771,-1.8512,-1.7002,-1.6405,-1.6308,-1.5568,-1.5296,-1.5296,-1.5296,-1.5296,-1.5296,-1.5296,-1.5334,-1.537,-1.537,-1.537,-1.5378,-1.539,-1.5385,-1.5363,-1.5326,-1.532,-1.5318,-1.5313,-1.5328,-1.5314,-1.5315,-1.5311,-1.5497,-1.6187,-1.6301,-1.6522,-1.7199,-1.7314,-1.708,-1.6375,-1.6169,-1.6082,-1.6018,-1.5264,-1.525,-1.6621,-1.5447,-1.5109,-1.6484,-1.5348,-1.5056,-1.6175,-1.6219,-1.6038,-1.5705,-1.5094,-1.4428,-1.3699,-1.4307,-1.4673,-1.4756,-1.5358,-1.5654,-1.5644,-1.5733,-1.5952,-2.0528,-2.153,-2.2418,-2.2523,-2.2984,-2.3513,0.0,0.0,0.0,0.0,0.0,0.0,0.0,0.0,0.0,0.0,0.0,0.0,0.0,0.0,0.0,-2.4698,0.0,-2.3386,-2.2933,-2.2675,-2.2735,-2.3171,-2.2984,-2.3105,-2.3671,-2.2884,-2.2511,-2.2656,-2.1342,-2.0653,-2.0705,-2.08,-2.0563,-2.0038,-2.0038,-2.0049,-2.0053,-2.0053,-2.0053,-2.0053,0.0,-1.949,-1.881,-1.8053,-1.734,-1.6643,-1.5811,-1.5491,-1.5476,-1.5342,-1.5296,-1.5296,-1.5296,-1.5296,-1.5296,-1.5296,-1.532,-1.5324,-1.5324,-1.5324,-1.5326,-1.5316,-1.532,-1.5325,-1.5363,-1.5386,-1.5388,-1.5371,-1.5382,-1.5389,-1.5384,-1.5339,-1.5336,-1.5461,-1.543,-1.5442,-1.5558,-1.5577,-1.5498,-1.5275,-1.5212,-1.5186,-1.5108,-1.4952,-1.4967,-1.5207,-1.5005,-1.494,-1.5193,-1.4973,-1.4926,-1.5122,-1.4934,-1.4788,-1.4714,-1.4611,-1.4685,-1.5006,-1.5123,-1.5433,-1.5949,-1.5877,-1.5855,-1.5855,-1.6322,-1.6566,-2.021,-2.1126,-2.2254,-2.2613,-2.3684,0.0,0.0,0.0,0.0,0.0,0.0,0.0,0.0,0.0,0.0,0.0,0.0,0.0,-2.4828,-2.4123,-2.3554,0.0,0.0,-2.2705,-2.2511,-2.2374,-2.2432,-2.2699,-2.2717,-2.2835,-2.3141,-2.2492,-2.196,-2.1688,-2.0578,-1.9791,-1.9343,-1.9653,-1.9786,-1.9695,-1.9695,-1.9726,-1.979,-1.979,-1.979,-1.979,0.0,-1.9349,-1.8534,-1.7724,-1.6918,-1.6109,-1.5408,-1.5132,-1.514,-1.521,-1.5252,-1.5248,-1.5159,-1.5146,-1.5138,-1.5096,-1.5072,-1.5085,-1.5085,-1.513,-1.5194,-1.5194,-1.5239,-1.532,-1.5334,-1.5357,-1.534,-1.5353,-1.5342,-1.5349,-1.535,-1.5319,-1.5296,-1.5295,-1.5286,-1.5248,-1.5248,-1.5258,-1.5226,-1.5174,-1.513,-1.5104,-1.5078,-1.4992,-1.4957,-1.4957,-1.4923,-1.4904,-1.4904,-1.4904,-1.4904,-1.4904,-1.4608,-1.445,-1.445,-1.4277,-1.4291,-1.4535,-1.4535,-1.468,-1.4965,-1.4765,-1.4666,-1.4675,-1.5242,-1.5714,-1.9925,-2.0681,-2.1814,-2.2343,0.0,0.0,0.0,0.0,0.0,0.0,0.0,0.0,0.0,0.0,0.0,0.0,0.0,-2.4237,-2.343,-2.2721,-2.2295,-2.2262,-2.2105,-2.2034,-2.212,-2.2135,-2.218,-2.2296,-2.2487,-2.2565,-2.2448,-2.1907,-2.1275,-2.0576,-1.9828,-1.9137,-1.8508,-1.877,-1.9092,-1.9456,-1.9506,-1.9584,-1.9682,-1.9682,-1.9682,-1.9682,-1.9682,-1.9125,-1.8161,-1.7732,-1.6845,-1.5748,-1.539,-1.5145,-1.4985,-1.5091,-1.5133,-1.5127,-1.4999,-1.4977,-1.4962,-1.4915,-1.4906,-1.4897,-1.4897,-1.4964,-1.5053,-1.5053,-1.513,-1.522,-1.5274,-1.5302,-1.5303,-1.5295,-1.5296,-1.5291,-1.5306,-1.5291,-1.5293,-1.5296,-1.5285,-1.528,-1.528,-1.5289,-1.5297,-1.5297,-1.5269,-1.5226,-1.5226,-1.5124,-1.5069,-1.5069,-1.5023,-1.4988,-1.4981,-1.4976,-1.496,-1.496,-1.4686,-1.4524,-1.4524,-1.4265,-1.4126,-1.4087,-1.4087,-1.406,-1.4038,-1.3849,-1.3736,-1.3746,-1.4332,-1.4988,-1.9836,-2.0681,-2.171,-2.1754,0.0,0.0,0.0,0.0,0.0,0.0,0.0,0.0,0.0,0.0,0.0,0.0,-2.326,-2.3203,-2.4152,0.0,-2.157,-2.2051,-2.1521,-2.1228,-2.1613,-2.1658,-2.1823,-2.2268,-2.2324,-2.2133,-2.1707,-2.0712,-1.9942,-1.9519,-1.8728,-1.8281,-1.8229,-1.8489,-1.877,-1.9043,-1.9238,-1.9327,-1.9342,-1.9342,-1.9342,-1.9342,-1.9342,-1.8452,-1.709,-1.7881,-1.6876,-1.4886,-1.5706,-1.5564,-1.4917,-1.4925,-1.4925,-1.4925,-1.4917,-1.4917,-1.4913,-1.4904,-1.4908,-1.4894,-1.4894,-1.4902,-1.4907,-1.4907,-1.4919,-1.4985,-1.5241,-1.5306,-1.5299,-1.5307,-1.5296,-1.5297,-1.5303,-1.5304,-1.5299,-1.5302,-1.5253,-1.5214,-1.5214,-1.5266,-1.5291,-1.5291,-1.5309,-1.5287,-1.5287,-1.5286,-1.5284,-1.5284,-1.5261,-1.526,-1.5265,-1.5218,-1.5174,-1.5174,-1.498,-1.4859,-1.4859,-1.4841,-1.4762,-1.4648,-1.4642,-1.4574,-1.4458,-1.4257,-1.4156,-1.4167,-1.4707,-1.5286,-2.04,-2.1006,-2.1799,-2.2224,0.0,0.0,0.0,0.0,0.0,0.0,0.0,0.0,0.0,0.0,0.0,0.0,-2.34,-2.323,-2.311,-2.2059,-2.1325,-2.1422,-2.1167,-2.1055,-2.1213,-2.1228,-2.1307,-2.1478,-2.172,-2.1592,-2.0945,-2.0334,-1.9721,-1.9104,-1.8346,-1.7949,-1.7949,-1.8218,-1.84,-1.8508,-1.8744,-1.8956,-1.9101,-1.8948,-1.8684,-1.8367,-1.8231,-1.7336,-1.5987,-1.6353,-1.5735,-1.4618,-1.5058,-1.5099,-1.4904,-1.4904,-1.4904,-1.4891,-1.4804,-1.4776,-1.4761,-1.4671,-1.464,-1.464,-1.464,-1.4707,-1.4776,-1.4776,-1.485,-1.4932,-1.5072,-1.5114,-1.5132,-1.5222,-1.5236,-1.5248,-1.5286,-1.5306,-1.5305,-1.529,-1.5284,-1.5252,-1.5252,-1.5286,-1.5292,-1.5292,-1.5253,-1.5242,-1.5287,-1.5304,-1.5298,-1.5299,-1.5296,-1.531,-1.5292,-1.5274,-1.5265,-1.5265,-1.5078,-1.4954,-1.4954,-1.4923,-1.4882,-1.4822,-1.4818,-1.4794,-1.4742,-1.4548,-1.4413,-1.4356,-1.5379,-1.597,-2.1057,-2.1201,-2.1545,0.0,0.0,0.0,0.0,0.0,0.0,0.0,0.0,0.0,0.0,0.0,0.0,0.0,-2.2817,-2.247,-2.1881,-2.1222,-2.0751,-2.0611,-2.0582,-2.0632,-2.078,-2.078,-2.0845,-2.0991,-2.1049,-2.0776,-2.0027,-1.9681,-1.9156,-1.8413,-1.8008,-1.78,-1.78,-1.7982,-1.7969,-1.7738,-1.7915,-1.8176,-1.8528,-1.8342,-1.7932,-1.7345,-1.7209,-1.6459,-1.5318,-1.5595,-1.5309,-1.4678,-1.4583,-1.4606,-1.4688,-1.4688,-1.4688,-1.4668,-1.4493,-1.4443,-1.4426,-1.4344,-1.4307,-1.4314,-1.4387,-1.4462,-1.4563,-1.4624,-1.4702,-1.4799,-1.4886,-1.4938,-1.5,-1.508,-1.5113,-1.5117,-1.5185,-1.5201,-1.5222,-1.5263,-1.5272,-1.5272,-1.5272,-1.5289,-1.5292,-1.5292,-1.5257,-1.5251,-1.5293,-1.5293,-1.5292,-1.5306,-1.5301,-1.5295,-1.5307,-1.5298,-1.5296,-1.5292,-1.5173,-1.5094,-1.5056,-1.5026,-1.4972,-1.4921,-1.4902,-1.4886,-1.485,-1.466,-1.4655,-1.4835,-1.5751,-1.6383,-2.1758,-2.1216,0.0,0.0,0.0,0.0,0.0,0.0,0.0,0.0,0.0,0.0,0.0,0.0,0.0,-2.1575,-2.1122,-2.0703,-2.0703,-2.0124,-1.9708,-1.9708,-1.9708,-1.9856,-2.0246,-2.0297,-2.0483,-2.0943,-2.0382,-1.9661,-1.8925,-1.8577,-1.8066,-1.7325,-1.7624,-1.7789,-1.7789,-1.7772,-1.7411,-1.6688,-1.6688,-1.6959,-1.7497,-1.7471,-1.708,-1.6393,-1.6375,-1.5897,-1.5153,-1.6011,-1.5869,-1.5025,-1.4423,-1.4195,-1.4195,-1.4195,-1.4195,-1.4169,-1.3969,-1.3906,-1.3906,-1.3906,-1.3906,-1.3941,-1.4143,-1.4195,-1.4245,-1.4447,-1.4488,-1.4528,-1.4666,-1.4794,-1.49,-1.49,-1.4904,-1.4915,-1.4988,-1.4991,-1.5035,-1.5174,-1.5209,-1.5209,-1.5189,-1.5255,-1.5298,-1.5298,-1.5306,-1.5296,-1.5296,-1.5296,-1.5296,-1.5296,-1.5303,-1.5304,-1.5293,-1.5307,-1.5308,-1.53,-1.5297,-1.5276,-1.5201,-1.5192,-1.514,-1.5018,-1.4948,-1.4832,-1.4693,-1.4578,-1.4927,-1.5705,-1.5723,-1.6429,-2.1042,-2.0838,0.0,0.0,0.0,0.0,0.0,0.0,0.0,0.0,0.0,0.0,0.0,0.0,0.0,-2.1126,-2.0823,-2.0703,-2.0703,-2.0124,-1.9708,-1.9708,-1.9708,-1.9747,-1.9874,-1.9874,-1.9945,-2.0085,-1.9775,-1.9233,-1.8437,-1.8179,-1.7704,-1.6971,-1.7043,-1.7093,-1.7093,-1.6632,-1.628,-1.6067,-1.5594,-1.5731,-1.6448,-1.6257,-1.5852,-1.5334,-1.5142,-1.4683,-1.4088,-1.4478,-1.4502,-1.4246,-1.4058,-1.399,-1.399,-1.399,-1.399,-1.3983,-1.3927,-1.3906,-1.3906,-1.3906,-1.3906,-1.3913,-1.3969,-1.399,-1.4004,-1.4051,-1.4089,-1.4111,-1.4302,-1.438,-1.4495,-1.4822,-1.4904,-1.4913,-1.4928,-1.4936,-1.4944,-1.4976,-1.498,-1.5004,-1.5058,-1.5076,-1.5111,-1.5221,-1.5226,-1.5258,-1.5282,-1.5297,-1.5296,-1.5296,-1.5306,-1.5295,-1.5304,-1.5292,-1.5303,-1.5292,-1.5292,-1.5292,-1.528,-1.5276,-1.5243,-1.5206,-1.5146,-1.5087,-1.504,-1.5628,-1.5976,-1.6154,-1.7192,-1.7851,-2.1503,0.0,0.0,0.0,0.0,0.0,0.0,0.0,0.0,0.0,0.0,0.0,0.0,-2.1149,0.0,-2.046,-1.9977,-1.973,-1.9954,-1.9436,-1.9151,-1.9369,-1.9188,-1.9151,-1.9369,-1.9387,-1.946,-1.969,-1.9095,-1.851,-1.802,-1.753,-1.7061,-1.661,-1.6725,-1.6802,-1.6802,-1.6144,-1.5642,-1.5358,-1.4685,-1.4458,-1.4648,-1.4794,-1.4529,-1.3972,-1.3924,-1.376,-1.3534,-1.365,-1.3696,-1.3703,-1.3761,-1.3773,-1.3773,-1.3773,-1.3773,-1.3766,-1.3726,-1.3696,-1.3696,-1.3696,-1.3696,-1.3711,-1.3768,-1.3773,-1.3805,-1.3885,-1.3906,-1.3934,-1.4045,-1.4072,-1.417,-1.4545,-1.4619,-1.4619,-1.4587,-1.4587,-1.4617,-1.4757,-1.4776,-1.4816,-1.4931,-1.4969,-1.4989,-1.5063,-1.507,-1.5094,-1.5149,-1.5138,-1.5146,-1.5146,-1.5146,-1.5139,-1.5146,-1.5149,-1.5162,-1.5222,-1.5224,-1.5246,-1.5291,-1.5304,-1.5294,-1.5294,-1.5214,-1.516,-1.516,-1.5987,-1.6498,-1.6768,-1.7988,-1.8683,0.0,0.0,0.0,0.0,0.0,0.0,0.0,0.0,0.0,0.0,0.0,0.0,0.0,-2.0016,-1.9094,-1.964,-1.8818,-1.8283,-1.8746,-1.8419,-1.8283,-1.8765,-1.84,-1.8302,-1.8779,-1.8836,-1.9024,-1.953,-1.8371,-1.7644,-1.7632,-1.6772,-1.628,-1.6246,-1.6541,-1.6712,-1.6712,-1.6046,-1.536,-1.4692,-1.3961,-1.327,-1.2645,-1.3305,-1.3229,-1.261,-1.2869,-1.3103,-1.3337,-1.3337,-1.3337,-1.3337,-1.3451,-1.3506,-1.3506,-1.3506,-1.3506,-1.3499,-1.3362,-1.3337,-1.3337,-1.3337,-1.3337,-1.3354,-1.3467,-1.3506,-1.3545,-1.3736,-1.3788,-1.3788,-1.381,-1.381,-1.386,-1.4065,-1.4149,-1.4157,-1.4098,-1.408,-1.4168,-1.4481,-1.4547,-1.4594,-1.4794,-1.4836,-1.4845,-1.4863,-1.4895,-1.4904,-1.4904,-1.4904,-1.4904,-1.4904,-1.4904,-1.4909,-1.4889,-1.4897,-1.4951,-1.5069,-1.5084,-1.5132,-1.5258,-1.5292,-1.5291,-1.5291,-1.5186,-1.5158,-1.5235,-1.5997,-1.677,-1.7583,-1.8384,-1.9144,0.0,0.0,0.0,0.0,0.0,0.0,0.0,0.0,0.0,0.0,0.0,0.0,-1.9154,-1.8975,-1.8943,-1.8534,-1.8268,-1.8145,-1.8263,-1.8185,-1.8145,-1.8263,-1.8185,-1.8165,-1.8263,-1.8283,-1.8322,-1.8438,-1.7679,-1.7188,-1.7069,-1.6418,-1.6023,-1.5914,-1.5983,-1.6025,-1.6025,-1.5356,-1.4945,-1.4754,-1.3575,-1.2905,-1.2753,-1.281,-1.2755,-1.2601,-1.2658,-1.2715,-1.2762,-1.2762,-1.2762,-1.2771,-1.2801,-1.2829,-1.2829,-1.2829,-1.2829,-1.282,-1.2781,-1.2762,-1.2762,-1.2762,-1.2762,-1.2781,-1.2811,-1.2829,-1.2813,-1.2868,-1.2886,-1.2914,-1.3066,-1.3118,-1.3185,-1.3434,-1.3729,-1.3969,-1.3952,-1.3934,-1.3954,-1.4036,-1.4049,-1.4108,-1.4253,-1.4264,-1.4364,-1.4614,-1.4804,-1.4904,-1.4904,-1.4904,-1.4904,-1.4904,-1.4904,-1.4894,-1.49,-1.49,-1.4902,-1.4946,-1.4948,-1.4961,-1.498,-1.5187,-1.5291,-1.5291,-1.5264,-1.5574,-1.6201,-1.7107,-1.797,-1.8826,-1.9519,-1.9959,0.0,0.0,0.0,0.0,0.0,0.0,0.0,0.0,0.0,0.0,0.0,-1.9647,-1.8347,-1.8173,-1.8119,-1.7767,-1.7504,-1.7435,-1.7686,-1.7504,-1.7422,-1.7686,-1.7483,-1.7422,-1.7686,-1.7727,-1.7827,-1.8086,-1.7482,-1.6964,-1.6638,-1.6002,-1.5528,-1.5179,-1.518,-1.518,-1.518,-1.4501,-1.4269,-1.4449,-1.3453,-1.2834,-1.2544,-1.2325,-1.2447,-1.2874,-1.2553,-1.2475,-1.2601,-1.2601,-1.2601,-1.2601,-1.2601,-1.2601,-1.2601,-1.2601,-1.2601,-1.2601,-1.2601,-1.2601,-1.2601,-1.2601,-1.2601,-1.2601,-1.2601,-1.2601,-1.2601,-1.2601,-1.2601,-1.2614,-1.2729,-1.2767,-1.2794,-1.2929,-1.3295,-1.3594,-1.3491,-1.3467,-1.3458,-1.3432,-1.352,-1.3659,-1.38,-1.3922,-1.4071,-1.4241,-1.4354,-1.4424,-1.4424,-1.4424,-1.4424,-1.4424,-1.4424,-1.4424,-1.4424,-1.4424,-1.4458,-1.4516,-1.4514,-1.4588,-1.4757,-1.4887,-1.5038,-1.5194,-1.5191,-1.5441,-1.5935,-1.7225,-1.8099,-1.8567,-1.9714,-2.0249,0.0,0.0,0.0,0.0,0.0,0.0,0.0,0.0,0.0,0.0,-1.8087,-1.8617,-1.7956,-1.7463,-1.7146,-1.7146,-1.6795,-1.6616,-1.6967,-1.6697,-1.6637,-1.698,-1.671,-1.668,-1.7105,-1.7146,-1.7353,-1.7787,-1.7306,-1.6742,-1.6195,-1.5636,-1.5083,-1.4529,-1.4501,-1.4501,-1.4501,-1.3943,-1.3846,-1.4155,-1.3557,-1.2929,-1.2363,-1.1957,-1.216,-1.2773,-1.2279,-1.2174,-1.238,-1.2445,-1.2465,-1.2465,-1.24,-1.238,-1.237,-1.2315,-1.234,-1.238,-1.238,-1.241,-1.2465,-1.2465,-1.2465,-1.2465,-1.2465,-1.2465,-1.2465,-1.2465,-1.2465,-1.2465,-1.2465,-1.2465,-1.2475,-1.2524,-1.2918,-1.3254,-1.3132,-1.3006,-1.295,-1.3015,-1.3103,-1.3219,-1.3332,-1.3563,-1.3733,-1.3788,-1.3824,-1.3853,-1.3881,-1.3906,-1.3906,-1.3906,-1.3906,-1.3906,-1.3906,-1.3906,-1.3941,-1.4066,-1.4079,-1.418,-1.4465,-1.4476,-1.4621,-1.4917,-1.5027,-1.5252,-1.5668,-1.7079,-1.7916,-1.8253,-1.9648,-2.031,0.0,0.0,0.0,0.0,0.0,0.0,0.0,0.0,0.0,0.0,-1.7156,-1.7454,-1.6824,-1.6659,-1.6616,-1.6616,-1.6552,-1.6324,-1.5896,-1.6225,-1.6324,-1.5874,-1.6238,-1.6543,-1.6595,-1.6616,-1.6637,-1.671,-1.6625,-1.6301,-1.5649,-1.5517,-1.5158,-1.4513,-1.4501,-1.4501,-1.4501,-1.4403,-1.4393,-1.4441,-1.3784,-1.3176,-1.2622,-1.1998,-1.1535,-1.1221,-1.1362,-1.1442,-1.1509,-1.1786,-1.1908,-1.1886,-1.1586,-1.1475,-1.1453,-1.1219,-1.1276,-1.1475,-1.1475,-1.1652,-1.1908,-1.1908,-1.1908,-1.1908,-1.1908,-1.1908,-1.1908,-1.1908,-1.1908,-1.1908,-1.1908,-1.1908,-1.1971,-1.22,-1.2744,-1.3272,-1.3483,-1.3063,-1.2816,-1.3406,-1.3076,-1.2699,-1.2711,-1.2889,-1.3109,-1.3345,-1.3478,-1.3644,-1.3867,-1.3906,-1.3906,-1.3906,-1.3906,-1.3906,-1.3906,-1.3906,-1.392,-1.3931,-1.3931,-1.3952,-1.4,-1.3982,-1.4066,-1.4239,-1.4695,-1.5652,-1.711,-1.7404,-1.8343,-1.9873,-2.0104,-2.0279,0.0,0.0,0.0,0.0,0.0,0.0,0.0,0.0,0.0,-1.6166,-1.5936,-1.5919,-1.5979,-1.5722,-1.55,-1.55,-1.55,-1.5399,-1.513,-1.531,-1.5399,-1.513,-1.5332,-1.55,-1.55,-1.55,-1.55,-1.55,-1.55,-1.5126,-1.4265,-1.4217,-1.3962,-1.3399,-1.3391,-1.3522,-1.3769,-1.3769,-1.3901,-1.4165,-1.3861,-1.3271,-1.2398,-1.1889,-1.1589,-1.1442,-1.119,-1.1083,-1.1094,-1.1233,-1.129,-1.1279,-1.1129,-1.1083,-1.1059,-1.0944,-1.0979,-1.1083,-1.1083,-1.1175,-1.129,-1.129,-1.129,-1.129,-1.129,-1.151,-1.1734,-1.1734,-1.1964,-1.2195,-1.2195,-1.2195,-1.222,-1.2343,-1.2596,-1.2936,-1.3441,-1.3217,-1.2911,-1.2827,-1.2586,-1.2416,-1.2572,-1.268,-1.2767,-1.2893,-1.2968,-1.304,-1.3151,-1.316,-1.316,-1.316,-1.3303,-1.3394,-1.3394,-1.3524,-1.3565,-1.3419,-1.3394,-1.3377,-1.3334,-1.3473,-1.3845,-1.442,-1.4994,-1.5695,-1.6507,-1.7549,-1.8464,-1.9271,-1.9798,-1.9976,0.0,0.0,0.0,0.0,0.0,0.0,0.0,0.0,-1.6195,0.0,-1.4892,-1.4606,-1.5062,-1.4892,-1.4698,-1.4698,-1.4698,-1.4663,-1.4491,-1.4606,-1.4629,-1.4491,-1.4606,-1.4698,-1.4698,-1.4698,-1.4698,-1.4698,-1.4698,-1.425,-1.3254,-1.3199,-1.2941,-1.2335,-1.2318,-1.249,-1.2838,-1.2843,-1.3022,-1.3374,-1.3374,-1.2787,-1.1704,-1.1399,-1.1204,-1.1109,-1.0869,-1.0715,-1.0643,-1.084,-1.0871,-1.0784,-1.0805,-1.0753,-1.0645,-1.057,-1.0596,-1.0631,-1.0535,-1.0687,-1.0906,-1.0792,-1.0825,-1.0897,-1.0897,-1.1177,-1.1525,-1.1663,-1.1992,-1.2334,-1.2457,-1.2498,-1.2498,-1.2498,-1.2635,-1.284,-1.3169,-1.3148,-1.2866,-1.2193,-1.2024,-1.2009,-1.2159,-1.23,-1.239,-1.2374,-1.2374,-1.2439,-1.2582,-1.2527,-1.2508,-1.2591,-1.2778,-1.2906,-1.2906,-1.3077,-1.3104,-1.2915,-1.3051,-1.3132,-1.3076,-1.3438,-1.3953,-1.4649,-1.5366,-1.5883,-1.6213,-1.7476,-1.822,-1.8477,-1.9176,-1.9407,0.0,0.0,0.0,0.0,0.0,0.0,0.0,0.0,0.0,-1.4983,-1.426,-1.3862,-1.3886,-1.4329,-1.4698,-1.4698,-1.4698,-1.4491,-1.3944,-1.4329,-1.4491,-1.3909,-1.4352,-1.4698,-1.4698,-1.4698,-1.4698,-1.4698,-1.4698,-1.425,-1.3254,-1.3199,-1.2782,-1.1863,-1.1847,-1.1847,-1.1866,-1.1866,-1.1884,-1.192,-1.192,-1.137,-1.0407,-1.0375,-0.986,-0.9015,-0.9995,-1.0209,-0.9919,-1.0676,-1.0774,-1.044,-1.0573,-1.0347,-0.9926,-0.9677,-0.9741,-0.9897,-0.9506,-1.009,-1.0925,-1.0479,-1.0592,-1.0897,-1.0897,-1.0924,-1.105,-1.1566,-1.1718,-1.1869,-1.2375,-1.2498,-1.2498,-1.2498,-1.2991,-1.3279,-1.2676,-1.2637,-1.2525,-1.1863,-1.1525,-1.1276,-1.1024,-1.1471,-1.1818,-1.1753,-1.1753,-1.1943,-1.2527,-1.2329,-1.2254,-1.2572,-1.261,-1.262,-1.262,-1.263,-1.2639,-1.262,-1.3215,-1.3573,-1.3557,-1.42,-1.456,-1.4599,-1.5572,-1.6475,-1.7329,-1.7085,-1.7438,-1.8315,-1.8369,-1.8449,0.0,0.0,0.0,0.0,0.0,0.0,0.0,-1.5292,-1.462,-1.4199,-1.3647,-1.3214,-1.3214,-1.3406,-1.3539,-1.3539,-1.3539,-1.3478,-1.3238,-1.3406,-1.329,-1.2599,-1.3112,-1.3351,-1.287,-1.328,-1.3539,-1.3539,-1.3539,-1.3248,-1.2587,-1.2313,-1.2027,-1.1746,-1.1443,-1.1449,-1.1792,-1.1792,-1.1792,-1.1792,-1.1792,-1.1415,-1.0687,-1.0687,-1.0288,-0.9655,-1.0036,-0.9983,-0.9619,-0.9921,-1.0105,-1.021,-1.0262,-1.017,-1.0013,-0.9921,-0.9942,-1.0006,-0.9856,-1.008,-1.0389,-1.0232,-1.0276,-1.0394,-1.0394,-1.0633,-1.0944,-1.1124,-1.1467,-1.1813,-1.1993,-1.2058,-1.2058,-1.2058,-1.2451,-1.2701,-1.2174,-1.2657,-1.3021,-1.2348,-1.2141,-1.193,-1.1495,-1.1587,-1.1605,-1.1239,-1.1193,-1.1393,-1.196,-1.1632,-1.1508,-1.1972,-1.2024,-1.203,-1.203,-1.2374,-1.2705,-1.2968,-1.297,-1.3076,-1.3336,-1.3458,-1.3872,-1.4659,-1.514,-1.5787,-1.657,-1.705,-1.7452,-1.7783,-1.7828,-1.7786,0.0,0.0,0.0,0.0,0.0,0.0,0.0,0.0,-1.3909,-1.3559,-1.3176,-1.2905,-1.2905,-1.2691,-1.2525,-1.2525,-1.2329,-1.2206,-1.2206,-1.2206,-1.2024,-1.1516,-1.1891,-1.2098,-1.1839,-1.2236,-1.2642,-1.2881,-1.2905,-1.2695,-1.2233,-1.1943,-1.1687,-1.143,-1.0999,-1.0935,-1.1292,-1.1292,-1.1292,-1.1292,-1.1292,-1.0998,-1.0457,-1.0457,-1.0098,-0.9458,-0.9458,-0.9488,-0.9547,-0.9668,-0.982,-0.9942,-1.0112,-1.0069,-0.9932,-0.9932,-0.9932,-0.9911,-0.9769,-0.9905,-1.0101,-0.9983,-1.001,-1.0096,-1.0096,-1.036,-1.0664,-1.0847,-1.1188,-1.1543,-1.1747,-1.1792,-1.1792,-1.1792,-1.2029,-1.2174,-1.1866,-1.2249,-1.2502,-1.2042,-1.1916,-1.1757,-1.1447,-1.1587,-1.1629,-1.1317,-1.1263,-1.1369,-1.1651,-1.1196,-1.0982,-1.1389,-1.1313,-1.1232,-1.1232,-1.161,-1.1944,-1.2236,-1.2374,-1.2622,-1.3039,-1.3305,-1.3742,-1.44,-1.4527,-1.4747,-1.506,-1.6418,-1.7022,-1.6865,-1.691,-1.691,0.0,0.0,0.0,0.0,0.0,0.0,-1.4368,0.0,-1.4099,-1.3125,-1.2925,-1.2925,-1.2905,-1.227,-1.1765,-1.1765,-1.1216,-1.0788,-1.0788,-1.0788,-1.0788,-1.0762,-1.0788,-1.104,-1.169,-1.1765,-1.208,-1.2774,-1.2856,-1.2671,-1.2219,-1.219,-1.1804,-1.0937,-1.0518,-1.0312,-1.0303,-1.0303,-1.0303,-1.0303,-1.0303,-1.0059,-0.9612,-0.9594,-0.9102,-0.8237,-0.8228,-0.8723,-0.9611,-1.0001,-0.9954,-0.9669,-1.0117,-1.002,-0.9612,-0.9612,-0.9612,-0.9554,-0.9162,-0.9542,-1.0143,-0.9742,-0.9835,-1.0075,-1.0075,-1.0075,-1.0174,-1.0713,-1.0862,-1.1007,-1.1603,-1.1774,-1.1774,-1.1756,-1.1774,-1.1774,-1.1737,-1.1275,-1.0868,-1.0931,-1.0774,-1.0673,-1.0786,-1.1347,-1.1811,-1.1926,-1.1941,-1.1874,-1.1696,-1.1093,-1.0738,-1.0876,-1.056,-1.031,-1.031,-1.0323,-1.0367,-1.0442,-1.1476,-1.228,-1.2763,-1.3844,-1.4219,-1.3776,-1.3759,-1.3506,-1.3006,-1.5169,-1.5991,-1.5548,-1.5562,-1.579,-1.8941,0.0,0.0,0.0,0.0,0.0,-1.5579,-1.4819,-1.4037,-1.3443,-1.334,-1.3242,-1.2964,-1.1891,-1.1091,-1.1091,-1.0914,-1.0788,-1.0788,-1.0788,-1.0618,-1.0141,-1.0491,-1.0686,-1.0389,-1.0788,-1.1166,0.0,-1.1832,-1.2058,-1.1923,-1.2091,-1.1804,-1.0937,-1.0791,-1.0586,-1.0303,-1.0303,-1.0303,-1.0303,-1.0303,-1.0234,-1.0079,-0.9714,-0.9388,-0.9115,-0.8729,-0.871,-0.8954,-0.9115,-0.9544,-1.0117,-1.0254,-1.0215,-1.0107,-1.0107,-1.0107,-1.0088,-0.999,-1.0085,-1.0249,-1.0149,-0.9912,-0.9667,-0.9667,-0.9393,-0.9211,-0.9744,-0.9897,-1.0021,-1.0561,-1.0973,-1.1132,-1.0812,-1.0973,-1.1008,-1.0283,-1.0022,-1.022,-1.1326,-1.152,-1.1347,-1.0934,-1.1034,-1.1027,-1.0672,-1.0626,-1.0755,-1.1072,-1.0622,-1.0421,-1.0845,-1.0668,-1.0522,-1.0522,-1.074,-1.1067,-1.1526,-1.1582,-1.187,-1.2484,-1.254,-1.2613,-1.2785,-1.2798,-1.2864,-1.3006,-1.3608,-1.4038,-1.4312,-1.4649,-1.4864,0.0,0.0,0.0,0.0,0.0,0.0,-1.5321,-1.4625,-1.3938,-1.3369,-1.3242,-1.3089,-1.2548,-1.1534,-1.072,-1.044,-1.0141,-0.9969,-0.9969,-0.9969,-0.9814,-0.9439,-0.9744,-0.9917,-0.9814,-1.0141,-1.0491,-1.0788,-1.1166,-1.1391,-1.1391,-1.163,-1.1554,-1.1032,-1.1142,-1.0997,-1.0547,-1.0337,-1.0132,-0.9961,-0.9736,-0.9637,-0.9617,-0.9299,-0.9039,-0.8817,-0.85,-0.8357,-0.8362,-0.8405,-0.9037,-0.9942,-0.9716,-0.9765,-0.9961,-0.9961,-0.9961,-1.0,-1.0225,-1.0157,-0.9961,-0.9961,-0.9597,-0.9159,-0.9159,-0.8938,-0.8756,-0.9079,-0.9159,-0.9239,-0.9558,-0.9844,-0.9972,-0.9696,-0.9835,-0.9874,-0.929,-0.9159,-0.943,-1.0331,-1.0513,-1.0471,-1.0299,-1.0469,-1.0573,-1.0454,-1.065,-1.082,-1.0881,-1.0513,-1.0303,-1.0548,-1.0332,-1.0068,-0.9837,-0.9987,-1.0173,-1.0321,-1.0315,-1.0566,-1.1126,-1.1113,-1.1199,-1.1483,-1.1483,-1.1498,-1.1534,-1.2515,-1.3065,-1.3213,-1.3259,-1.3406,0.0,0.0,0.0,0.0,-1.6573,0.0,-1.4454,-1.4074,-1.388,-1.3115,-1.29,-1.266,-1.1995,-1.1251,-1.0563,-0.9989,-0.9308,-0.8844,-0.8811,-0.8804,-0.8804,-0.8804,-0.8804,-0.9035,-0.964,-0.9692,-0.9935,-1.0542,-1.0644,-1.0712,-1.0788,-1.103,-1.114,-1.1096,-1.1313,-1.1221,-1.0748,-1.0251,-0.9801,-0.9441,-0.8935,-0.8695,-0.8695,-0.8635,-0.8357,-0.7891,-0.7829,-0.7808,-0.7808,-0.7808,-0.8431,-0.9359,-0.8878,-0.8999,-0.9419,-0.9419,-0.9419,-0.9478,-0.9961,-0.9814,-0.9419,-0.9419,-0.9039,-0.8614,-0.8614,-0.8553,-0.8533,-0.8594,-0.8655,-0.8695,-0.8695,-0.8695,-0.8695,-0.8695,-0.8695,-0.8675,-0.8622,-0.8614,-0.8594,-0.8533,-0.8614,-0.8829,-0.9255,-0.9729,-1.0166,-1.0587,-1.1108,-1.1267,-1.0715,-1.04,-1.0137,-0.9963,-0.9673,-0.9283,-0.8754,-0.8693,-0.8523,-0.8114,-0.8525,-0.8949,-0.9308,-0.973,-0.9964,-1.0021,-1.0021,-0.9826,-0.9419,-1.1559,-1.2417,-1.2064,-1.1642,-1.1696,0.0,0.0,0.0,0.0,0.0,0.0,-1.5714,-1.4883,-1.3968,-1.3486,-1.2937,-1.2492,-1.2251,-1.1223,-1.0427,-1.0505,-0.9736,-0.9044,-0.8838,-0.8804,-0.8804,-0.8804,-0.8804,-0.8857,-0.8982,-0.8982,-0.9061,-0.9185,-0.9684,-1.0236,-1.0762,-1.0847,-1.073,-1.0413,-1.0457,-1.0238,-0.9776,-0.9461,-0.9256,-0.916,-0.8857,-0.8695,-0.8675,-0.8255,-0.7995,-0.787,-0.7384,-0.7168,-0.7168,-0.7168,-0.7827,-0.8837,-0.8736,-0.8756,-0.8857,-0.8857,-0.8857,-0.8878,-0.8978,-0.8938,-0.8857,-0.8857,-0.85,-0.8057,-0.8057,-0.7718,-0.744,-0.7925,-0.8357,-0.8695,-0.8695,-0.8695,-0.8695,-0.8695,-0.8695,-0.8582,-0.816,-0.8057,-0.7904,-0.7419,-0.8075,-0.8736,-0.8829,-0.893,-0.9022,-0.9122,-0.9233,-0.9275,-0.9136,-0.9077,-0.9031,-0.8982,-0.8904,-0.8835,-0.8709,-0.8709,-0.8664,-0.8568,-0.8668,-0.8753,-0.8829,-0.8921,-0.8981,-0.8981,-0.899,-0.895,-0.8857,-0.9691,-1.006,-1.0002,-1.027,-1.0449,0.0,0.0,0.0,-1.7144,0.0,0.0,0.0,-1.461,-1.3701,-1.3281,-1.2638,-1.2065,-1.1843,-1.083,-1.009,-1.0194,-0.9528,-0.8908,-0.8651,-0.8708,-0.8804,-0.8804,-0.8804,-0.8804,-0.8804,-0.8804,-0.8804,-0.8804,-0.9106,-0.9439,-0.9788,-1.0115,-1.0216,-1.0019,-1.0334,-1.0278,-0.9856,-0.9295,-0.8907,-0.8691,-0.8118,-0.7848,-0.7848,-0.7572,-0.7447,-0.7426,-0.7133,-0.7,-0.7,-0.7,-0.7328,-0.7848,-0.7848,-0.8041,-0.8296,-0.8296,-0.8296,-0.8337,-0.8602,-0.8521,-0.8296,-0.8296,-0.7925,-0.7447,-0.7447,-0.7238,-0.7063,-0.7363,-0.7648,-0.7848,-0.7848,-0.7848,-0.7848,-0.7848,-0.7848,-0.7773,-0.751,-0.7447,-0.7363,-0.7063,-0.7454,-0.7848,-0.7848,-0.8103,-0.8296,-0.8296,-0.8521,-0.8695,-0.8695,-0.8695,-0.8695,-0.8695,-0.8695,-0.8594,-0.8316,-0.8296,-0.8062,-0.7495,-0.7454,-0.7321,-0.7015,-0.7008,-0.7259,-0.7854,-0.8136,-0.8362,-0.8506,-0.81,-0.8294,-0.9053,-0.9019,-0.914,0.0,0.0,0.0,0.0,0.0,-1.5239,0.0,0.0,0.0,-1.2998,-1.232,0.0,0.0,0.0,0.0,-0.9908,0.0,0.0,0.0,-0.8577,0.0,-0.8506,-0.8658,-0.8745,-0.8638,-0.8611,-0.8672,-0.8785,-0.8692,-0.8672,-0.8785,-0.9309,-0.9614,-0.9614,-1.0141,-1.0262,-0.9936,-0.9192,-0.8613,-0.8208,-0.7465,-0.7053,-0.7,-0.7,-0.7,-0.7,-0.7,-0.7,-0.7,-0.7,-0.7,-0.7,-0.7,-0.7301,-0.7725,-0.7725,-0.7725,-0.7787,-0.8226,-0.809,-0.7725,-0.7725,-0.7405,-0.7,-0.7,-0.7,-0.7,-0.7,-0.6915,-0.6852,-0.6852,-0.6768,-0.6677,-0.6677,-0.6677,-0.6698,-0.6831,-0.6852,-0.6873,-0.6979,-0.7,-0.7,-0.7,-0.7405,-0.7725,-0.7725,-0.8,-0.8218,-0.8218,-0.8108,-0.8039,-0.8039,-0.8039,-0.7861,-0.744,-0.7398,-0.7,-0.6093,-0.6029,-0.5809,-0.5329,-0.5303,-0.5728,-0.6651,-0.7173,-0.7545,-0.7767,-0.6772,-0.7061,-0.8535,-0.783,-0.7802,0.0,0.0,0.0,0.0,-1.6389,0.0,-1.4823,0.0,-1.359,-1.3027,0.0,0.0,0.0,0.0,0.0,0.0,0.0,0.0,-0.8563,-0.8422,-0.8154,-0.7371,-0.8193,-0.8604,-0.805,-0.7991,-0.8233,-0.8771,-0.8312,-0.8227,-0.8765,-0.8883,-0.891,-0.891,-0.8982,-0.8995,-0.896,-0.8616,-0.8292,-0.7947,-0.7607,-0.7275,-0.7,-0.7,-0.7,-0.7,-0.7,-0.7,-0.7,-0.7,-0.7,-0.7,-0.7,-0.7042,-0.7105,-0.7105,-0.7105,-0.7105,-0.7168,-0.7147,-0.7105,-0.7105,-0.7063,-0.7,-0.7,-0.7,-0.7,-0.7,-0.6668,-0.6285,-0.6285,-0.5889,-0.5497,-0.5497,-0.5497,-0.5631,-0.6179,-0.6285,-0.6435,-0.6915,-0.7,-0.7,-0.7,-0.7063,-0.7105,-0.7105,-0.6747,-0.6477,-0.6477,-0.6012,-0.5685,-0.5685,-0.5685,-0.5663,-0.5604,-0.5604,-0.554,-0.5411,-0.5394,-0.5367,-0.5303,-0.5303,-0.5367,-0.5497,-0.5679,-0.5799,-0.5825,-0.5857,-0.6591,-0.7963,-0.6653,-0.6386,0.0,0.0,0.0,0.0,0.0,0.0,-1.5276,0.0,-1.4143,0.0,0.0,0.0,0.0,0.0,0.0,0.0,-1.0422,0.0,0.0,0.0,-0.8063,-0.721,0.0,0.0,-0.8063,-0.7977,-0.8153,-0.8745,-0.8227,-0.8175,-0.8765,-0.8804,-0.8804,-0.8804,-0.8804,-0.8804,-0.8804,-0.8543,-0.8223,-0.7905,-0.7638,-0.733,-0.7,-0.7,-0.7,-0.7,-0.7,-0.7,-0.6979,-0.6668,-0.6541,-0.6492,-0.6145,-0.6231,-0.6541,-0.6541,-0.6541,-0.6583,-0.6894,-0.7,-0.6958,-0.6647,-0.6541,-0.6471,-0.6124,-0.6012,-0.6012,-0.6012,-0.5846,-0.568,-0.568,-0.548,-0.5303,-0.5303,-0.5303,-0.5367,-0.5631,-0.568,-0.5739,-0.5974,-0.6012,-0.6012,-0.6012,-0.6301,-0.6407,-0.606,-0.5825,-0.568,-0.568,-0.5459,-0.5303,-0.5303,-0.5303,-0.5303,-0.5303,-0.5303,-0.5151,-0.4805,-0.4487,-0.4316,-0.4316,-0.4613,-0.4783,-0.4783,-0.5255,-0.5591,-0.5791,-0.5532,-0.5999,-0.7132,-0.6215,-0.596,-1.8836,0.0,0.0,0.0,0.0,0.0,0.0,0.0,0.0,0.0,-1.3535,0.0,0.0,0.0,0.0,0.0,0.0,-1.0038,0.0,-0.8664,0.0,0.0,0.0,0.0,0.0,-0.7651,-0.7767,-0.8568,-0.8037,-0.8002,-0.8771,-0.8804,-0.8804,-0.8804,-0.8804,-0.8804,-0.8804,-0.8597,-0.8303,-0.7905,-0.7702,-0.7395,-0.7,-0.7,-0.7,-0.7,-0.7,-0.6915,-0.6747,-0.6371,-0.6093,-0.5894,-0.5281,-0.5329,-0.5723,-0.5894,-0.5959,-0.6002,-0.6401,-0.6528,-0.6465,-0.6087,-0.5959,-0.5873,-0.5437,-0.5303,-0.5303,-0.5303,-0.5173,-0.5065,-0.5065,-0.494,-0.4836,-0.4836,-0.4836,-0.4874,-0.5022,-0.5065,-0.5108,-0.5265,-0.5303,-0.5238,-0.5087,-0.5545,-0.5809,-0.5373,-0.5151,-0.5065,-0.5065,-0.4918,-0.4836,-0.4836,-0.4836,-0.4836,-0.4836,-0.4836,-0.4635,-0.4198,-0.3818,-0.3604,-0.3604,-0.4006,-0.4244,-0.4244,-0.4845,-0.5257,-0.5501,-0.5129,-0.5313,-0.6009,-0.5634,-0.5544,0.0,-1.7727,-1.7333,-1.7312,-1.6888,-1.6315,-1.572,-1.5588,-1.541,-1.4789,0.0,0.0,0.0,0.0,0.0,0.0,0.0,0.0,0.0,0.0,0.0,0.0,0.0,0.0,0.0,-0.6679,-0.6802,0.0,-0.7551,-0.7621,-0.8732,-0.8804,-0.8804,-0.8804,-0.8804,-0.8804,-0.8804,-0.8798,-0.8478,-0.7905,-0.7899,-0.7579,-0.7,-0.7,-0.7,-0.7,-0.7,-0.6704,-0.6221,-0.6206,-0.5852,-0.5265,-0.467,-0.443,-0.4517,-0.5108,-0.5324,-0.5324,-0.5351,-0.5346,-0.5351,-0.5324,-0.5324,-0.5324,-0.5308,-0.5303,-0.5303,-0.5303,-0.4891,-0.443,-0.443,-0.4052,-0.3644,-0.3644,-0.3644,-0.3796,-0.4329,-0.443,-0.4609,-0.5195,-0.5303,-0.5108,-0.4517,-0.4935,-0.5329,-0.5303,-0.4805,-0.443,-0.443,-0.3987,-0.3644,-0.3644,-0.3644,-0.3644,-0.3644,-0.3644,-0.3644,-0.3622,-0.3604,-0.3604,-0.3604,-0.3733,-0.3832,-0.3832,-0.4105,-0.4236,-0.4266,-0.444,-0.4539,-0.457,-0.4563,-0.4878,-1.8165,-1.7706,-1.7312,-1.7312,-1.6888,-1.6457,-1.6238,-1.6194,-1.603,-1.541,-1.4824,0.0,0.0,0.0,0.0,0.0,0.0,0.0,0.0,0.0,0.0,0.0,0.0,0.0,0.0,0.0,0.0,0.0,-0.776,0.0,-0.8745,-0.8804,-0.8804,-0.8804,-0.8804,-0.8804,-0.8804,-0.8804,-0.8371,-0.7517,-0.7994,-0.7665,-0.6619,-0.6691,-0.6643,-0.6456,-0.606,-0.5782,-0.5567,-0.5173,-0.4891,-0.4652,-0.4096,-0.388,-0.3946,-0.4504,-0.4691,-0.4761,-0.5151,-0.5303,-0.5238,-0.4826,-0.4785,-0.4829,-0.442,-0.4365,-0.4408,-0.4337,-0.4169,-0.3986,-0.3884,-0.3729,-0.3604,-0.3604,-0.3604,-0.3644,-0.3836,-0.3561,-0.3334,-0.3551,-0.3262,-0.2907,-0.2713,-0.2843,-0.3265,-0.4052,-0.4012,-0.388,-0.388,-0.3711,-0.3604,-0.3604,-0.3604,-0.3604,-0.3604,-0.3689,-0.3556,-0.3161,-0.3138,-0.2916,-0.2435,-0.2461,-0.2465,-0.2465,-0.266,-0.2735,-0.2735,-0.2909,-0.2982,-0.2982,-0.2982,-0.3395,-1.7585,-1.7271,-1.7013,-1.7013,-1.6752,-1.65,-1.65,-1.65,-1.6324,-1.572,-1.5118,-1.4514,0.0,0.0,0.0,0.0,0.0,0.0,0.0,-1.0074,0.0,0.0,0.0,0.0,0.0,0.0,0.0,0.0,0.0,0.0,0.0,-0.856,-0.8533,-0.8778,-0.8804,-0.8804,-0.8804,-0.8804,-0.8287,-0.7316,-0.7778,-0.7358,-0.6191,-0.6207,-0.6107,-0.5936,-0.5495,-0.5173,-0.4961,-0.4639,-0.4343,-0.4078,-0.3786,-0.3648,-0.3644,-0.3987,-0.4114,-0.418,-0.4552,-0.4705,-0.4648,-0.4292,-0.4279,-0.4314,-0.3975,-0.3904,-0.3907,-0.3758,-0.374,-0.3683,-0.3534,-0.3575,-0.3608,-0.3336,-0.3327,-0.3268,-0.3011,-0.2658,-0.2375,-0.2375,-0.2075,-0.1794,-0.1794,-0.1794,-0.2054,-0.2851,-0.2965,-0.297,-0.297,-0.3152,-0.3288,-0.3288,-0.3475,-0.3509,-0.3307,-0.3152,-0.2931,-0.254,-0.2518,-0.2299,-0.1821,-0.1842,-0.1868,-0.1866,-0.2007,-0.2068,-0.207,-0.2169,-0.2202,-0.2202,-0.1924,-0.2091]},{"header":{"parameterUnit":"m.s-1","parameterCategory":1,"la1":30.6,"la2":29.2853,"lo1":-89.7004,"lo2":-87.6739,"dy":0.0162,"dx":0.0183,"nx":112,"ny":82,"refTime":"2024-03-18T06:00:00:Z","depth":0,"parameterNumber":3,"parameterNumberName":"V-component_of_WINDS"},"data":[0.0,0.0,0.0,0.0,0.0,0.0,0.0,0.0,0.0,0.0,0.0,0.0,0.0,0.0,0.0,0.0,0.0,0.0,0.0,0.0,0.0,0.0,0.0,0.0,0.0,0.0,0.0,0.0,0.0,0.0,0.0,0.0,0.0,0.0,0.0,0.0,0.0,0.0,0.0,0.0,0.0,0.0,0.0,0.0,0.0,0.0,0.0,0.0,0.0,0.0,0.0,0.0,0.0,0.0,0.0,0.0,0.0,0.0,0.0,0.0,0.0,0.0,0.0,0.0,0.0,0.0,0.0,0.0,0.0,0.0,0.0,0.0,0.0,0.0,0.0,0.0,0.0,0.0,0.0,0.0,0.0,0.0,0.0,0.0,0.0,0.0,0.0,0.0,0.0,0.0,-1.4088,-1.4269,-1.5211,-1.5784,-1.5784,-1.592,-1.5892,-1.5637,0.0,0.0,0.0,0.0,0.0,0.0,0.0,0.0,0.0,0.0,0.0,0.0,0.0,0.0,0.0,0.0,0.0,0.0,0.0,0.0,0.0,0.0,0.0,0.0,0.0,0.0,0.0,0.0,0.0,0.0,0.0,0.0,0.0,0.0,0.0,0.0,0.0,0.0,0.0,0.0,0.0,0.0,0.0,0.0,0.0,0.0,0.0,0.0,0.0,0.0,0.0,0.0,0.0,0.0,0.0,0.0,0.0,0.0,0.0,0.0,0.0,0.0,0.0,0.0,0.0,0.0,0.0,0.0,0.0,0.0,0.0,0.0,0.0,0.0,0.0,0.0,0.0,0.0,0.0,0.0,0.0,0.0,0.0,0.0,0.0,0.0,0.0,0.0,0.0,0.0,0.0,0.0,0.0,0.0,0.0,0.0,0.0,0.0,0.0,0.0,0.0,0.0,0.0,0.0,-1.4053,-1.509,-1.5578,-1.5784,-1.5784,-1.654,-1.6598,-1.566,0.0,0.0,0.0,0.0,0.0,0.0,0.0,0.0,0.0,0.0,0.0,0.0,0.0,0.0,0.0,0.0,0.0,0.0,0.0,0.0,0.0,0.0,0.0,0.0,0.0,0.0,0.0,0.0,0.0,0.0,0.0,0.0,0.0,0.0,0.0,0.0,0.0,0.0,0.0,0.0,0.0,0.0,0.0,0.0,0.0,0.0,0.0,0.0,0.0,0.0,0.0,0.0,0.0,0.0,0.0,0.0,0.0,0.0,0.0,0.0,0.0,0.0,0.0,0.0,0.0,0.0,0.0,0.0,0.0,0.0,0.0,0.0,0.0,0.0,0.0,0.0,0.0,0.0,0.0,0.0,0.0,0.0,0.0,0.0,0.0,0.0,0.0,0.0,0.0,0.0,0.0,0.0,0.0,0.0,0.0,0.0,0.0,0.0,0.0,0.0,0.0,0.0,0.0,-1.3647,-1.4329,-1.5504,-1.5752,-1.5784,-1.5784,-1.6847,-1.7043,-1.6054,-1.639,0.0,0.0,0.0,0.0,0.0,0.0,0.0,0.0,0.0,0.0,0.0,0.0,0.0,0.0,0.0,0.0,0.0,0.0,0.0,0.0,0.0,0.0,0.0,0.0,0.0,0.0,0.0,0.0,0.0,0.0,0.0,0.0,0.0,0.0,0.0,0.0,0.0,0.0,0.0,0.0,0.0,0.0,0.0,0.0,0.0,0.0,0.0,0.0,0.0,0.0,0.0,0.0,0.0,0.0,0.0,0.0,0.0,0.0,0.0,0.0,0.0,0.0,0.0,0.0,0.0,0.0,0.0,0.0,0.0,0.0,0.0,0.0,0.0,0.0,0.0,0.0,0.0,0.0,0.0,0.0,0.0,0.0,0.0,0.0,0.0,0.0,0.0,0.0,0.0,0.0,0.0,0.0,0.0,0.0,0.0,0.0,0.0,0.0,0.0,0.0,0.0,0.0,-1.4242,-1.4609,-1.5664,-1.5718,-1.5846,-1.6244,-1.7152,-1.7347,-1.6638,-1.7147,0.0,0.0,0.0,0.0,0.0,0.0,0.0,0.0,0.0,0.0,0.0,0.0,0.0,0.0,0.0,0.0,0.0,0.0,0.0,0.0,0.0,0.0,0.0,0.0,0.0,0.0,0.0,0.0,0.0,0.0,0.0,0.0,0.0,0.0,0.0,0.0,0.0,0.0,0.0,0.0,0.0,0.0,0.0,0.0,0.0,0.0,0.0,0.0,0.0,0.0,0.0,0.0,0.0,0.0,0.0,0.0,0.0,0.0,0.0,0.0,0.0,0.0,0.0,0.0,0.0,0.0,0.0,0.0,0.0,0.0,0.0,0.0,0.0,0.0,0.0,0.0,0.0,0.0,0.0,0.0,0.0,0.0,0.0,0.0,0.0,0.0,0.0,0.0,0.0,0.0,0.0,0.0,0.0,0.0,0.0,0.0,0.0,0.0,0.0,0.0,0.0,0.0,-1.4126,-1.4785,-1.5684,-1.5585,-1.5996,-1.7429,-1.7583,-1.7556,-1.7404,-1.7404,0.0,0.0,0.0,0.0,0.0,0.0,0.0,0.0,0.0,0.0,0.0,0.0,0.0,0.0,0.0,0.0,0.0,0.0,0.0,0.0,0.0,0.0,0.0,0.0,0.0,0.0,0.0,0.0,0.0,0.0,0.0,0.0,0.0,0.0,0.0,0.0,0.0,0.0,0.0,0.0,0.0,0.0,0.0,0.0,0.0,0.0,0.0,0.0,0.0,0.0,0.0,0.0,0.0,0.0,0.0,0.0,0.0,0.0,0.0,0.0,0.0,0.0,0.0,0.0,0.0,0.0,0.0,0.0,0.0,0.0,0.0,0.0,0.0,0.0,0.0,0.0,0.0,0.0,0.0,0.0,0.0,0.0,0.0,0.0,0.0,0.0,0.0,0.0,0.0,0.0,0.0,0.0,0.0,0.0,0.0,0.0,0.0,0.0,0.0,0.0,0.0,0.0,-1.4113,-1.4716,-1.5231,-1.5351,-1.5856,-1.6936,-1.7676,-1.7944,-1.7528,0.0,0.0,0.0,0.0,0.0,0.0,0.0,0.0,0.0,0.0,0.0,0.0,0.0,0.0,0.0,0.0,0.0,0.0,0.0,0.0,0.0,0.0,0.0,0.0,0.0,0.0,0.0,0.0,0.0,0.0,0.0,0.0,0.0,0.0,0.0,0.0,0.0,0.0,0.0,0.0,0.0,0.0,0.0,0.0,0.0,0.0,0.0,0.0,0.0,0.0,0.0,0.0,0.0,0.0,0.0,0.0,0.0,0.0,0.0,0.0,0.0,0.0,0.0,0.0,0.0,0.0,0.0,0.0,0.0,0.0,0.0,0.0,0.0,0.0,0.0,0.0,0.0,0.0,0.0,0.0,0.0,0.0,0.0,0.0,0.0,0.0,0.0,0.0,0.0,0.0,0.0,0.0,0.0,0.0,0.0,0.0,0.0,0.0,0.0,0.0,0.0,0.0,-1.3227,-1.3833,-1.4429,-1.4955,-1.5359,-1.6031,-1.7085,-1.7741,-1.8023,-1.7852,0.0,0.0,0.0,0.0,0.0,0.0,0.0,0.0,0.0,0.0,0.0,0.0,0.0,0.0,0.0,0.0,0.0,0.0,0.0,0.0,0.0,0.0,0.0,0.0,0.0,0.0,0.0,0.0,0.0,0.0,0.0,0.0,0.0,0.0,0.0,0.0,0.0,0.0,0.0,0.0,0.0,0.0,0.0,0.0,0.0,0.0,0.0,0.0,0.0,0.0,0.0,0.0,0.0,0.0,0.0,0.0,0.0,0.0,0.0,0.0,0.0,0.0,0.0,0.0,0.0,0.0,0.0,0.0,0.0,0.0,0.0,0.0,0.0,0.0,0.0,0.0,0.0,0.0,0.0,0.0,0.0,0.0,0.0,0.0,0.0,0.0,0.0,0.0,0.0,0.0,0.0,0.0,0.0,0.0,0.0,0.0,0.0,0.0,0.0,0.0,0.0,0.0,-1.271,-1.3273,-1.3988,-1.4908,-1.5662,-1.6737,-1.8288,-1.7851,-1.7834,0.0,0.0,0.0,0.0,0.0,0.0,0.0,0.0,0.0,0.0,0.0,0.0,0.0,0.0,0.0,0.0,0.0,0.0,0.0,0.0,0.0,0.0,0.0,0.0,0.0,0.0,0.0,0.0,0.0,0.0,0.0,0.0,0.0,0.0,0.0,0.0,0.0,0.0,0.0,0.0,0.0,0.0,0.0,0.0,0.0,0.0,0.0,0.0,0.0,0.0,0.0,0.0,0.0,0.0,0.0,0.0,0.0,0.0,0.0,0.0,0.0,0.0,0.0,0.0,0.0,0.0,0.0,0.0,0.0,0.0,0.0,0.0,0.0,0.0,0.0,0.0,0.0,0.0,0.0,0.0,0.0,0.0,0.0,0.0,0.0,0.0,0.0,0.0,0.0,0.0,0.0,0.0,0.0,0.0,0.0,0.0,0.0,0.0,0.0,0.0,0.0,0.0,0.0,-1.271,-1.3454,-1.4336,-1.5382,-1.586,-1.6841,-1.8658,-1.835,-1.8091,-1.8183,0.0,0.0,0.0,0.0,0.0,0.0,0.0,0.0,0.0,0.0,0.0,0.0,0.0,0.0,0.0,0.0,0.0,0.0,0.0,0.0,0.0,0.0,0.0,0.0,0.0,0.0,0.0,0.0,0.0,0.0,0.0,0.0,0.0,0.0,0.0,0.0,0.0,0.0,0.0,0.0,0.0,0.0,0.0,0.0,0.0,0.0,0.0,0.0,0.0,0.0,0.0,0.0,0.0,0.0,0.0,0.0,0.0,0.0,0.0,0.0,0.0,0.0,0.0,0.0,0.0,0.0,0.0,0.0,0.0,0.0,0.0,0.0,0.0,0.0,0.0,0.0,0.0,0.0,0.0,0.0,0.0,0.0,0.0,0.0,0.0,0.0,0.0,0.0,0.0,0.0,0.0,0.0,0.0,0.0,0.0,0.0,0.0,0.0,0.0,0.0,0.0,0.0,-1.2375,-1.36,-1.4691,-1.5453,-1.6572,-1.7721,-1.8895,-1.8799,-1.8514,-1.8042,0.0,0.0,0.0,0.0,0.0,0.0,0.0,0.0,0.0,0.0,0.0,0.0,0.0,0.0,0.0,0.0,0.0,0.0,0.0,0.0,0.0,0.0,0.0,0.0,0.0,0.0,0.0,0.0,0.0,0.0,0.0,0.0,0.0,0.0,0.0,0.0,0.0,0.0,0.0,0.0,0.0,0.0,0.0,0.0,0.0,0.0,0.0,0.0,0.0,0.0,0.0,0.0,0.0,0.0,0.0,0.0,0.0,0.0,0.0,0.0,0.0,0.0,0.0,0.0,0.0,0.0,0.0,0.0,0.0,0.0,0.0,0.0,0.0,0.0,0.0,0.0,0.0,0.0,0.0,0.0,0.0,0.0,0.0,0.0,0.0,0.0,0.0,0.0,0.0,0.0,0.0,0.0,0.0,0.0,0.0,0.0,0.0,0.0,0.0,0.0,0.0,0.0,-1.2148,-1.3798,-1.5117,-1.5532,-1.7638,-1.9036,-1.9155,-1.924,-1.8926,-1.8066,0.0,0.0,0.0,0.0,0.0,0.0,0.0,0.0,0.0,0.0,0.0,0.0,0.0,0.0,0.0,0.0,0.0,0.0,0.0,0.0,0.0,0.0,0.0,0.0,0.0,0.0,0.0,0.0,0.0,0.0,0.0,0.0,0.0,0.0,0.0,0.0,0.0,0.0,0.0,0.0,0.0,0.0,0.0,0.0,0.0,0.0,0.0,0.0,0.0,0.0,0.0,0.0,0.0,0.0,0.0,0.0,0.0,0.0,0.0,0.0,-0.6753,-0.764,0.0,0.0,0.0,0.0,0.0,0.0,0.0,0.0,0.0,0.0,0.0,0.0,0.0,0.0,0.0,0.0,0.0,0.0,0.0,0.0,0.0,0.0,0.0,0.0,0.0,0.0,0.0,0.0,0.0,0.0,0.0,0.0,0.0,0.0,0.0,0.0,0.0,0.0,0.0,0.0,-1.4332,-1.5335,-1.633,-1.7527,-1.8478,-1.9362,-2.0206,-1.9663,-1.8926,-1.8066,-1.8363,0.0,0.0,0.0,0.0,0.0,0.0,0.0,0.0,0.0,0.0,0.0,0.0,0.0,0.0,0.0,0.0,0.0,0.0,0.0,0.0,0.0,0.0,0.0,0.0,0.0,0.0,0.0,0.0,0.0,0.0,0.0,0.0,0.0,0.0,0.0,0.0,0.0,0.0,0.0,0.0,0.0,0.0,0.0,0.0,0.0,0.0,0.0,0.0,0.0,0.0,0.0,0.0,0.0,0.0,0.0,0.0,0.0,0.0,0.0,-0.6997,-0.8131,0.0,0.0,0.0,0.0,0.0,0.0,0.0,0.0,0.0,0.0,0.0,0.0,0.0,0.0,0.0,0.0,0.0,0.0,0.0,0.0,0.0,0.0,0.0,0.0,0.0,0.0,0.0,0.0,0.0,0.0,0.0,0.0,0.0,0.0,0.0,0.0,0.0,0.0,0.0,0.0,-1.4833,-1.58,-1.6741,-1.7674,-1.8571,-1.9364,-1.9913,-1.9355,-1.8701,-1.8047,-1.8238,0.0,0.0,0.0,0.0,0.0,0.0,0.0,0.0,0.0,0.0,0.0,0.0,0.0,0.0,0.0,0.0,0.0,0.0,0.0,0.0,0.0,0.0,0.0,0.0,0.0,0.0,0.0,0.0,0.0,0.0,0.0,0.0,0.0,0.0,0.0,0.0,0.0,0.0,0.0,0.0,0.0,0.0,0.0,0.0,0.0,0.0,0.0,0.0,0.0,0.0,0.0,0.0,0.0,-0.7216,-0.7237,-0.7213,-0.724,-0.7366,-0.7528,-0.7577,-0.8968,-1.1116,-1.0219,0.0,0.0,0.0,0.0,0.0,0.0,0.0,0.0,0.0,0.0,0.0,0.0,0.0,0.0,0.0,0.0,0.0,0.0,0.0,0.0,0.0,0.0,-1.2585,-1.2817,-1.3026,-1.2939,-1.1915,0.0,0.0,0.0,0.0,0.0,0.0,0.0,0.0,0.0,0.0,0.0,-1.5112,-1.6152,-1.7009,-1.7395,-1.8545,-1.9287,-1.9287,-1.8887,-1.8422,-1.8037,-1.7948,-1.803,0.0,0.0,0.0,0.0,0.0,0.0,0.0,0.0,0.0,0.0,0.0,0.0,0.0,0.0,0.0,0.0,0.0,0.0,0.0,0.0,0.0,0.0,0.0,0.0,0.0,0.0,0.0,0.0,0.0,0.0,0.0,0.0,0.0,0.0,0.0,0.0,0.0,0.0,0.0,0.0,0.0,0.0,0.0,0.0,0.0,0.0,0.0,-0.7048,-0.7068,-0.7377,-0.7455,-0.7346,-0.7736,-0.7803,-0.7726,-0.781,-0.7884,-0.7999,-0.9137,0.0,-1.0835,-1.0444,0.0,0.0,0.0,0.0,0.0,0.0,0.0,0.0,0.0,0.0,0.0,0.0,0.0,0.0,0.0,0.0,0.0,0.0,0.0,0.0,0.0,0.0,-1.3373,-1.32,-1.318,-1.3166,-1.3013,-1.3006,-1.2866,-1.2298,-1.2795,-1.3294,0.0,0.0,0.0,0.0,0.0,0.0,-1.6878,-1.7499,-1.7982,-1.8373,-1.8951,-1.9287,-1.9287,-1.8887,-1.8422,-1.8037,-1.8243,-1.8382,-1.8302,-1.8869,0.0,0.0,0.0,0.0,0.0,0.0,0.0,0.0,0.0,0.0,0.0,0.0,0.0,0.0,0.0,0.0,0.0,0.0,0.0,0.0,0.0,0.0,0.0,0.0,0.0,0.0,0.0,0.0,0.0,0.0,0.0,0.0,0.0,-0.0434,0.0,0.0,0.0,0.0,0.0,0.0,0.0,0.0,0.0,-0.7173,-0.7238,-0.735,-0.7469,-0.7651,-0.7729,-0.775,-0.7897,-0.7955,-0.7891,-0.7961,-0.8432,-0.9167,-0.9752,-1.0961,-1.2499,-1.2035,-1.2693,-1.3901,0.0,0.0,0.0,0.0,-1.2999,-1.3273,-1.3481,-1.3541,-1.3514,-1.3307,0.0,0.0,0.0,0.0,0.0,0.0,0.0,-1.2705,-1.2777,-1.2978,-1.3153,-1.32,-1.3588,-1.4006,-1.4006,-1.4382,-1.4505,-1.3559,-1.4088,-1.4776,-1.5087,-1.5129,0.0,0.0,0.0,-1.6109,-1.6899,-1.6953,-1.709,-1.7486,-1.7734,-1.7852,-1.7852,-1.79,-1.7852,-1.7666,-1.8204,-1.8552,-1.8633,-1.9119,-1.9375,0.0,0.0,0.0,0.0,0.0,0.0,0.0,0.0,0.0,0.0,0.0,0.0,0.0,0.0,0.0,0.0,0.0,0.0,0.0,0.0,0.0,0.0,0.0,0.0,0.0,0.0,0.0,0.0,0.0,0.0,0.0,0.0,-0.0409,0.0,0.0,0.0,0.0,0.0,0.0,-0.7165,-0.7213,-0.7329,-0.7478,-0.7522,-0.7648,-0.7868,-0.7868,-0.7877,-0.7988,-0.7988,-0.7988,-0.7988,-0.7988,-0.8726,-0.9998,-1.0342,-1.1794,-1.3843,-1.3298,-1.3699,-1.4576,-1.3946,-1.354,-1.3273,-1.324,-1.3353,-1.3633,-1.3901,-1.3975,-1.3948,-1.376,-1.3353,-1.2824,-1.2382,0.0,0.0,0.0,0.0,-1.2801,-1.2799,-1.3213,-1.3571,-1.3436,-1.411,-1.4759,-1.4676,-1.533,-1.5642,-1.4724,-1.511,-1.5769,-1.6322,-1.6127,0.0,-1.6941,0.0,-1.6212,-1.6523,-1.63,-1.6261,-1.6648,-1.6697,-1.6697,-1.6697,-1.7031,-1.7217,-1.7217,-1.7737,-1.8166,-1.8458,-1.888,-1.9056,-1.8932,0.0,0.0,0.0,0.0,0.0,0.0,0.0,0.0,0.0,0.0,0.0,0.0,0.0,0.0,0.0,0.0,0.0,0.0,0.0,0.0,0.0,0.0,0.0,0.0,0.0,0.0,0.0,0.0,0.0,0.0,0.0,0.0,0.0,0.0,0.0,-0.5281,-0.6572,-0.7375,-0.757,-0.7577,-0.7641,-0.7784,-0.788,-0.7965,-0.7978,-0.7978,-0.7982,-0.7988,-0.7988,-0.7988,-0.7988,-0.7988,-0.8726,-1.0047,-1.1263,-1.2624,-1.3855,-1.3532,-1.4022,-1.4928,-1.4295,-1.3881,-1.3547,-1.3273,-1.3353,-1.3606,-1.362,-1.3626,-1.3666,-1.3975,-1.3667,-1.318,-1.3153,-1.2739,0.0,0.0,-1.317,-1.3886,-1.3044,-1.4303,-1.5515,-1.426,-1.4665,-1.5267,-1.4864,-1.5289,-1.5687,-1.5559,-1.5589,-1.5685,-1.5888,0.0,-1.5949,-1.6158,-1.6124,-1.6105,-1.6124,-1.6105,-1.6261,-1.6648,-1.6697,-1.6697,-1.6697,-1.6716,-1.6736,-1.6736,-1.6768,-1.6927,-1.7265,-1.7962,-1.8463,-1.8717,-1.8906,0.0,0.0,0.0,0.0,0.0,0.0,0.0,0.0,0.0,0.0,0.0,0.0,0.0,0.0,0.0,0.0,0.0,0.0,0.0,0.0,0.0,0.0,0.0,0.0,0.0,0.0,0.0,0.0,0.0,0.0,0.0,-0.053,-0.1842,-0.3155,-0.4409,-0.5759,-0.6894,-0.783,-0.7833,-0.7857,-0.7907,-0.7961,-0.7988,-0.7988,-0.7988,-0.7988,-0.7988,-0.7988,-0.7988,-0.7988,-0.7988,-0.9164,-1.1263,-1.1702,-1.3025,-1.4871,-1.4722,-1.4903,-1.5204,-1.4847,-1.4469,-1.4133,-1.3881,-1.3955,-1.4166,-1.4166,-1.4088,-1.3854,-1.3414,-1.3119,-1.2918,-1.2685,-1.2472,-1.2305,-1.2305,-1.3066,-1.3814,-1.3483,-1.4198,-1.4906,-1.4439,-1.4825,-1.5299,-1.5169,-1.5776,-1.6332,-1.6324,-1.6312,-1.632,-1.6392,-1.6214,-1.6055,-1.6103,-1.5625,-1.5263,-1.5263,-1.5,-1.4855,-1.5011,-1.5312,-1.5478,-1.5478,-1.5986,-1.6299,-1.6299,-1.701,-1.7407,-1.7383,-1.8097,-1.8283,-1.7872,-1.7936,-1.7965,0.0,0.0,0.0,0.0,0.0,0.0,0.0,0.0,0.0,0.0,0.0,0.0,0.0,0.0,0.0,0.0,0.0,0.0,0.0,0.0,0.0,0.0,0.0,0.0,0.0,0.0,0.0,0.0,0.0,0.0,0.0,-0.1212,-0.2576,-0.3889,-0.5257,-0.6581,-0.7939,-0.7988,-0.7988,-0.7988,-0.7988,-0.7988,-0.7988,-0.7988,-0.7988,-0.7988,-0.7988,-0.7988,-0.7988,-0.7988,-0.9182,-1.1206,-1.1588,-1.2895,-1.4688,-1.5107,-1.5251,-1.5224,-1.493,-1.4696,-1.4482,-1.4195,-1.4148,-1.4166,-1.4073,-1.3955,-1.3694,-1.3132,-1.2871,-1.273,-1.2392,-1.2231,-1.2138,-1.2037,-1.2885,-1.3761,-1.3452,-1.4318,-1.5116,-1.4688,-1.5086,-1.554,-1.537,-1.5828,-1.621,-1.6103,-1.6395,-1.6648,-1.6533,-1.629,-1.6046,-1.5899,-1.5273,-1.4813,-1.4813,-1.4377,-1.4104,-1.4104,-1.4521,-1.4813,-1.4813,-1.5459,-1.5811,-1.5664,-1.6356,-1.6643,-1.6373,-1.7458,-1.781,-1.7279,-1.7531,-1.7463,-1.7087,0.0,0.0,0.0,0.0,0.0,0.0,0.0,0.0,0.0,0.0,0.0,0.0,0.0,0.0,0.0,0.0,0.0,0.0,0.0,0.0,0.0,0.0,0.0,0.0,0.0,0.0,0.0,0.0,0.0,0.0,-0.1193,-0.2535,-0.3821,-0.5227,-0.6581,-0.7889,-0.7988,-0.7988,-0.7988,-0.7988,-0.7988,-0.7988,-0.7988,-0.7988,-0.7988,-0.7985,-0.7982,-0.7982,-0.7978,-0.8672,-0.9897,-1.1019,-1.2169,-1.3341,-1.4488,-1.4988,-1.4955,-1.4629,-1.4522,-1.4482,-1.4182,-1.3881,-1.3547,-1.33,-1.32,-1.32,-1.3186,-1.3018,-1.2717,-1.2422,-1.2177,-1.1888,-1.1592,-1.2774,-1.39,-1.3016,-1.4713,-1.6309,-1.5064,-1.5425,-1.5948,-1.5488,-1.5391,-1.5264,-1.4844,-1.5751,-1.6514,-1.6105,-1.6036,-1.5889,-1.5439,-1.501,0.0,-1.4774,-1.4338,-1.4065,-1.4065,-1.4492,-1.4756,-1.4774,-1.5146,-1.5215,-1.4785,-1.4821,-1.4615,-1.4158,-1.5987,-1.6991,-1.698,-1.7775,-1.7626,-1.65,0.0,0.0,0.0,0.0,0.0,0.0,0.0,0.0,0.0,0.0,0.0,0.0,0.0,0.0,0.0,0.0,0.0,0.0,0.0,0.0,0.0,0.0,0.0,0.0,0.0,0.0,0.0,0.0,0.0,0.0,-0.1224,-0.2152,-0.2536,-0.4671,-0.6179,-0.6531,-0.7484,-0.7988,-0.7988,-0.7988,-0.7988,-0.7988,-0.7988,-0.7988,-0.7988,-0.7877,-0.7875,-0.7872,-0.7767,-0.8867,-1.091,-1.123,-1.2433,-1.419,-1.4504,-1.4516,-1.4342,-1.4469,-1.4522,-1.4456,-1.3913,-1.354,-1.3287,-1.3018,-1.2911,-1.2878,-1.2625,-1.2498,-1.2553,-1.3119,-1.3252,-1.3258,-1.3546,-1.4096,-1.4547,-1.4577,-1.4987,-1.5452,-1.5647,-1.5641,-1.5478,-1.5049,-1.4951,-1.4824,-1.4367,-1.4582,-1.4786,-1.466,-1.464,-1.4601,-1.4475,-1.4131,-1.3857,-1.3857,-1.3486,-1.3223,-1.3223,-1.3877,-1.4163,-1.3887,-1.4531,-1.4775,-1.4309,-1.5248,-1.557,-1.4985,-1.6454,-1.707,-1.6645,-1.7268,-1.725,0.0,0.0,0.0,0.0,0.0,0.0,0.0,0.0,0.0,0.0,0.0,0.0,0.0,0.0,0.0,0.0,0.0,0.0,0.0,0.0,0.0,0.0,0.122,0.0829,0.0829,0.0359,0.0,0.0,0.0,0.0,0.0,-0.07,-0.1377,-0.1938,-0.3956,-0.5418,-0.5982,-0.7285,-0.7988,-0.7988,-0.7988,-0.7988,-0.7988,-0.7928,-0.7894,-0.7894,-0.7794,-0.7723,-0.7719,-0.7638,-0.8536,-1.0241,-1.0829,-1.1987,-1.3449,-1.393,-1.4013,-1.3928,0.0,0.0,0.0,0.0,-1.316,-1.2953,-1.2563,-1.2415,-1.2368,-1.2031,-1.1931,-1.2002,-1.2565,-1.2742,-1.2846,-1.339,-1.3832,-1.4246,-1.4705,-1.4974,-1.5232,-1.5692,-1.5459,-1.5078,-1.4834,-1.4648,-1.4385,-1.3929,-1.3851,0.0,-1.3643,-1.387,-1.4104,-1.4104,-1.3753,-1.3506,-1.3506,-1.3145,-1.2905,-1.2905,-1.3477,-1.3743,-1.3525,-1.4121,0.0,0.0,0.0,-1.5171,-1.5389,-1.6186,0.0,0.0,0.0,-1.7099,-1.65,-1.6861,0.0,0.0,-1.799,-1.8781,0.0,0.0,0.0,0.0,0.0,0.0,0.0,0.0,0.0,0.0,0.0,0.0,0.0,0.0,0.0,0.0,0.2863,0.2014,0.2018,0.0846,0.0,0.0,0.0,0.0,0.0,0.0,-0.0478,-0.1697,-0.3018,-0.4344,-0.5682,0.0,0.0,0.0,0.0,-0.7982,-0.7965,-0.7879,-0.7801,-0.7784,-0.7641,-0.7573,-0.7573,-0.7539,-0.7962,-0.8769,-1.0099,-1.1166,-1.1946,-1.3091,-1.3553,-1.358,-1.3888,-1.3808,-1.344,-1.2985,-1.2744,-1.261,-1.2087,0.0,0.0,-1.151,-1.1389,-1.1423,-1.1526,-1.156,-1.1696,-1.2217,-1.2804,-1.3423,-1.4033,-1.463,-1.51,-1.5284,-1.5019,-1.4697,-1.4648,-1.4336,-1.3909,-1.3516,-1.3437,-1.332,-1.2964,-1.3496,-1.3968,-1.3968,-1.3656,-1.3437,-1.3437,-1.3105,-1.2905,-1.2905,-1.3262,0.0,-1.3437,-1.3792,-1.386,-1.3467,-1.3514,-1.4111,-1.5348,-1.5478,-1.6045,-1.7162,-1.7252,-1.7036,-1.65,-1.65,-1.6525,-1.6635,-1.7639,-1.8618,0.0,0.0,0.0,0.0,0.0,0.0,0.0,0.0,0.0,0.0,0.0,0.0,0.0,0.0,0.0,0.398,0.2888,0.2023,0.2003,0.0843,0.0,0.0,0.0,0.0,0.0,0.0,-0.0104,-0.0365,-0.1637,-0.2977,-0.4318,-0.5675,-0.6883,-0.7988,-0.7988,-0.7931,-0.7858,-0.7824,-0.7753,-0.7638,0.0,0.0,-0.7407,-0.7166,-0.7624,-0.8738,-0.9655,-1.0705,-1.1813,-1.2841,-1.3293,-1.326,-1.3353,-1.3193,-1.2945,-1.2831,-1.2482,-1.206,-1.1946,-1.171,-1.1503,-1.1409,-1.1389,-1.156,-1.2369,-1.2613,0.0,-1.3196,-1.2972,-1.283,-1.3912,-1.3588,-1.331,-1.462,-1.458,-1.4143,-1.3828,-1.3691,-1.3506,-1.3086,-1.3023,-1.3003,-1.2915,-1.3042,-1.3125,-1.3125,-1.3081,-1.3023,-1.3023,-1.2954,-1.2905,-1.2905,-1.3262,-1.3369,-1.3027,-1.3389,-1.3447,-1.3027,-1.348,-1.4071,-1.482,-1.5314,-1.5697,-1.5933,-1.6433,-1.6613,-1.65,-1.65,-1.676,-1.7234,-1.7461,-1.7674,0.0,0.0,0.0,0.0,0.0,0.0,0.0,0.0,0.0,0.0,0.0,0.421,0.4879,0.0,0.5209,0.5911,0.4901,0.377,0.3108,0.1867,0.0733,0.0104,0.0,0.0,0.0,0.0,0.0,0.0,-0.1233,-0.2286,-0.2967,-0.4922,-0.6331,-0.6983,-0.7566,-0.7889,-0.7811,-0.7665,-0.7556,-0.7485,-0.7329,-0.7217,-0.7146,-0.6997,-0.7473,-0.8463,-0.8932,-0.9781,-1.0871,-1.1803,-1.2421,-1.2746,-1.2599,-1.2663,-1.275,-1.2455,-1.2161,-1.1859,-1.153,-1.1336,-1.1182,-1.1042,-1.0995,-1.1121,-1.1762,-1.1864,-1.1959,-1.2916,-1.297,-1.2902,-1.3887,-1.3883,-1.3752,-1.431,-1.4104,-1.3734,-1.3555,-1.334,-1.3135,-1.2944,-1.2905,-1.2905,-1.2905,-1.2905,-1.2905,-1.2905,-1.2905,-1.2905,-1.2905,-1.2905,-1.2905,-1.2905,-1.3066,-1.3105,-1.2925,-1.3076,-1.3105,-1.2915,-1.3467,-1.4073,-1.4686,-1.5276,-1.5754,-1.6051,-1.6358,-1.65,-1.65,-1.65,-1.6638,-1.6948,-1.6948,-1.725,0.0,0.0,0.0,0.0,0.0,0.0,0.0,0.0,0.4131,0.4518,0.469,0.5089,0.6192,0.6371,0.6756,0.7832,0.6869,0.562,0.4528,0.3003,0.1597,0.0516,0.0155,0.0,0.0,0.0,0.0,0.0,-0.098,-0.1739,-0.1964,-0.4071,-0.5465,-0.5946,-0.689,-0.7491,-0.7726,-0.7489,-0.7402,-0.7326,-0.7173,-0.6997,-0.6883,-0.6825,-0.7226,-0.791,-0.8352,-0.9252,-1.0433,-1.1117,-1.1759,-1.2271,-1.202,-1.2194,-1.2549,-1.2013,-1.1785,-1.1665,-1.1156,-1.0955,-1.0901,-1.0667,-1.0593,-1.0626,-1.0768,-1.0661,-1.0736,-1.189,-1.2291,-1.2543,-1.3277,-1.3708,-1.3875,-1.3645,-1.3387,-1.3167,-1.3167,-1.2973,-1.2754,-1.2754,-1.2709,-1.2651,-1.2651,-1.2651,-1.268,-1.2744,-1.2856,-1.2876,-1.2788,-1.2856,-1.2905,-1.2905,-1.2905,-1.2905,-1.2905,-1.2905,-1.2905,-1.2905,-1.3467,-1.4027,-1.4514,-1.5231,-1.582,-1.6315,-1.6445,-1.65,-1.65,-1.65,-1.65,-1.65,-1.65,-1.6989,0.6189,0.5634,0.574,0.6798,0.6365,0.5886,0.0,0.0,0.6799,0.7245,0.7456,0.7576,0.7756,0.7766,0.7832,0.7982,0.6895,0.5942,0.5779,0.3574,0.1969,0.1818,0.0708,0.0,0.0,0.0,0.0,0.0,-0.0152,-0.0758,-0.1913,-0.2264,-0.3491,-0.5733,-0.5963,-0.6482,-0.7424,-0.7433,-0.7302,-0.7122,-0.6977,-0.6903,-0.6876,-0.6647,-0.6592,-0.6765,-0.8487,-1.0273,-1.205,-1.2136,-1.222,-1.2271,-1.202,-1.1946,-1.1966,-1.1597,-1.1309,-1.1082,-1.1015,-1.0854,-1.0633,-1.06,-1.0593,-1.0546,-1.0287,-1.0194,-1.0144,-1.0053,-1.0065,-1.0248,-1.1063,-1.1016,-1.0977,-1.1619,-1.1893,-1.1986,-1.1986,-1.2139,-1.2281,-1.2281,-1.1982,-1.1753,-1.1753,-1.1753,-1.1868,-1.2223,-1.2627,-1.2744,-1.233,-1.2637,-1.2905,-1.2905,-1.2905,-1.2905,-1.2905,-1.2905,-1.2905,-1.2905,-1.3467,-1.3815,-1.3909,-1.4994,-1.5632,-1.5698,-1.6238,-1.65,-1.65,-1.65,-1.65,-1.65,-1.65,-1.6563,0.7673,0.7467,0.0,0.0,0.8693,0.8788,0.9158,0.8817,0.8499,0.887,0.8465,0.7988,0.7988,0.7988,0.7988,0.0,0.7537,0.6883,0.6129,0.5024,0.4004,0.317,0.195,0.0857,0.005,0.0,0.0,0.0,0.0,-0.0251,-0.0794,-0.1585,-0.2501,-0.3561,-0.4942,-0.5871,-0.6245,-0.6799,-0.7037,-0.6885,-0.6824,-0.6749,-0.6658,-0.6569,-0.6467,-0.6428,-0.7305,-0.8755,-1.0522,-1.033,-1.1059,-1.2251,-1.179,-1.161,-1.1577,-1.1283,-1.1096,-1.0969,-1.0827,-1.0693,-1.0566,-1.0354,-1.0301,-1.0247,-0.9953,-0.974,-0.9637,-0.9953,-1.0107,-1.0361,-1.1192,-1.151,-1.1703,-1.2208,-1.2165,-1.2035,-1.2035,-1.1955,-1.1836,-1.1836,-1.1712,-1.1606,-1.1606,-1.1606,-1.1555,-1.1453,-1.1836,-1.2064,-1.1888,-1.2227,-1.2598,-1.2876,-1.2905,-1.2905,-1.2905,-1.2905,-1.2905,-1.2905,-1.3467,-1.3956,-1.4306,-1.5141,-1.5776,-1.6129,-1.638,-1.65,-1.65,-1.65,-1.65,-1.65,-1.65,-1.65,0.9147,0.0,0.0,0.9761,1.0145,1.0445,1.0641,1.024,0.9908,1.0144,0.926,0.8463,0.8417,0.8171,0.7941,0.7982,0.7988,0.7637,0.6681,0.6203,0.5556,0.4503,0.3265,0.1949,0.0651,0.0201,0.0,0.0,0.0,0.0,0.0,-0.0923,-0.1589,-0.1937,-0.365,-0.4795,-0.5313,-0.6024,-0.6509,-0.6702,-0.6658,-0.658,-0.6511,-0.647,-0.6528,-0.6618,-0.673,-0.7676,-0.9131,-0.8886,-0.9782,-1.1305,-1.1047,-1.0929,-1.0924,-1.091,-1.0875,-1.0861,-1.0573,-1.0472,-1.0419,-1.0094,-1.0,-0.994,-0.9646,-0.9384,-0.9301,-0.9751,-0.9965,-1.0173,-1.0811,-1.1234,-1.1507,-1.1639,-1.1544,-1.1448,-1.15,-1.1347,-1.1226,-1.1377,-1.1332,-1.1253,-1.1253,-1.1253,-1.1124,-1.0791,-1.1027,-1.1271,-1.1389,-1.1875,-1.233,-1.2666,-1.2812,-1.2905,-1.2905,-1.2905,-1.2905,-1.2905,-1.3467,-1.4003,-1.4422,-1.5186,-1.582,-1.6238,-1.6423,-1.65,-1.65,-1.65,-1.65,-1.65,-1.65,-1.65,0.0,0.0,0.9479,1.0674,1.0412,1.0079,1.0646,1.1015,1.1227,1.1094,1.0341,0.9675,0.9492,0.8534,0.7868,0.7965,0.7988,0.7988,0.7939,0.6724,0.5812,0.5761,0.4545,0.3231,0.0,0.0699,0.0,0.0,0.0,0.0,0.0,-0.0048,-0.0614,-0.1757,-0.1856,-0.2922,-0.5107,-0.512,-0.5693,-0.6698,-0.6549,-0.6518,-0.6508,-0.6368,-0.6748,-0.7467,-0.7471,-0.7979,-0.881,-0.8804,-0.884,-0.8964,-0.9519,-0.9762,-0.9838,-1.0386,-1.0606,-1.0559,-1.0234,-1.0134,-1.008,-0.9793,-0.9699,-0.9639,-0.9317,-0.9217,-0.9158,-0.8925,-0.8844,-0.8871,-0.8883,-0.8917,-0.8849,-0.8602,-0.9029,-0.9529,-0.9739,-0.9974,-1.0305,-1.0824,-1.0605,-1.0342,-1.0342,-1.0342,-1.0332,-1.0322,-1.0332,-1.0469,-1.0879,-1.1667,-1.2213,-1.2223,-1.2627,-1.2905,-1.2905,-1.2905,-1.2905,-1.2905,-1.3467,-1.3815,-1.3815,-1.4971,-1.561,-1.5632,-1.6194,-1.65,-1.65,-1.65,-1.65,-1.65,-1.65,-1.65,1.2168,0.0,1.2095,1.2923,1.2915,1.2751,1.2942,1.2715,1.2377,1.212,1.0834,0.9719,0.9631,0.8714,0.8061,0.8424,0.8137,0.7874,0.7975,0.7595,0.7198,0.7019,0.5979,0.0,0.0,0.0,0.0,0.0049,0.0,0.0,0.0,0.0,-0.0184,-0.0578,-0.1365,-0.211,-0.2778,-0.3576,-0.4427,-0.5399,-0.6038,-0.6278,-0.6176,-0.6129,-0.6206,-0.6379,-0.6379,-0.6913,-0.7795,-0.7598,-0.8384,-0.965,-0.9682,-0.9945,-1.0335,-1.0531,-1.0345,-1.0023,-1.0087,-0.9987,-0.978,-0.9457,-0.9357,-0.9304,-0.9018,-0.8924,-0.8904,-0.8838,-0.8804,-0.891,-0.9335,-0.9465,-0.9508,-0.9674,-0.966,-0.9661,-0.9922,-0.9822,-0.9859,-1.0389,-1.04,-1.0303,-1.0303,-1.0303,-1.0303,-1.0303,-1.0303,-1.0557,-1.1271,-1.1348,-1.156,-1.2145,-1.209,-1.2047,-1.2047,-1.2047,-1.2152,-1.2408,-1.2619,-1.3057,-1.3758,-1.4572,-1.5186,-1.5588,-1.6182,-1.65,-1.65,-1.65,-1.65,-1.65,-1.65,-1.65,1.3594,1.3777,1.3902,1.4374,1.455,1.4662,1.4777,1.4264,1.3659,1.3379,1.1621,1.0182,1.0228,0.9294,0.8624,0.8862,0.8503,0.8182,0.825,0.7896,0.7584,0.7604,0.6945,0.6243,0.0,0.0,0.0,0.0825,0.0288,0.0,0.0,0.0,0.0,0.0,-0.0767,-0.1291,-0.1604,-0.2382,-0.32,-0.4149,-0.5179,-0.5588,-0.5464,-0.5798,-0.5837,-0.5644,-0.5644,-0.5958,-0.6445,-0.6267,-0.701,-0.8238,-0.8387,-0.8678,-0.9104,-0.9674,-0.9575,-0.923,-0.9652,-0.9679,-0.9479,-0.9151,-0.9058,-0.9024,-0.8864,-0.8804,-0.8804,-0.8804,-0.8804,-0.891,-0.9335,-0.9379,-0.934,-0.9466,-0.919,-0.8984,-0.9258,-0.9108,-0.9139,-0.9883,-1.002,-1.0079,-1.0264,-1.0303,-1.0303,-1.0303,-1.0303,-1.0498,-1.1056,-1.0986,-1.1102,-1.1677,-1.1663,-1.1606,-1.1606,-1.1606,-1.1702,-1.1973,-1.1992,-1.2373,-1.3219,-1.4048,-1.4753,-1.5304,-1.6096,-1.65,-1.65,-1.65,-1.65,-1.65,-1.65,-1.65,1.5065,1.4967,1.4815,1.4987,1.5347,1.5671,1.5932,1.5514,1.4989,1.4608,1.2672,1.1088,0.0,0.0,0.9494,0.9416,0.9206,0.8983,0.8857,0.7804,0.7217,0.0,0.0,0.0,0.0,0.0,0.0,0.2368,0.0,0.0046,0.0,0.0,0.0,0.0,0.0,-0.0481,-0.1523,-0.1564,-0.2084,-0.3087,-0.4058,-0.4521,-0.4582,-0.5415,-0.562,-0.5371,-0.5371,-0.5179,-0.4887,-0.4887,-0.4918,-0.5036,-0.5868,-0.6216,-0.6416,-0.7964,-0.8339,-0.8205,-0.8852,-0.9108,-0.9144,-0.8871,-0.8804,-0.8804,-0.8804,-0.8804,-0.8804,-0.8804,-0.8804,-0.8804,-0.8804,-0.8591,-0.8328,-0.7979,-0.7689,-0.758,-0.784,-0.7899,-0.8214,-0.9299,-0.9518,-0.9696,-1.0215,-1.0303,-1.0303,-1.0303,-1.0303,-1.0312,-1.0332,-1.0645,-1.0889,-1.0908,-1.1281,-1.1538,-1.1538,-1.1538,-1.1547,-1.1589,-1.161,-1.1827,-1.233,-1.3476,-1.4293,-1.4751,-1.5877,-1.645,-1.645,-1.6488,-1.65,-1.65,-1.65,-1.6488,1.6113,1.5858,1.5614,1.5673,1.5611,1.5606,1.5696,1.5495,1.4981,1.3861,1.2703,1.1662,0.0,0.0,0.0,1.0629,1.0692,0.0,1.1067,0.9909,0.0,0.9017,0.0,0.737,0.6968,0.613,0.0,0.0,0.2543,0.0943,0.0044,0.0,0.0,0.0,0.0,-0.0116,-0.0408,-0.1216,-0.2048,-0.2978,-0.3986,-0.4721,-0.5163,-0.5406,-0.5344,-0.5033,-0.5033,-0.4989,-0.4887,-0.4887,-0.5275,-0.5898,-0.6104,-0.6463,-0.6913,-0.7315,-0.7286,-0.7029,-0.7193,-0.7985,-0.8878,-0.8831,-0.8804,-0.8804,-0.8804,-0.8804,-0.8804,-0.8804,-0.8804,-0.8804,-0.8804,-0.8591,-0.8328,-0.7979,-0.7689,-0.758,-0.784,-0.7899,-0.8214,-0.9299,-0.9824,-1.0137,-1.0283,-1.0303,-1.0303,-1.0303,-1.0303,-1.042,-1.0713,-1.0566,-1.0566,-1.0879,-1.0732,-1.0625,-1.0625,-1.0625,-1.0924,-1.1624,-1.1665,-1.2016,-1.2782,-1.3613,-1.4085,-1.4198,-1.5332,-1.5906,-1.5906,-1.63,-1.65,-1.65,-1.65,-1.6296,1.7062,1.6727,1.638,1.6079,1.6027,1.6033,1.5856,1.5437,1.4874,1.4072,1.2732,0.0,1.1347,0.0,0.0,0.0,0.0,0.0,1.1818,1.0834,0.9922,0.0,0.859,0.0,0.7458,0.6583,0.588,0.0,0.3173,0.149,0.0751,0.025,0.0,0.0,0.0,0.0,0.0,-0.0595,-0.114,-0.1622,-0.2618,-0.3469,-0.4132,-0.4519,-0.4756,-0.4819,-0.4819,-0.4779,-0.4718,-0.4718,-0.5002,-0.5459,-0.5459,-0.5657,-0.5987,-0.629,-0.6276,-0.6172,-0.6475,-0.7155,-0.7883,-0.8209,-0.8533,-0.8804,-0.8804,-0.8804,-0.8804,-0.8804,-0.8804,-0.8778,-0.8651,-0.8404,-0.8103,-0.7802,-0.7495,-0.7314,-0.7461,-0.751,-0.7759,-0.8635,-0.9419,-0.9942,-0.9942,-1.0137,-1.0303,-1.0303,-1.0303,-1.0391,-1.0605,-1.043,-1.0391,-1.0605,-1.042,-1.0303,-1.0303,-1.0303,-1.0518,-1.1053,-1.1093,-1.1404,-1.2084,-1.2734,-1.3268,-1.3682,-1.4817,-1.5496,-1.5693,-1.6245,-1.65,-1.6488,-1.6249,-1.5994,1.7904,1.7463,1.7005,1.6267,1.6357,1.6543,1.6183,1.5381,1.4686,1.4594,0.0,1.1601,1.2145,1.2073,1.1892,1.1791,0.0,1.2371,1.2176,1.1377,1.0507,0.9607,0.9095,0.8529,0.7789,0.7208,0.655,0.5779,0.3503,0.2037,0.1771,0.0857,0.0266,0.0144,0.0036,0.0,0.0,0.0,-0.0064,-0.0193,-0.0929,-0.1732,-0.2536,-0.3268,-0.3963,-0.4513,-0.4513,-0.45,-0.4491,-0.4491,-0.4491,-0.4491,-0.4491,-0.4491,-0.457,-0.5164,-0.5378,-0.546,-0.6063,-0.6347,-0.6583,-0.7316,-0.8049,-0.8646,-0.8646,-0.8725,-0.8804,-0.8804,-0.8804,-0.8738,-0.8476,-0.815,-0.7826,-0.7564,-0.7241,-0.7,-0.7,-0.7063,-0.728,-0.7808,-0.8756,-0.9498,-0.9498,-0.9942,-1.0303,-1.0303,-1.0303,-1.0303,-1.0303,-1.0303,-1.0303,-1.0303,-1.0303,-1.0303,-1.0303,-1.0303,-1.0322,-1.04,-1.0467,-1.0706,-1.1177,-1.1756,-1.247,-1.3279,-1.4337,-1.5069,-1.548,-1.6032,-1.6296,-1.6283,-1.5806,-1.5563,1.8402,1.7781,1.7005,1.6267,1.6153,1.6193,1.6114,1.542,0.0,0.0,1.3516,1.3029,1.2599,1.2335,1.247,1.3382,0.0,0.0,0.0,0.0,1.1952,0.0,0.0,0.0,0.0,0.0,0.0,0.0,0.5293,0.3622,0.2738,0.2296,0.1709,0.0925,0.0322,0.0,0.0,0.0,-0.0373,-0.1086,-0.1241,-0.1709,-0.2514,-0.2661,-0.3049,-0.3627,-0.3571,0.0,-0.4491,-0.4491,-0.4491,-0.4491,-0.4491,-0.4491,-0.4519,-0.4625,-0.468,-0.4663,-0.4618,-0.508,-0.5814,-0.6556,-0.7289,-0.7883,-0.7883,-0.8315,-0.8804,-0.8804,-0.8804,-0.8738,-0.8476,-0.815,-0.7826,-0.7564,-0.7241,-0.7,-0.7,-0.7384,-0.7767,-0.7878,-0.8756,-0.9498,-0.9498,-0.9942,-1.0303,-1.0303,-1.0303,-1.0303,-1.0303,-1.0303,-1.0303,-1.0303,-1.0303,-1.0303,-1.0303,-1.0303,-1.0467,-1.0848,-1.1282,-1.1756,-1.2228,-1.2716,-1.3043,-1.3213,-1.3889,-1.4287,-1.4374,-1.4928,-1.5185,-1.5173,-1.5085,-1.4796,1.8807,1.8019,1.7238,1.6497,1.585,1.5361,1.5107,0.0,0.0,0.0,1.3571,1.3277,1.3415,0.0,0.0,0.0,0.0,0.0,0.0,0.0,0.0,0.0,0.0,0.0,0.0,0.0,0.0,0.7589,0.6412,0.509,0.3545,0.2753,0.2131,0.1699,0.0947,0.0576,0.0585,0.0182,-0.0211,-0.0632,-0.0632,-0.1034,-0.1773,-0.1773,-0.2153,-0.2788,-0.2732,-0.2954,-0.3345,-0.3763,-0.3901,-0.3929,-0.4349,-0.4491,-0.4491,-0.4491,-0.4443,-0.4341,-0.4244,-0.4419,-0.477,-0.5138,-0.6271,-0.7474,-0.7416,-0.7961,-0.855,-0.8372,-0.8464,-0.8477,-0.8047,-0.7819,-0.7609,-0.7308,-0.7128,-0.7,-0.7,-0.7231,-0.7426,-0.7426,-0.8103,-0.8663,-0.8663,-0.9119,-0.9459,-0.9459,-0.9705,-0.9883,-0.9883,-1.0127,-1.0303,-1.0303,-1.0303,-1.0303,-1.0303,-1.0303,-1.039,-1.0611,-1.0878,-1.1124,-1.1338,-1.1579,-1.1945,-1.2473,-1.3038,-1.3581,-1.4103,-1.4639,-1.4896,-1.4884,-1.4614,-1.4337,1.9227,1.834,1.7573,1.6729,1.5583,1.4551,1.4182,1.3714,0.0,0.0,1.3479,1.3287,1.4176,0.0,0.0,0.0,0.0,0.0,0.0,0.0,0.0,0.0,0.0,0.0,0.0,0.0,0.0,0.7543,0.6826,0.5767,0.4276,0.313,0.2484,0.2469,0.1735,0.1265,0.1116,0.0531,0.0146,0.0,0.0,-0.0316,-0.0866,-0.0866,-0.1256,-0.1952,-0.1952,-0.2063,-0.2259,-0.2871,-0.3121,-0.3148,-0.3929,-0.4267,-0.4294,-0.4436,-0.4372,-0.419,-0.416,-0.4095,-0.3984,-0.392,-0.5233,-0.6812,-0.6715,-0.7266,-0.7871,-0.7623,-0.7718,-0.7825,-0.7419,-0.7305,-0.7255,-0.7052,-0.7,-0.7,-0.7,-0.7,-0.7,-0.7,-0.7489,-0.7899,-0.7899,-0.8337,-0.8695,-0.8695,-0.9059,-0.9379,-0.9478,-0.9863,-1.0176,-1.0283,-1.0303,-1.0303,-1.0303,-1.0303,-1.0303,-1.0303,-1.039,-1.0448,-1.0448,-1.0649,-1.1142,-1.1938,-1.2456,-1.3114,-1.3909,-1.4331,-1.4544,-1.4532,-1.4092,-1.3909,1.9724,1.8978,1.8102,1.6814,1.5313,1.4153,1.4114,0.0,0.0,1.3477,1.3513,1.3723,1.4567,1.3867,0.0,0.0,0.0,1.2772,0.0,0.0,0.0,0.0,0.0,0.0,0.0,0.0,0.0,0.8168,0.6113,0.4886,0.4829,0.396,0.3427,0.3294,0.2525,0.1769,0.11,0.104,0.0674,0.0,0.0,-0.0028,-0.0112,-0.0112,-0.0504,-0.1202,-0.1202,-0.1591,0.0,-0.2286,-0.2313,-0.2369,-0.3121,-0.3456,-0.3594,-0.4267,-0.4372,-0.4177,-0.4062,-0.4008,-0.395,-0.3707,-0.4392,-0.5314,-0.5291,-0.581,-0.6385,-0.6358,-0.6374,-0.6451,-0.6631,-0.6674,-0.6742,-0.6939,-0.7,-0.7,-0.7,-0.7,-0.7,-0.7,-0.7489,-0.7899,-0.7899,-0.8337,-0.8695,-0.8695,-0.8736,-0.8938,-0.9439,-0.9538,-0.9765,-1.0244,-1.0303,-1.0303,-1.0303,-1.0303,-1.0303,-1.0303,-1.0706,-1.0943,-1.0943,-1.1818,-1.2336,-1.2437,-1.2904,-1.3186,-1.3273,-1.3323,-1.3366,-1.3366,-1.3315,-1.3273,1.9696,1.9449,1.8948,1.8059,1.6553,1.5207,1.485,0.0,1.3076,1.3724,1.386,1.4124,1.5,1.4782,1.4504,0.0,0.0,0.0,0.0,0.0,0.0,0.0,0.0,0.0,0.0,0.0,0.9179,0.7778,0.6222,0.5205,0.4808,0.4375,0.4129,0.407,0.3317,0.2788,0.2482,0.2009,0.1396,0.0671,0.0671,0.042,0.0,0.0,-0.0168,-0.0448,-0.0448,-0.0616,0.0,-0.1369,-0.1535,-0.1615,-0.2344,-0.2649,-0.275,-0.3408,-0.3564,-0.347,-0.378,-0.3826,-0.3737,-0.3641,-0.3859,-0.4257,-0.459,-0.5241,-0.5854,-0.5697,-0.5777,-0.5875,-0.583,-0.575,-0.5719,-0.5826,-0.5975,-0.6146,-0.6309,-0.6551,-0.6814,-0.6966,-0.7196,-0.7363,-0.7363,-0.7544,-0.7682,-0.7682,-0.7979,-0.8296,-0.85,-0.8817,-0.9099,-0.9319,-0.9922,-1.0303,-1.0303,-1.0303,-1.0303,-1.0303,-1.0486,-1.0572,-1.0572,-1.0962,-1.13,-1.1597,-1.177,-1.2036,-1.2354,-1.2354,-1.2508,-1.2773,-1.2773,-1.2925,1.9484,1.9587,1.9459,1.8857,1.7391,1.5976,0.0,0.0,1.3437,1.3844,1.4026,1.4328,1.5088,1.5225,1.509,0.0,0.0,1.4172,0.0,0.0,0.0,0.0,0.0,0.0,0.0,1.0194,0.9038,0.7528,0.6355,0.549,0.4958,0.4657,0.4491,0.4491,0.3987,0.3624,0.3372,0.2815,0.2147,0.1424,0.1424,0.1034,0.0336,0.0336,0.0196,0.0,0.0,0.0,0.0,-0.0551,-0.0767,-0.084,-0.1583,-0.1879,-0.1952,-0.2587,-0.2747,-0.2704,-0.3128,-0.3187,-0.3062,-0.3062,-0.3195,-0.3407,-0.3745,-0.4415,-0.5033,-0.485,-0.5038,-0.5306,-0.5198,-0.5235,-0.5296,-0.5404,-0.5565,-0.5757,-0.5943,-0.6311,-0.6653,-0.6833,-0.6946,-0.7,-0.7,-0.7,-0.7,-0.7,-0.7363,-0.7704,-0.7878,-0.8242,-0.8521,-0.8675,-0.9518,-1.0059,-1.0059,-1.0059,-1.0137,-1.0283,-1.0303,-1.0303,-1.0303,-1.0428,-1.0668,-1.0989,-1.1169,-1.1412,-1.1792,-1.1792,-1.2029,-1.2508,-1.2508,-1.2738,1.9146,1.9291,1.9459,1.8857,1.7453,1.6025,0.0,0.0,1.4227,1.3633,1.3821,1.4241,1.4707,1.4823,1.4922,1.5313,0.0,0.0,0.0,0.0,0.0,0.0,0.0,0.0,0.0,0.9537,0.8373,0.7743,0.6335,0.0,0.5492,0.4869,0.4491,0.4491,0.4491,0.4098,0.3314,0.3287,0.2926,0.2202,0.2202,0.1814,0.109,0.109,0.0699,0.0,0.0,0.0,0.0,0.0,0.0,-0.0076,-0.0834,-0.111,-0.121,-0.1938,-0.2113,-0.2018,-0.2018,-0.1941,-0.183,-0.183,-0.2228,-0.2676,-0.2547,-0.3028,-0.3626,-0.3626,-0.4008,-0.4479,-0.4814,-0.5308,-0.5766,-0.6114,-0.6196,-0.6196,-0.6196,-0.6405,-0.6606,-0.6613,-0.6827,-0.7,-0.7,-0.7,-0.7,-0.7,-0.7,-0.7231,-0.7829,-0.7899,-0.8118,-0.8643,-0.9179,-0.9498,-0.9498,-0.9498,-0.9736,-1.0264,-1.0303,-1.0303,-1.0303,-1.0745,-1.1,-1.1,-1.1523,-1.1792,-1.1792,-1.1792,-1.2029,-1.2508,-1.2508,-1.2738,1.8405,1.907,1.9499,1.8573,1.793,1.7138,1.5733,0.0,1.432,1.3972,1.4277,1.4707,1.5137,1.5215,1.5156,1.501,1.5013,0.0,0.0,0.0,0.0,0.0,0.0,0.0,0.0,0.0,0.8651,0.7773,0.7257,0.6794,0.6285,0.6041,0.55,0.4515,0.4491,0.4377,0.4125,0.4125,0.3735,0.2954,0.2954,0.2565,0.1842,0.1842,0.1682,0.1351,0.0918,0.0688,0.059,0.018,0.0,-0.0025,-0.0245,-0.034,-0.0436,-0.1082,-0.1291,-0.1318,-0.1718,-0.1828,-0.1789,-0.181,-0.1934,-0.2074,-0.2042,-0.266,-0.3381,-0.3276,-0.3384,-0.3526,-0.3633,-0.3732,-0.3812,-0.3912,-0.4087,-0.4278,-0.4502,-0.509,-0.5627,-0.5813,-0.6324,-0.6727,-0.6727,-0.6873,-0.7,-0.7,-0.7,-0.7063,-0.7252,-0.728,-0.7356,-0.7523,-0.7696,-0.8252,-0.9399,-0.9843,-1.0118,-1.0283,-1.0303,-1.0303,-1.0303,-1.0448,-1.0525,-1.0525,-1.0697,-1.0764,-1.0783,-1.1094,-1.1689,-1.2508,-1.2838,-1.3047,0.0,1.853,1.9045,1.838,1.7836,0.0,0.0,0.0,1.4563,1.4178,1.4582,1.5107,1.5361,1.541,1.5381,1.5312,1.5352,0.0,0.0,0.0,0.0,0.0,0.0,0.0,0.0,1.0249,0.9356,0.8207,0.7857,0.7503,0.7047,0.675,0.6209,0.5308,0.5034,0.4759,0.4491,0.4436,0.4135,0.364,0.364,0.3256,0.2546,0.2546,0.2329,0.1964,0.1544,0.1325,0.0,0.0592,0.0342,0.0313,0.0093,0.0,-0.0045,-0.0412,-0.0555,-0.0616,-0.0989,-0.1123,-0.1118,-0.1115,-0.1241,-0.1424,-0.1648,-0.2199,-0.2754,-0.2852,-0.2869,-0.2934,-0.3219,-0.3228,-0.3193,-0.3286,-0.3437,-0.3625,-0.3833,-0.4378,-0.4898,-0.5122,-0.5642,-0.6055,-0.6092,-0.625,-0.6343,-0.6282,-0.6421,-0.6524,-0.6586,-0.6659,-0.678,-0.698,-0.7004,-0.7512,-0.8792,-0.9199,-0.9558,-0.9981,-1.0,-1.0088,-1.0303,-1.0127,-1.0039,-1.0039,-0.9883,-0.9883,-1.0039,-1.0671,-1.1319,-1.1945,-1.2443,-1.2768,0.0,1.779,1.8204,1.8204,1.7382,1.6397,0.0,0.0,0.0,0.0,1.4806,1.541,1.541,1.541,1.5537,1.5938,0.0,0.0,0.0,0.0,0.0,0.0,0.0,0.0,1.1071,1.0902,1.0313,0.8897,0.8209,0.7824,0.7777,0.7128,0.6723,0.6669,0.5991,0.528,0.4556,0.4367,0.4239,0.418,0.418,0.3833,0.3174,0.3174,0.2772,0.0,0.1958,0.1862,0.1819,0.1203,0.0946,0.0888,0.0277,0.0042,0.0042,0.002,0.0,0.0,0.0,0.0,0.0,0.0,-0.0302,-0.0761,-0.1319,-0.1621,-0.1852,-0.2301,-0.2419,-0.2563,-0.3259,-0.343,-0.3494,-0.3759,-0.3826,-0.3863,-0.3863,-0.4099,-0.4352,-0.4475,-0.4806,-0.5091,-0.5223,-0.5247,-0.525,-0.5136,-0.5436,-0.5742,-0.5895,-0.6092,-0.6398,-0.688,-0.6941,-0.7172,-0.773,-0.7844,-0.8334,-0.9334,-0.9396,-0.9594,-1.0089,-0.9712,-0.9471,-0.9471,-0.9159,-0.924,-0.9714,-1.0567,-1.1019,-1.1075,-1.1571,-1.2029,1.7247,0.0,1.8204,1.8204,1.8297,1.7983,0.0,0.0,0.0,0.0,0.0,1.541,1.541,1.541,1.5342,1.5146,0.0,0.0,0.0,0.0,0.0,0.0,0.0,1.2607,1.1477,1.1023,1.0259,0.889,0.9126,0.9093,0.856,0.8374,0.8023,0.7456,0.708,0.6307,0.5133,0.5066,0.4698,0.4048,0.4048,0.3944,0.3793,0.3793,0.3633,0.336,0.2848,0.2583,0.2438,0.1731,0.1442,0.138,0.077,0.0537,0.0497,0.0138,0.0,0.0,0.0,0.0,0.0,0.0,-0.0072,-0.0188,-0.0325,-0.0861,-0.1443,-0.1547,-0.1583,-0.1629,-0.1795,-0.1839,-0.1849,-0.1923,-0.2206,-0.2477,-0.2477,-0.3046,-0.357,-0.3598,-0.4119,-0.458,-0.4613,-0.4825,-0.5098,-0.5364,-0.5491,-0.5681,-0.6084,-0.6181,-0.6243,-0.6384,-0.6382,-0.6447,-0.6581,-0.7351,-0.803,-0.8468,-0.8315,-0.8251,-0.8378,-0.8272,-0.8228,-0.8228,-0.873,-0.9549,-1.0675,-1.0881,-1.1207,-1.1627,-1.1737,-1.1866,1.7157,1.7624,1.789,1.8141,1.8225,1.7946,1.6945,0.0,0.0,0.0,0.0,0.0,1.5892,0.0,0.0,0.0,0.0,0.0,0.0,0.0,0.0,0.0,1.4201,1.3148,0.0,1.1722,1.1063,0.9803,0.9762,0.964,0.929,0.8962,0.8554,0.8028,0.7884,0.7132,0.5733,0.5503,0.502,0.4321,0.4321,0.418,0.3914,0.3914,0.387,0.3788,0.3398,0.3168,0.3048,0.2326,0.2013,0.1936,0.1244,0.0982,0.0942,0.0682,0.0604,0.0601,0.0602,0.059,0.0601,0.0602,0.0464,0.0319,0.0319,0.0,-0.0469,-0.0905,-0.1023,-0.1072,-0.1255,-0.1305,-0.1305,-0.1305,-0.149,-0.1742,-0.1947,-0.2374,-0.2793,-0.3071,-0.3438,-0.3729,-0.3793,-0.3953,-0.412,-0.4288,-0.4494,-0.475,-0.5053,-0.5316,-0.557,-0.5843,-0.5823,-0.59,-0.6169,-0.6478,-0.6943,-0.7602,-0.7513,-0.7621,-0.8053,-0.7869,-0.7762,-0.7749,-0.8391,-0.9091,-0.9817,-0.9993,-1.0239,-1.0524,-1.0524,-1.0748,1.71,1.7524,1.7739,1.8216,1.8007,1.7641,0.0,0.0,0.0,0.0,0.0,0.0,0.0,0.0,0.0,0.0,0.0,0.0,0.0,0.0,0.0,0.0,1.4307,0.0,1.2504,1.2494,1.2057,1.0889,1.0364,1.0012,0.9814,0.9292,0.8849,0.8527,0.8432,0.779,0.6539,0.5942,0.5374,0.479,0.479,0.4514,0.4033,0.4033,0.4033,0.4026,0.392,0.0,0.3749,0.3016,0.2701,0.2581,0.1731,0.1399,0.1391,0.1328,0.1305,0.1305,0.1305,0.1305,0.1305,0.1305,0.1072,0.0789,0.0789,0.0789,0.0621,-0.0168,-0.0403,-0.0486,-0.0887,-0.0987,-0.1021,-0.1088,-0.1156,-0.1323,-0.1711,-0.1914,-0.2143,-0.2672,-0.2819,-0.2913,-0.3013,-0.3034,-0.3012,-0.2961,-0.3308,-0.3621,-0.3809,-0.4233,-0.4699,-0.5221,-0.5169,-0.5313,-0.5817,-0.5397,-0.5517,-0.6473,-0.6677,-0.7099,-0.7895,-0.7546,-0.7391,-0.7515,-0.791,-0.8175,-0.8306,-0.8711,-0.8902,-0.8919,-0.9038,-0.9514,1.7225,1.8066,1.877,1.8857,1.9158,1.9254,0.0,0.0,0.0,0.0,0.0,0.0,0.0,0.0,0.0,0.0,0.0,0.0,0.0,0.0,0.0,1.4331,0.0,1.3164,1.2034,1.2472,1.228,1.0897,1.1241,1.099,0.9865,0.992,0.97,0.9096,0.8596,0.8214,0.7974,0.696,0.6018,0.5205,0.5205,0.5162,0.5069,0.5069,0.5069,0.5069,0.0,0.4905,0.4646,0.4023,0.3626,0.3329,0.2293,0.1885,0.1849,0.1444,0.1305,0.1305,0.1305,0.1305,0.1305,0.1305,0.1256,0.1206,0.1206,0.1206,0.1173,0.1037,0.0987,0.0904,0.0503,0.0386,0.0285,-0.0101,-0.0504,-0.0807,-0.089,-0.1477,-0.2019,-0.2121,-0.2461,-0.274,-0.2761,-0.2764,-0.2872,-0.3195,-0.3303,-0.3506,-0.3907,-0.4041,-0.4133,-0.4217,-0.4214,-0.4231,-0.4339,-0.4258,-0.428,-0.4444,-0.5161,-0.5621,-0.5759,-0.57,-0.5989,-0.6681,-0.6753,-0.7156,-0.7887,-0.8287,-0.8497,-0.8497,-0.9188,-0.9588,1.666,1.7727,1.8632,1.8933,1.9874,0.0,0.0,0.0,0.0,0.0,0.0,0.0,0.0,0.0,0.0,0.0,0.0,0.0,1.6944,1.5891,1.4754,0.0,0.0,1.2977,1.2446,1.2691,1.2627,1.1974,1.1857,1.1541,1.0914,1.0458,0.9979,0.9486,0.9001,0.8657,0.8511,0.7717,0.6789,0.5787,0.5787,0.561,0.5303,0.5303,0.5303,0.5303,0.0,0.5139,0.4858,0.4481,0.4159,0.3849,0.303,0.2702,0.2653,0.2222,0.2059,0.2092,0.2299,0.2382,0.2431,0.2679,0.259,0.2389,0.2389,0.2227,0.2051,0.2051,0.1686,0.1256,0.1072,0.1023,0.0972,0.0754,0.0536,0.0251,-0.0218,-0.0635,-0.1053,-0.1523,-0.1792,-0.194,-0.194,-0.2161,-0.2377,-0.2573,-0.2821,-0.3056,-0.3274,-0.3478,-0.3626,-0.3626,-0.3842,-0.3993,-0.3993,-0.3993,-0.3993,-0.3993,-0.4782,-0.5241,-0.5241,-0.5696,-0.6121,-0.649,-0.649,-0.669,-0.7098,-0.7503,-0.7696,-0.7721,-0.8558,-0.9072,1.6207,1.7315,1.8304,1.8707,0.0,0.0,0.0,0.0,0.0,0.0,0.0,0.0,0.0,0.0,0.0,0.0,0.0,1.7812,1.7062,1.5836,1.4618,1.3575,1.3381,1.3272,1.3128,1.3104,1.3065,1.2905,1.2369,1.1935,1.1654,1.0952,1.029,0.9759,0.9378,0.9102,0.8878,0.8357,0.7593,0.6605,0.6456,0.6151,0.569,0.569,0.569,0.569,0.569,0.5507,0.5186,0.498,0.4671,0.4238,0.3748,0.3514,0.3425,0.3122,0.301,0.3043,0.336,0.3458,0.3523,0.3875,0.3751,0.3456,0.3456,0.3249,0.3011,0.3011,0.2481,0.1852,0.1538,0.1457,0.144,0.1321,0.1305,0.112,0.0451,0.0234,-0.0033,-0.0701,-0.0918,-0.1001,-0.1001,-0.1388,-0.1692,-0.1692,-0.2078,-0.2377,-0.2377,-0.2633,-0.2827,-0.2827,-0.3159,-0.3409,-0.3528,-0.363,-0.3695,-0.3695,-0.4472,-0.4912,-0.4912,-0.5565,-0.596,-0.6052,-0.6052,-0.6114,-0.6213,-0.6624,-0.6811,-0.6835,-0.7701,-0.8372,1.6315,1.7315,1.8216,1.8254,0.0,0.0,0.0,0.0,0.0,0.0,0.0,0.0,0.0,0.0,0.0,0.0,1.9345,1.8831,1.8575,0.0,1.5998,1.5226,1.4791,1.4352,1.3802,1.3732,1.3505,1.2954,1.2856,1.2363,1.13,1.1422,1.0997,0.9919,0.962,0.9466,0.9439,0.8918,0.8357,0.7767,0.7217,0.6915,0.6873,0.6873,0.6873,0.6873,0.6873,0.6579,0.6094,0.5896,0.5321,0.4551,0.4393,0.417,0.3945,0.3912,0.3912,0.3912,0.3945,0.3945,0.3961,0.3993,0.3977,0.3956,0.3956,0.3923,0.3907,0.3907,0.3858,0.3511,0.2278,0.1947,0.1845,0.1406,0.1305,0.1288,0.1221,0.0919,0.0635,0.0568,0.02,-0.01,-0.01,-0.0483,-0.0801,-0.0801,-0.1138,-0.1405,-0.1405,-0.1421,-0.1438,-0.1438,-0.147,-0.1671,-0.2111,-0.2547,-0.2795,-0.2795,-0.3614,-0.4086,-0.4086,-0.4151,-0.4355,-0.4724,-0.474,-0.4947,-0.5388,-0.5797,-0.5991,-0.6014,-0.6819,-0.7642,1.6705,1.7626,1.8292,1.8607,0.0,0.0,0.0,0.0,0.0,0.0,0.0,0.0,0.0,0.0,0.0,0.0,1.9635,1.9107,1.7975,1.7003,1.6033,1.5035,1.4787,1.4606,1.4376,1.4352,1.4271,1.4048,1.3671,1.3135,1.243,1.1888,1.1271,1.0535,1.017,1.0,1.0,0.9459,0.9099,0.8878,0.8321,0.7876,0.7572,0.7897,0.7715,0.7143,0.7482,0.7092,0.6257,0.6175,0.5708,0.4998,0.4658,0.4312,0.3993,0.3993,0.3993,0.4042,0.428,0.4377,0.4425,0.4714,0.481,0.481,0.481,0.4602,0.4377,0.4377,0.4188,0.381,0.3015,0.2801,0.2702,0.2275,0.2175,0.2092,0.1792,0.1609,0.1423,0.1136,0.0935,0.0816,0.0816,0.045,0.0167,0.0167,-0.02,-0.0599,-0.0885,-0.0919,-0.1019,-0.1271,-0.1305,-0.1373,-0.1557,-0.1723,-0.1959,-0.2247,-0.3085,-0.3556,-0.3556,-0.3842,-0.4075,-0.4215,-0.4231,-0.4312,-0.4489,-0.4903,-0.5228,-0.5493,-0.6508,-0.7299,1.7166,1.779,1.8078,0.0,0.0,0.0,0.0,0.0,0.0,0.0,0.0,0.0,0.0,0.0,0.0,0.0,1.9145,1.8647,1.7483,1.6805,1.614,1.5356,1.5265,1.5197,1.4994,1.4994,1.4903,1.4698,1.4164,1.3622,1.3162,1.2179,1.1425,1.0955,1.0528,1.0303,1.0303,0.9942,0.968,0.9531,0.9153,0.8621,0.7936,0.8311,0.8031,0.7273,0.7639,0.7306,0.6502,0.6599,0.6321,0.5745,0.5218,0.4852,0.4596,0.4596,0.4596,0.466,0.5061,0.5203,0.5251,0.5578,0.5672,0.5656,0.5522,0.5264,0.4979,0.4858,0.4618,0.4296,0.3832,0.3621,0.3446,0.3171,0.3109,0.299,0.2507,0.2408,0.2275,0.1823,0.174,0.174,0.174,0.1388,0.1103,0.1103,0.0716,0.0299,-0.0033,-0.0067,-0.0167,-0.0451,-0.0601,-0.0735,-0.0869,-0.1019,-0.1305,-0.1742,-0.2335,-0.2798,-0.3097,-0.3417,-0.3646,-0.3772,-0.3923,-0.4058,-0.4188,-0.4622,-0.5011,-0.5381,-0.6165,-0.6891,1.7698,1.7802,0.0,0.0,0.0,0.0,0.0,0.0,0.0,0.0,0.0,0.0,0.0,0.0,0.0,1.8103,1.7762,1.741,1.741,1.6886,1.65,1.65,1.65,1.6259,1.5676,1.561,1.5365,1.4766,1.4205,1.3703,1.3221,1.2238,1.1482,1.101,1.0563,1.0322,1.0322,1.0312,1.0078,0.9611,0.9611,0.9041,0.7997,0.8008,0.7784,0.7406,0.7398,0.7224,0.6925,0.7255,0.719,0.6828,0.616,0.5898,0.5898,0.5898,0.5898,0.596,0.6366,0.6503,0.6503,0.6503,0.6503,0.6427,0.6021,0.5898,0.5828,0.5419,0.5309,0.5198,0.473,0.4312,0.401,0.401,0.3993,0.3875,0.3409,0.3306,0.3196,0.2795,0.2716,0.2716,0.2712,0.2314,0.2014,0.2014,0.1609,0.1305,0.1305,0.1305,0.1305,0.1305,0.0936,0.0518,0.005,-0.0418,-0.0853,-0.1255,-0.1288,-0.1707,-0.2646,-0.2696,-0.2874,-0.3278,-0.3744,-0.4183,-0.458,-0.5055,-0.5415,-0.5677,-0.5684,-0.6306,1.7154,1.7524,0.0,0.0,0.0,0.0,0.0,0.0,0.0,0.0,0.0,0.0,0.0,0.0,0.0,1.7727,1.7511,1.741,1.741,1.6886,1.65,1.65,1.65,1.6423,1.6238,1.6238,1.6151,1.5976,1.5071,1.4329,1.3862,1.2788,1.1998,1.1582,1.1442,1.1367,1.1367,1.093,1.0648,1.0509,1.0127,0.9313,0.8156,0.8531,0.8252,0.75,0.7924,0.7705,0.7024,0.6848,0.6705,0.6605,0.6407,0.632,0.632,0.632,0.632,0.6336,0.6457,0.6503,0.6503,0.6503,0.6503,0.6488,0.6366,0.632,0.629,0.6183,0.6145,0.6045,0.5634,0.543,0.5115,0.4215,0.3993,0.3961,0.3826,0.3793,0.3761,0.363,0.3614,0.3516,0.3183,0.2999,0.2818,0.253,0.2377,0.2161,0.1826,0.1507,0.1305,0.1305,0.1188,0.107,0.0919,0.0785,0.0534,0.0133,-0.02,-0.0785,-0.1673,-0.2028,-0.2261,-0.2374,-0.2841,-0.3138,-0.3266,-0.3501,-0.3817,-0.4234,-0.495,-0.5607,1.7608,0.0,0.0,0.0,0.0,0.0,0.0,0.0,0.0,0.0,0.0,0.0,0.0,1.8063,0.0,1.7785,1.7713,1.7609,1.7384,1.7234,1.7055,1.6837,1.7013,1.7055,1.6837,1.6816,1.6731,1.6522,1.5463,1.4724,1.443,1.315,1.2338,1.2095,1.1902,1.1792,1.1792,1.12,1.0826,1.0654,1.0116,0.9366,0.8457,0.8977,0.8773,0.8026,0.8263,0.7964,0.7329,0.7068,0.6978,0.6963,0.6805,0.6736,0.6736,0.6736,0.6736,0.6751,0.6918,0.6978,0.6978,0.6978,0.6978,0.6948,0.679,0.6736,0.6715,0.6548,0.6503,0.6442,0.6198,0.6137,0.5906,0.4973,0.475,0.475,0.4722,0.4722,0.4626,0.4301,0.4237,0.4092,0.3653,0.3577,0.3495,0.3253,0.322,0.3105,0.2825,0.255,0.2382,0.2382,0.2382,0.2296,0.2112,0.2095,0.1845,0.1248,0.0948,0.0482,-0.0234,-0.1204,-0.1726,-0.1726,-0.2189,-0.2418,-0.2418,-0.2909,-0.3357,-0.3775,-0.4631,-0.5203,0.0,0.0,0.0,0.0,0.0,0.0,0.0,0.0,0.0,0.0,0.0,0.0,0.0,1.7787,1.7612,1.8115,1.8133,1.7927,1.7442,1.7787,1.7927,1.7422,1.7807,1.7907,1.7435,1.7374,1.7167,1.668,1.5691,1.5069,1.4993,1.3521,1.2663,1.2579,1.2156,1.192,1.192,1.134,1.0855,1.048,0.989,0.9379,0.8978,0.9295,0.9199,0.8789,0.8477,0.8148,0.7797,0.7797,0.7797,0.7759,0.7399,0.7257,0.7257,0.7257,0.7257,0.731,0.7676,0.7797,0.7797,0.7797,0.7797,0.7729,0.7369,0.7257,0.7183,0.6811,0.6706,0.6706,0.6661,0.6661,0.6555,0.6152,0.6006,0.5937,0.5876,0.5868,0.5652,0.4916,0.4779,0.4636,0.4242,0.4167,0.4134,0.407,0.4026,0.3993,0.3993,0.3993,0.3993,0.3993,0.3993,0.3821,0.3403,0.3371,0.3025,0.2235,0.2137,0.1925,0.1503,-0.0183,-0.112,-0.112,-0.163,-0.1878,-0.1888,-0.2857,-0.3488,-0.3798,-0.4414,-0.484,0.0,0.0,0.0,0.0,0.0,0.0,0.0,0.0,0.0,0.0,0.0,0.0,1.8376,1.8364,1.8453,1.8173,1.8109,1.8066,1.7947,1.8027,1.8066,1.7947,1.8027,1.8046,1.7947,1.7927,1.7887,1.7767,1.7147,1.6418,1.5573,1.475,1.3928,1.3089,1.2943,1.289,1.289,1.2352,1.2021,1.1947,1.092,1.0381,1.0259,0.935,0.8889,0.8803,0.872,0.8637,0.8568,0.8568,0.8568,0.8554,0.8473,0.8431,0.8431,0.8431,0.8431,0.8445,0.854,0.8568,0.8568,0.8568,0.8568,0.854,0.8459,0.8431,0.842,0.8336,0.8308,0.8227,0.7909,0.7823,0.7747,0.7389,0.6826,0.6366,0.6358,0.635,0.6304,0.6121,0.6091,0.5952,0.5489,0.5404,0.5192,0.4573,0.421,0.3993,0.3993,0.3993,0.3993,0.3993,0.3993,0.3956,0.3853,0.3853,0.3767,0.3588,0.3229,0.2976,0.2878,0.1195,0.0267,0.0267,-0.055,-0.0987,-0.0973,-0.1666,-0.2047,-0.2124,-0.2852,-0.3206,0.0,0.0,0.0,0.0,0.0,0.0,0.0,0.0,0.0,0.0,0.0,1.9519,1.8307,1.8534,1.8804,1.8519,1.8688,1.8779,1.8516,1.8688,1.8765,1.8516,1.8708,1.8765,1.8516,1.8477,1.838,1.8125,1.7597,1.6927,1.6032,1.5453,1.4735,1.3848,1.3818,1.3818,1.3818,1.3287,1.2904,1.2672,1.1824,1.1255,1.0904,0.9825,0.938,0.9461,0.9205,0.8981,0.8803,0.8803,0.8803,0.8803,0.8803,0.8803,0.8803,0.8803,0.8803,0.8803,0.8803,0.8803,0.8803,0.8803,0.8803,0.8803,0.8803,0.8803,0.8803,0.8803,0.8803,0.875,0.8546,0.849,0.8448,0.8277,0.7637,0.7133,0.7325,0.7369,0.7345,0.7312,0.7189,0.6922,0.6453,0.6235,0.5991,0.5574,0.5331,0.5197,0.5197,0.5197,0.5197,0.5197,0.5197,0.5197,0.5197,0.5197,0.5102,0.4875,0.4629,0.4321,0.3937,0.3046,0.218,0.1346,0.0846,0.0489,0.0261,-0.0244,-0.0494,-0.0527,-0.1422,-0.1838,0.0,0.0,0.0,0.0,0.0,0.0,0.0,0.0,0.0,0.0,1.9825,1.9028,1.8473,1.8727,1.9043,1.9043,1.9406,1.9584,1.9177,1.9464,1.9566,1.9192,1.9479,1.953,1.908,1.9043,1.8855,1.8419,1.796,1.7337,1.648,1.6016,1.5382,1.4529,1.4501,1.4501,1.4501,1.4065,1.3636,1.3258,1.2725,1.211,1.1428,1.0625,1.0272,1.0297,0.9789,0.9384,0.9078,0.9021,0.8994,0.8994,0.905,0.9078,0.9091,0.9133,0.9131,0.9078,0.9078,0.9037,0.8994,0.8994,0.8994,0.8994,0.8994,0.8994,0.8994,0.8994,0.8994,0.8994,0.8994,0.8994,0.8981,0.8912,0.851,0.8202,0.8467,0.8446,0.8389,0.8432,0.8148,0.7767,0.7371,0.7023,0.6773,0.6706,0.6631,0.657,0.651,0.6503,0.6503,0.6503,0.6503,0.6503,0.6503,0.6503,0.6335,0.5952,0.5922,0.5622,0.4963,0.4932,0.421,0.2681,0.238,0.2059,0.1716,0.1307,0.1096,0.1017,0.0129,-0.0332,0.0,0.0,0.0,0.0,0.0,0.0,0.0,0.0,0.0,0.0,2.0176,2.0256,1.9612,1.9548,1.9584,1.9584,1.9639,1.9803,2.0074,1.9859,1.9803,2.0091,1.9874,1.9672,1.9603,1.9584,1.9566,1.9479,1.9423,1.867,1.7078,1.6934,1.6149,1.4545,1.4501,1.4501,1.4501,1.4434,1.4361,1.4285,1.3754,1.3147,1.2485,1.1894,1.1335,1.0789,1.0411,1.0235,1.016,0.9867,0.9751,0.9777,1.0072,1.0197,1.0222,1.0508,1.0446,1.0197,1.0197,0.9995,0.9751,0.9751,0.9751,0.9751,0.9751,0.9751,0.9751,0.9751,0.9751,0.9751,0.9751,0.9751,0.9673,0.9383,0.9603,0.9776,0.9484,0.9062,0.887,0.9322,0.9008,0.8626,0.8574,0.8231,0.7876,0.7589,0.7185,0.6821,0.654,0.6503,0.6503,0.6503,0.6503,0.6503,0.6503,0.6503,0.6473,0.6404,0.6404,0.6358,0.6251,0.6243,0.5952,0.5306,0.3869,0.3202,0.3384,0.2971,0.266,0.2418,0.2291,0.193,0.0,0.0,0.0,0.0,0.0,0.0,0.0,0.0,0.0,2.0233,2.0489,2.07,2.0133,2.026,2.043,2.043,2.043,2.0482,2.0682,2.0549,2.0482,2.0682,2.0532,2.043,2.043,2.043,2.043,2.043,2.043,1.9757,1.8176,1.8115,1.7319,1.5551,1.5507,1.5419,1.5225,1.5225,1.5104,1.483,1.4607,1.3955,1.2979,1.2974,1.2373,1.1318,1.0877,1.0679,1.0667,1.0521,1.0459,1.0472,1.0631,1.0679,1.0703,1.0849,1.0813,1.0679,1.0679,1.0582,1.0459,1.0459,1.0459,1.0459,1.0459,1.071,1.1014,1.1014,1.1255,1.1522,1.1522,1.1522,1.1496,1.1335,1.1492,1.1699,1.1866,1.0679,0.9575,0.9492,0.9292,0.9062,0.8844,0.8654,0.849,0.8333,0.8143,0.7952,0.7805,0.779,0.779,0.779,0.7623,0.7501,0.7501,0.7305,0.727,0.7496,0.7501,0.7492,0.7448,0.7277,0.7073,0.6878,0.5402,0.4575,0.4423,0.4294,0.4157,0.403,0.3781,0.368,0.0,0.0,0.0,0.0,0.0,0.0,0.0,0.0,2.1153,0.0,2.083,2.1055,2.0683,2.083,2.0991,2.0991,2.0991,2.1039,2.1134,2.1055,2.1039,2.1134,2.1055,2.0991,2.0991,2.0991,2.0991,2.0991,2.0991,2.0398,1.8973,1.8893,1.8143,1.6481,1.6421,1.6315,1.6067,1.6038,1.5868,1.5521,1.5521,1.4841,1.3583,1.389,1.3264,1.1887,1.128,1.1048,1.1118,1.1226,1.1331,1.1414,1.1663,1.1658,1.1491,1.1586,1.1563,1.1451,1.1273,1.1237,1.1244,1.1055,1.0968,1.0897,1.0897,1.1251,1.1677,1.1842,1.223,1.2606,1.276,1.2801,1.2801,1.2801,1.2913,1.3123,1.3401,1.2075,1.0677,1.0141,0.9824,0.9595,0.9372,0.9185,0.9064,0.9052,0.9052,0.8996,0.883,0.8874,0.8901,0.8816,0.8578,0.8421,0.8421,0.8152,0.8109,0.8407,0.8556,0.861,0.8553,0.8459,0.8405,0.8415,0.7391,0.6518,0.5821,0.5996,0.6052,0.5959,0.5612,0.5588,0.0,0.0,0.0,0.0,0.0,0.0,0.0,0.0,0.0,2.1005,2.1291,2.1552,2.1536,2.1244,2.0991,2.0991,2.0991,2.1134,2.1522,2.1244,2.1134,2.1521,2.1228,2.0991,2.0991,2.0991,2.0991,2.0991,2.0991,2.0398,1.8973,1.8893,1.8255,1.6824,1.6763,1.6763,1.6751,1.6751,1.6738,1.6712,1.6712,1.5977,1.4624,1.4647,1.3887,1.2522,1.1652,1.1413,1.1691,1.2147,1.2476,1.2807,1.3748,1.37,1.3112,1.3442,1.3346,1.2986,1.2277,1.2159,1.2213,1.1511,1.1113,1.0897,1.0897,1.0924,1.1074,1.1718,1.1925,1.2078,1.2648,1.2801,1.2801,1.2801,1.3248,1.3513,1.2955,1.2692,1.2416,1.1863,1.1008,1.0446,1.0739,1.0261,0.9829,0.9754,0.9754,0.9521,0.8874,0.9081,0.915,0.8844,0.8789,0.8775,0.8775,0.8761,0.8748,0.8775,0.9253,0.9526,0.9515,1.0059,1.0362,1.0341,1.0161,0.9393,0.8035,0.8542,0.8623,0.8322,0.8299,0.8022,0.0,0.0,0.0,0.0,0.0,0.0,0.0,2.1095,2.1472,2.1402,2.1735,2.2046,2.2046,2.193,2.1825,2.1825,2.1825,2.1886,2.2032,2.193,2.1955,2.2269,2.2039,2.1895,2.2068,2.1938,2.1825,2.1825,2.1825,2.1408,2.0439,1.9897,1.9062,1.7873,1.737,1.7014,1.6802,1.6802,1.6802,1.6802,1.6802,1.6303,1.5406,1.5406,1.4899,1.3983,1.3687,1.3338,1.3,1.3165,1.3563,1.4117,1.4487,1.4457,1.4233,1.4368,1.4331,1.419,1.3914,1.3873,1.3912,1.364,1.3483,1.3393,1.3393,1.3702,1.4103,1.4335,1.4711,1.5085,1.5316,1.5365,1.5365,1.5365,1.5376,1.5373,1.5373,1.4306,1.3164,1.2593,1.2194,1.1852,1.1596,1.1337,1.1037,1.0572,1.0506,1.0578,1.0769,1.052,1.0453,1.0756,0.9978,0.9442,0.9442,0.9052,0.9062,0.9662,1.0111,1.0636,1.124,1.152,1.1666,1.166,1.1357,1.0649,0.9542,0.9646,0.9649,0.953,0.9529,0.9607,0.0,0.0,0.0,0.0,0.0,0.0,0.0,0.0,2.1939,2.1858,2.2092,2.2296,2.2296,2.2374,2.2422,2.2422,2.2531,2.2598,2.2598,2.2598,2.2673,2.2848,2.2721,2.2634,2.2682,2.2537,2.2402,2.231,2.2296,2.1989,2.1241,2.0686,1.9841,1.8606,1.7861,1.7372,1.7142,1.7142,1.7142,1.7142,1.7142,1.6775,1.6102,1.6102,1.5775,1.5209,1.5209,1.4821,1.4221,1.4469,1.4908,1.5457,1.572,1.5654,1.5441,1.5441,1.5441,1.5408,1.5151,1.5179,1.5261,1.5011,1.4875,1.4793,1.4793,1.511,1.5517,1.5746,1.6128,1.6524,1.6738,1.6802,1.6802,1.6802,1.6633,1.6528,1.6751,1.5538,1.4287,1.3884,1.3528,1.3173,1.2769,1.2535,1.2228,1.177,1.1714,1.1747,1.1882,1.167,1.1523,1.1564,1.0806,1.0292,1.0292,0.9894,1.0044,1.1017,1.1388,1.1952,1.2841,1.2989,1.3098,1.3195,1.2938,1.2567,1.2033,1.1284,1.0975,1.111,1.1113,1.1219,0.0,0.0,0.0,0.0,0.0,0.0,2.1759,0.0,2.2673,2.2394,2.233,2.233,2.2296,2.2541,2.2721,2.2721,2.2996,2.32,2.32,2.32,2.32,2.3212,2.32,2.3081,2.2759,2.2721,2.2599,2.2349,2.2324,2.2003,2.1271,2.1221,2.0496,1.8944,1.8217,1.7817,1.78,1.78,1.78,1.78,1.78,1.7422,1.6733,1.6743,1.6504,1.6079,1.6062,1.5777,1.5344,1.6044,1.6485,1.679,1.7523,1.7354,1.6733,1.6733,1.6733,1.6631,1.591,1.5959,1.6232,1.5515,1.5108,1.4902,1.4902,1.4902,1.5048,1.5697,1.5878,1.6016,1.6648,1.6815,1.6815,1.6828,1.6815,1.6815,1.6841,1.6329,1.5851,1.5831,1.5034,1.4358,1.4347,1.3857,1.3438,1.3362,1.3349,1.3015,1.2138,1.2456,1.2326,1.1164,1.125,1.14,1.14,1.1389,1.1795,1.278,1.3057,1.349,1.4238,1.4461,1.4724,1.5034,1.5049,1.5198,1.55,1.3539,1.2777,1.3162,1.3145,1.2901,1.8817,0.0,0.0,0.0,0.0,0.0,2.2614,2.3374,2.3829,2.3226,2.3105,2.2936,2.2398,2.2721,2.3057,2.3057,2.3141,2.32,2.32,2.32,2.33,2.3533,2.3357,2.3247,2.3403,2.32,2.3021,0.0,2.273,2.25,2.2306,2.1591,2.0496,1.8944,1.8691,1.8335,1.78,1.78,1.78,1.78,1.78,1.7681,1.7501,1.7706,1.7704,1.7604,1.7799,1.7808,1.7621,1.7097,1.713,1.7523,1.7715,1.7693,1.7507,1.7507,1.7507,1.7473,1.7259,1.7294,1.7356,1.7143,1.7168,1.7262,1.7262,1.7391,1.7554,1.7533,1.7537,1.7534,1.7534,1.7349,1.7224,1.7472,1.7349,1.728,1.7721,1.7668,1.735,1.6673,1.6301,1.5945,1.5471,1.5256,1.4971,1.4456,1.4393,1.4468,1.4694,1.442,1.4277,1.4425,1.3872,1.3467,1.3467,1.3293,1.3455,1.4139,1.4496,1.499,1.5625,1.5979,1.6071,1.5859,1.5874,1.5745,1.55,1.4949,1.46,1.4469,1.424,1.4044,0.0,0.0,0.0,0.0,0.0,0.0,2.2554,2.3519,2.4203,2.3156,2.2936,2.2844,2.2521,2.2883,2.3253,2.338,2.3533,2.3628,2.3628,2.3628,2.3692,2.3886,2.3742,2.3649,2.3692,2.3533,2.3357,2.32,2.3021,2.291,2.291,2.1931,2.0951,2.0057,1.9593,1.9,1.8268,1.8365,1.8278,1.7971,1.8072,1.8125,1.8135,1.83,1.843,1.8537,1.8706,1.877,1.8726,1.8127,1.7929,1.7982,1.8082,1.8078,1.7971,1.7971,1.7971,1.7949,1.7845,1.7861,1.7971,1.7971,1.8146,1.8371,1.8371,1.8479,1.8566,1.841,1.8371,1.833,1.8166,1.799,1.7898,1.8093,1.7973,1.7952,1.8283,1.8371,1.8211,1.767,1.754,1.7383,1.6848,1.6673,1.6399,1.587,1.5716,1.567,1.5795,1.5549,1.5384,1.5383,1.4963,1.4718,1.4827,1.4702,1.4977,1.5817,1.5961,1.631,1.6971,1.7072,1.704,1.6826,1.6826,1.6769,1.6625,1.5875,1.5502,1.5505,1.5388,1.5286,0.0,0.0,0.0,0.0,2.2602,0.0,2.2099,2.3193,2.4101,2.2716,2.2457,2.2548,2.2799,2.3132,2.3518,2.3894,2.4168,2.43,2.4208,2.419,2.419,2.419,2.419,2.4084,2.3785,2.3764,2.3621,2.3335,2.3288,2.3236,2.32,2.2305,2.1746,2.1659,2.0727,1.9884,1.9142,1.928,1.903,1.8381,1.8524,1.8595,1.8595,1.8623,1.877,1.8992,1.9018,1.9026,1.9026,1.9026,1.8716,1.827,1.8508,1.845,1.8239,1.8239,1.8239,1.8208,1.7971,1.8029,1.8239,1.8239,1.843,1.8632,1.8632,1.866,1.867,1.8642,1.8614,1.8595,1.8595,1.8595,1.8595,1.8595,1.8595,1.8604,1.865,1.8632,1.8642,1.867,1.8632,1.851,1.8213,1.7965,1.7698,1.7404,1.7146,1.6783,1.6189,1.6324,1.6144,1.5305,1.5443,1.5681,1.5915,1.5927,1.6416,1.7551,1.7334,1.747,1.812,1.7875,1.7746,1.7803,1.7803,1.7956,1.8239,1.6584,1.6001,1.6415,1.655,1.6511,0.0,0.0,0.0,0.0,0.0,0.0,2.2758,2.3703,2.4254,2.3359,2.34,2.3619,2.3723,2.4204,2.4791,2.552,2.5363,2.4934,2.4281,2.419,2.419,2.419,2.419,2.417,2.4103,2.4103,2.4074,2.4006,2.3746,2.3471,2.3212,2.3,2.2623,2.2017,2.1801,2.1344,2.0612,2.0004,1.9626,1.9477,1.8886,1.8595,1.8604,1.8816,1.8949,1.9001,1.9174,1.9235,1.9235,1.9235,1.8955,1.8528,1.8576,1.8566,1.8518,1.8518,1.8518,1.8508,1.846,1.8479,1.8518,1.8518,1.8706,1.8923,1.8923,1.9042,1.9132,1.8957,1.877,1.8595,1.8595,1.8595,1.8595,1.8595,1.8595,1.8669,1.8878,1.8923,1.8966,1.914,1.8851,1.8576,1.851,1.8462,1.8395,1.8346,1.8268,1.8203,1.8076,1.8106,1.8064,1.7869,1.7908,1.7965,1.8004,1.8004,1.8113,1.8374,1.8327,1.8351,1.851,1.8444,1.8415,1.8415,1.8432,1.8452,1.8518,1.7896,1.7646,1.7724,1.7434,1.7305,0.0,0.0,0.0,1.9853,0.0,0.0,0.0,2.3044,2.3731,2.3004,2.3096,2.3489,2.4081,2.4254,2.474,2.6129,2.5484,2.4983,2.5486,2.4763,2.419,2.419,2.419,2.419,2.419,2.419,2.419,2.419,2.4036,2.3886,2.3703,2.3544,2.3287,2.2905,2.2742,2.2296,2.1565,2.0876,2.0364,1.9989,1.93,1.8947,1.8947,1.9101,1.915,1.9158,1.9269,1.9297,1.9297,1.9297,1.9154,1.8947,1.8947,1.8887,1.8798,1.8798,1.8798,1.878,1.8659,1.8697,1.8798,1.8798,1.8957,1.915,1.915,1.923,1.9274,1.9182,1.9049,1.8947,1.8947,1.8947,1.8947,1.8947,1.8947,1.8999,1.9125,1.915,1.9182,1.9274,1.9105,1.8947,1.8947,1.886,1.8798,1.8798,1.8697,1.8595,1.8595,1.8595,1.8595,1.8595,1.8595,1.8642,1.8789,1.8798,1.8878,1.9089,1.9105,1.9135,1.9208,1.919,1.9097,1.8902,1.8825,1.9003,1.9388,1.9434,1.9076,1.8358,1.8288,1.8183,0.0,0.0,0.0,0.0,0.0,2.1613,0.0,0.0,0.0,2.24,2.2514,0.0,0.0,0.0,0.0,2.6238,0.0,0.0,0.0,2.5634,0.0,2.4792,2.445,2.4273,2.4478,2.4487,2.4403,2.4218,2.4376,2.4403,2.4218,2.3937,2.3795,2.3795,2.3533,2.3117,2.2514,2.192,2.1251,2.0508,1.9833,1.9444,1.9297,1.9297,1.9297,1.9297,1.9297,1.9297,1.9297,1.9297,1.9297,1.9297,1.9297,1.9206,1.906,1.906,1.906,1.9035,1.8807,1.8887,1.906,1.906,1.9166,1.9297,1.9297,1.9297,1.9297,1.9297,1.9327,1.935,1.935,1.938,1.939,1.939,1.939,1.9383,1.9357,1.935,1.9342,1.9305,1.9297,1.9297,1.9297,1.9166,1.906,1.906,1.8904,1.8789,1.8789,1.8816,1.8824,1.8824,1.8824,1.892,1.9132,1.9148,1.9297,1.9623,1.9642,1.9688,1.9803,1.979,1.9651,1.9317,1.9379,1.9719,2.0366,2.0841,2.0435,1.9226,1.9502,1.9493,0.0,0.0,0.0,0.0,1.9749,0.0,2.0926,0.0,2.1908,2.2225,0.0,0.0,0.0,0.0,0.0,0.0,0.0,0.0,2.6954,2.6711,2.6672,2.6919,2.5308,2.4552,2.5436,2.5537,2.5152,2.4264,2.5023,2.5133,2.4246,2.4161,2.4151,2.4151,2.4103,2.4057,2.3966,2.3198,2.2401,2.1613,2.0759,1.9987,1.9297,1.9297,1.9297,1.9297,1.9297,1.9297,1.9297,1.9297,1.9297,1.9297,1.9297,1.9282,1.9259,1.9259,1.9259,1.9259,1.9235,1.9243,1.9259,1.9259,1.9274,1.9297,1.9297,1.9297,1.9297,1.9297,1.9435,1.9562,1.9562,1.9644,1.9737,1.9737,1.9737,1.9719,1.9596,1.9562,1.9513,1.9327,1.9297,1.9297,1.9297,1.9274,1.9259,1.9259,1.9387,1.9499,1.9499,1.9586,1.9663,1.9663,1.9663,1.967,1.9707,1.9707,1.9725,1.9761,1.9786,1.9773,1.979,1.979,1.9773,1.9737,2.0477,2.091,2.1004,2.1765,2.1901,2.144,2.176,2.1819,0.0,0.0,0.0,0.0,0.0,0.0,2.055,0.0,2.1368,0.0,0.0,0.0,0.0,0.0,0.0,0.0,2.6123,0.0,0.0,0.0,2.7005,2.7266,0.0,0.0,2.6475,2.5991,2.528,2.4273,2.5133,2.5253,2.4246,2.419,2.419,2.419,2.419,2.419,2.419,2.3391,2.2593,2.1794,2.0914,2.0071,1.9297,1.9297,1.9297,1.9297,1.9297,1.9297,1.9305,1.9435,1.9478,1.9474,1.9565,1.9538,1.9478,1.9478,1.9478,1.9464,1.9335,1.9297,1.9312,1.9442,1.9478,1.9481,1.9572,1.9586,1.9586,1.9586,1.9657,1.9726,1.9726,1.9762,1.979,1.979,1.979,1.9773,1.9719,1.9726,1.9688,1.9618,1.9586,1.9586,1.9586,1.9536,1.9502,1.9592,1.9663,1.9726,1.9726,1.9768,1.979,1.979,1.979,1.979,1.979,1.979,1.983,1.9917,2.0031,2.0088,2.0088,1.9982,1.9922,1.9922,2.0691,2.133,2.1803,2.2715,2.3303,2.3512,2.27,2.2243,1.7374,0.0,0.0,0.0,0.0,0.0,0.0,0.0,0.0,0.0,2.1713,0.0,0.0,0.0,0.0,0.0,0.0,2.5728,0.0,2.727,0.0,0.0,0.0,0.0,0.0,2.6902,2.6116,2.506,2.5686,2.5574,2.4264,2.419,2.419,2.419,2.419,2.419,2.419,2.3621,2.2813,2.1794,2.1161,2.0317,1.9297,1.9297,1.9297,1.9297,1.9297,1.9327,1.9387,1.9534,1.9623,1.9663,1.9796,1.9803,1.9713,1.9663,1.9643,1.963,1.9483,1.9441,1.9462,1.9604,1.9643,1.9669,1.9774,1.979,1.979,1.979,1.9824,1.9852,1.9852,1.9904,1.995,1.995,1.995,1.992,1.9863,1.9852,1.9841,1.9821,1.979,1.9807,1.9847,1.9744,1.9688,1.9792,1.983,1.9852,1.9852,1.9909,1.995,1.995,1.995,1.995,1.995,1.995,1.9977,2.0073,2.0229,2.0308,2.0308,2.0372,2.0403,2.0403,2.1412,2.2218,2.2803,2.3749,2.4469,2.491,2.3695,2.3094,0.0,1.8477,1.8874,1.8893,1.9299,1.9836,2.0212,2.0314,2.0449,2.0926,0.0,0.0,0.0,0.0,0.0,0.0,0.0,0.0,0.0,0.0,0.0,0.0,0.0,0.0,0.0,2.8646,2.8195,0.0,2.7113,2.6362,2.432,2.419,2.419,2.419,2.419,2.419,2.419,2.4171,2.3373,2.1794,2.1776,2.0894,1.9297,1.9297,1.9297,1.9297,1.9297,1.9402,1.9582,1.9608,1.9676,1.9821,1.9929,1.9984,1.9964,1.9841,1.9784,1.9784,1.9797,1.9778,1.9797,1.9784,1.9784,1.9784,1.9809,1.979,1.979,1.979,1.9896,1.9984,1.9984,2.0143,2.0281,2.0281,2.0281,2.0233,2.0046,1.9984,1.9963,1.9819,1.979,1.9841,1.9964,1.9885,1.9803,1.979,1.9917,1.9984,1.9984,2.0156,2.0281,2.0281,2.0281,2.0281,2.0281,2.0281,2.0281,2.0285,2.0308,2.0308,2.0308,2.1038,2.1457,2.1457,2.3135,2.4024,2.4038,2.4861,2.5259,2.5274,2.5235,2.5097,1.8046,1.8496,1.8893,1.8893,1.9299,1.9744,1.9874,1.9909,2.0017,2.0449,2.0878,0.0,0.0,0.0,0.0,0.0,0.0,0.0,0.0,0.0,0.0,0.0,0.0,0.0,0.0,0.0,0.0,0.0,2.6199,0.0,2.4273,2.419,2.419,2.419,2.419,2.419,2.419,2.419,2.3722,2.2796,2.2654,2.1797,2.0296,2.0292,2.0,1.9506,1.9592,1.9676,1.9738,1.9824,1.9896,1.9953,2.0134,2.0197,2.0184,2.0007,1.9924,1.9927,1.983,1.979,1.9807,1.9912,2.0323,2.0814,2.0905,2.1335,2.1665,2.1082,2.0957,2.0873,2.0336,2.0245,2.0308,2.0308,2.0308,2.0281,2.0205,2.0196,2.0195,2.0139,2.0168,2.0202,2.0268,2.0231,2.0187,2.0143,2.0171,2.0197,2.0197,2.0269,2.0308,2.0308,2.0308,2.0308,2.0308,2.0788,2.1109,2.1152,2.1155,2.0911,2.0382,2.1186,2.1637,2.1637,2.3345,2.4241,2.4241,2.5046,2.5431,2.5431,2.5431,2.536,1.8612,1.893,1.9188,1.9188,1.9442,1.9708,1.9708,1.9708,1.9803,2.0212,2.0666,2.1118,0.0,0.0,0.0,0.0,0.0,0.0,0.0,2.7677,0.0,0.0,0.0,0.0,0.0,0.0,0.0,0.0,0.0,0.0,0.0,2.4257,2.4266,2.4199,2.419,2.419,2.419,2.419,2.3897,2.3292,2.3162,2.2479,2.1327,2.1037,2.0618,2.0119,1.99,1.9824,1.9899,2.0297,2.0322,2.0158,2.0553,2.0558,2.0281,2.0156,2.0111,2.0097,2.0016,1.9981,2.0034,2.0413,2.0914,2.1445,2.1848,2.2139,2.2158,2.1312,2.1077,2.0889,2.0042,2.0273,2.0723,2.0769,2.1008,2.1234,2.1253,2.126,2.1254,2.1254,2.1305,2.1311,2.1311,2.1311,2.1092,2.0447,2.0608,2.0805,2.0805,2.0778,2.0757,2.0757,2.0489,2.0423,2.0734,2.1252,2.1717,2.2081,2.2103,2.1872,2.1348,2.217,2.2481,2.2168,2.3841,2.4561,2.4267,2.5102,2.5491,2.5491,2.5513,2.55]}]]